GFSSE_850_temp_000.txt.gz
Temp
21 19 16 16 16 15 15 14 15 15 14 14 14 13 13 13 13 13 13 13 13 13 13 13 13 13 13 14 14 13 13 13 13 13 12 13 14 14 13 12 13 13 12
21 19 16 16 15 15 15 15 15 14 14 14 13 12 12 12 12 13 13 13 13 13 12 13 12 12 13 13 12 13 13 13 13 12 12 13 13 13 13 13 12 12 12
22 19 16 15 16 16 16 15 15 14 13 13 13 12 11 11 12 12 12 12 12 12 12 13 13 13 13 13 13 13 13 13 13 13 12 13 13 13 13 12 11 11 11
21 20 17 16 16 16 16 15 15 14 14 13 13 12 11 12 13 12 12 12 12 13 13 13 13 13 14 13 13 13 14 13 14 13 13 13 13 13 13 11 11 11 12
21 20 19 16 16 16 16 15 15 14 14 13 12 12 12 13 13 13 13 12 12 13 13 13 14 14 14 14 14 14 14 14 14 14 14 14 14 13 12 11 11 11 11
21 20 20 19 17 15 15 16 15 15 14 14 13 12 12 13 14 13 13 13 12 13 14 14 14 14 14 14 14 14 14 14 14 14 14 14 14 13 13 12 12 11 11
20 19 20 19 17 16 16 16 15 15 15 14 14 13 12 13 13 14 13 13 13 13 13 13 13 14 14 14 14 14 14 14 14 14 14 13 13 13 13 13 13 11 11
19 19 19 19 18 17 15 15 15 15 15 14 14 13 13 13 13 14 14 13 13 13 13 13 13 14 14 14 13 13 13 13 13 13 13 13 13 13 13 13 13 13 13
18 19 19 19 18 17 15 15 15 15 14 14 14 13 13 13 13 13 14 13 13 13 13 13 13 13 13 13 13 12 12 12 12 12 12 12 12 12 12 12 12 12 12
18 18 18 18 18 18 17 15 15 15 13 14 14 14 14 14 14 14 13 14 14 14 13 13 13 13 13 13 13 12 12 12 12 12 12 12 11 12 12 12 13 13 13
18 18 18 18 17 18 17 16 15 14 14 13 13 14 15 14 14 14 14 14 14 13 13 13 13 13 13 13 12 12 12 12 12 12 12 12 12 12 12 12 12 13 13
19 18 18 18 17 17 17 16 15 14 14 14 14 14 15 14 14 14 14 14 13 13 12 13 13 12 12 12 12 12 12 12 12 12 12 12 12 12 12 12 12 12 12
20 19 19 18 17 16 16 16 15 14 14 14 13 14 14 14 14 13 13 13 12 12 12 12 12 12 12 12 12 12 12 12 12 12 12 12 12 12 12 12 12 12 12
20 19 18 18 17 17 16 16 15 14 13 13 13 13 13 13 13 12 13 12 12 11 12 12 12 12 11 11 12 12 12 12 12 12 12 11 11 11 11 11 10 11 11
20 20 19 18 17 17 16 15 14 14 14 13 13 13 13 12 12 12 12 11 11 11 11 11 11 12 12 12 12 12 12 12 11 11 11 11 10 10 10 10 10 10 11
20 20 20 19 18 16 16 15 14 14 13 13 13 12 12 12 12 12 12 11 12 12 11 12 12 12 12 12 12 11 11 10 10 10 10 9 9 10 10 10 10 11 10
21 20 21 20 19 17 15 15 14 14 13 13 12 12 12 11 11 11 11 11 11 12 12 12 12 12 12 11 11 10 10 9 9 9 9 9 9 9 10 10 10 10 10
20 21 21 20 19 17 15 14 14 13 13 12 12 12 12 11 11 11 11 11 12 12 12 12 12 11 11 10 10 10 10 10 9 9 9 9 9 9 9 10 10 10 10
20 20 21 20 19 16 15 14 14 13 13 13 12 12 12 11 10 11 11 12 11 11 11 11 10 9 9 9 9 10 10 10 9 8 8 9 9 9 9 9 9 9 9
20 20 20 19 18 16 15 14 13 13 13 12 12 12 11 11 11 11 11 11 11 10 10 10 9 8 7 8 9 10 10 9 8 8 8 8 8 9 9 8 8 8 8
19 20 20 19 17 16 15 14 13 13 13 12 12 11 11 11 12 11 11 10 10 10 9 9 8 8 7 7 8 9 9 9 9 8 7 8 8 8 8 8 8 7 7
18 19 18 18 16 16 15 13 13 13 12 12 11 11 11 11 11 11 10 10 9 9 9 8 7 6 6 5 5 6 6 7 8 8 8 8 8 7 7 7 7 7 7
17 18 17 17 15 16 14 13 12 12 12 11 11 11 11 11 11 10 10 9 9 8 8 7 6 5 5 5 4 3 3 3 2 5 6 6 5 5 5 5 5 5 5
17 16 16 15 15 14 14 13 13 12 12 11 11 11 11 11 10 10 9 9 8 8 7 6 5 5 4 4 4 3 2 1 1 1 2 4 3 3 4 4 4 4 4
16 16 15 14 14 13 14 13 12 11 11 11 11 11 11 10 10 9 9 8 7 7 6 5 4 4 3 3 3 2 2 2 1 -1 -1 2 3 3 3 2 2 2 2
15 15 14 14 12 13 13 12 11 11 11 11 11 11 11 10 9 9 8 7 7 6 5 5 4 4 3 3 2 2 1 0 -0 -2 -3 -2 -2 -1 1 2 2 1 0

GFSSE_850_temp_003.txt.gz
Temp
21 20 16 15 15 15 15 15 15 15 14 14 14 14 14 14 14 14 13 13 13 13 13 13 13 13 13 13 14 13 13 13 13 13 13 14 14 15 14 12 12 13 13
22 20 16 16 15 15 15 15 15 15 14 14 13 13 13 13 13 13 13 13 13 13 13 13 13 13 13 13 13 13 13 12 13 13 13 13 14 14 14 12 12 12 12
22 20 16 16 15 15 16 16 15 15 14 14 13 13 12 12 13 13 13 13 13 13 13 13 14 13 13 13 12 13 13 13 14 14 14 14 14 13 13 12 12 11 12
21 20 17 16 15 15 16 16 15 14 14 14 13 12 12 13 13 13 13 12 12 13 13 13 14 14 14 14 13 13 14 14 14 15 14 14 14 13 13 12 12 11 12
21 19 16 15 15 15 16 15 15 15 14 14 12 12 13 13 13 13 13 13 12 13 13 13 13 13 13 13 13 13 13 14 14 14 14 15 14 14 14 14 12 12 11
23 20 16 16 15 15 15 15 14 15 14 14 13 12 13 13 13 13 13 13 13 13 13 13 13 14 14 13 14 14 13 13 14 14 14 14 14 14 14 14 13 13 11
22 20 16 16 15 15 15 15 14 15 14 14 13 13 13 13 13 13 13 13 13 13 13 14 13 13 14 14 14 14 14 13 14 14 14 13 13 13 13 13 13 13 11
21 20 18 15 15 15 15 15 14 15 15 14 14 13 13 13 13 14 14 14 13 13 14 14 13 13 13 13 13 13 13 13 14 14 14 13 13 13 13 13 12 13 13
20 20 18 16 15 14 15 15 14 15 15 14 14 13 13 13 13 13 14 14 13 13 14 13 13 13 13 13 13 13 13 13 13 13 13 13 13 13 13 13 13 13 13
19 19 18 16 15 15 14 14 14 15 13 14 14 14 14 13 13 14 14 14 14 14 13 13 13 13 13 13 12 12 12 12 13 12 12 12 13 12 12 13 13 13 13
18 18 17 16 15 14 14 14 13 14 13 13 14 14 14 14 14 14 14 14 14 13 13 13 13 13 13 13 13 12 12 13 13 13 12 12 12 12 12 12 12 13 13
19 18 17 17 16 15 14 14 14 15 14 14 14 14 15 15 14 14 14 14 13 13 13 13 13 13 13 12 12 12 12 12 13 13 13 13 13 13 12 12 12 12 12
19 18 18 17 16 16 16 14 14 14 14 14 14 14 14 14 14 14 13 13 13 12 11 12 12 12 12 12 12 12 13 13 13 13 12 12 12 12 12 11 11 11 12
20 19 18 18 17 16 16 16 15 14 14 14 14 14 13 13 13 13 12 12 12 11 11 12 12 12 12 12 12 12 12 12 12 12 12 12 11 11 10 10 10 10 11
19 20 19 18 18 17 16 16 15 15 14 13 14 13 13 13 12 12 12 11 11 11 12 11 12 12 12 12 12 12 12 11 11 11 11 10 10 10 10 10 10 10 9
20 20 20 19 18 17 16 16 15 15 14 14 13 13 13 12 12 12 11 11 11 12 12 12 12 12 12 11 10 11 11 11 10 10 10 9 9 9 10 10 10 10 10
20 20 20 20 19 18 17 15 15 14 14 13 13 12 12 12 12 12 11 11 11 12 12 12 12 11 11 10 10 10 10 10 10 9 9 9 9 9 9 9 10 10 10
20 20 20 20 20 19 16 16 15 14 14 13 13 12 12 12 12 11 11 11 12 12 12 11 11 11 10 10 10 10 10 10 9 8 8 9 9 9 9 9 9 9 9
19 20 20 20 20 20 17 16 15 14 14 13 13 12 12 12 12 11 11 11 11 11 11 11 11 10 9 9 10 10 11 10 9 8 8 8 8 8 8 9 8 8 8
19 19 20 20 20 19 17 15 14 13 13 13 13 12 12 12 11 11 11 11 11 11 10 10 9 8 8 9 10 10 10 9 9 8 8 8 8 8 8 7 7 8 8
19 19 19 19 20 19 17 15 14 14 13 13 12 12 12 11 11 11 11 11 10 10 9 9 8 8 8 9 9 10 9 9 8 8 7 7 8 7 7 7 7 7 7
18 19 19 18 19 18 18 17 15 14 13 12 12 11 11 11 11 11 11 10 10 9 8 8 8 7 7 7 6 6 7 7 8 8 8 7 7 7 7 6 6 6 6
18 19 18 18 18 17 18 16 15 13 12 11 10 10 10 11 11 11 10 10 9 8 8 7 7 6 6 5 5 4 4 3 3 7 7 6 6 6 5 5 5 5 5
18 18 17 17 17 17 16 15 15 14 13 12 12 11 11 10 10 10 10 9 8 8 7 6 6 5 5 5 5 4 3 2 1 1 2 3 3 4 4 4 4 4 4
18 17 16 16 16 16 13 14 15 13 13 12 11 11 11 10 10 10 9 8 8 7 6 6 5 5 4 4 4 3 3 3 2 -0 -1 2 2 3 3 2 3 3 2
16 16 15 15 15 12 13 14 14 13 12 11 11 10 10 10 10 9 8 8 7 7 6 5 5 4 4 3 3 2 2 1 0 -1 -3 -2 -3 -2 1 1 1 0 -1

GFSSE_850_temp_006.txt.gz
Temp
20 19 16 15 16 16 15 15 16 15 15 15 15 14 14 15 14 14 14 14 13 13 14 13 13 13 14 14 14 14 14 13 13 13 14 14 15 16 16 15 13 12 12
21 18 16 15 15 15 15 16 15 15 15 14 14 14 14 14 14 14 13 13 13 13 13 13 13 13 14 13 13 13 13 12 13 14 14 14 14 14 15 14 13 12 13
20 17 17 15 15 15 16 16 15 15 15 14 13 13 13 13 13 13 13 13 13 13 13 13 13 13 13 13 13 13 13 13 14 14 14 12 13 14 14 13 12 12 13
20 17 16 15 15 15 15 16 15 15 14 14 13 13 13 13 14 13 13 13 13 13 13 13 13 14 14 14 13 13 14 14 14 14 12 12 12 14 14 13 12 12 13
19 19 16 16 15 15 15 15 15 15 15 14 13 13 13 13 14 14 13 13 13 13 13 13 13 13 13 13 13 11 11 13 14 13 12 13 13 12 14 13 12 12 12
18 18 18 17 15 15 14 14 14 14 14 14 13 13 13 13 13 13 13 13 13 13 13 13 13 13 13 13 13 14 14 15 14 12 13 12 14 13 14 14 13 12 12
16 16 17 16 15 15 15 14 14 14 14 14 13 13 14 14 13 13 13 13 13 13 13 14 14 12 13 14 13 14 14 14 14 13 13 13 13 14 14 14 14 14 14
18 16 16 16 15 15 15 14 14 15 15 14 13 13 14 14 13 14 13 13 13 13 13 14 13 13 13 13 13 13 13 13 12 12 12 12 13 13 14 13 12 13 13
17 16 16 16 15 15 15 14 14 15 15 14 14 13 13 14 13 13 13 13 13 14 14 14 13 13 13 13 13 13 13 13 13 12 13 12 12 13 13 12 12 13 13
17 15 15 15 15 15 14 14 14 15 15 15 14 14 13 14 14 13 13 14 13 14 14 13 13 13 13 13 13 13 13 13 12 13 12 12 13 13 13 13 13 13 13
17 15 15 15 15 15 15 14 14 14 13 14 15 15 15 14 14 14 14 14 14 14 14 13 13 13 13 13 13 13 13 13 13 13 13 13 13 13 13 13 13 13 13
16 18 18 15 15 14 15 14 13 13 13 13 14 15 15 15 14 14 14 14 14 13 13 13 13 13 13 12 12 13 13 13 13 13 12 13 13 13 12 12 12 12 12
17 16 18 17 15 14 14 14 13 13 13 12 14 15 15 15 14 14 13 13 12 13 13 12 12 12 12 12 13 12 13 13 12 11 11 12 12 12 10 10 11 11 11
16 16 18 18 18 16 14 14 14 13 13 12 13 14 15 14 14 13 12 13 12 12 12 12 12 12 12 13 12 12 12 12 12 11 10 11 10 10 10 10 10 10 10
17 17 17 18 18 17 15 14 14 13 13 13 13 14 13 13 12 13 12 12 12 12 11 12 12 12 12 12 12 12 12 11 10 10 8 10 10 9 10 10 10 10 10
18 18 17 18 19 18 17 16 14 13 13 13 13 14 12 12 12 12 12 12 12 11 11 12 12 12 12 12 11 11 11 10 10 10 9 9 9 9 9 9 10 10 10
18 18 18 18 18 18 17 16 14 13 13 13 12 12 12 12 12 12 12 12 11 11 12 12 12 11 11 11 10 10 10 10 9 9 8 8 8 9 9 9 9 9 9
18 19 18 19 18 18 16 15 15 13 13 13 12 13 13 12 12 12 12 11 11 12 12 12 11 11 10 10 10 9 10 10 8 8 8 8 8 8 8 9 9 9 9
18 18 19 19 18 17 14 15 15 14 14 14 13 13 13 12 12 12 11 11 12 11 11 11 10 10 10 10 10 10 10 9 7 7 7 7 8 8 8 8 8 8 8
18 19 19 19 18 17 14 14 15 14 14 14 13 13 12 12 12 11 11 11 11 11 10 10 10 9 9 9 10 9 9 8 8 7 6 7 7 8 7 7 8 7 7
18 19 19 19 19 18 16 16 16 14 14 14 13 12 12 12 12 11 11 11 11 10 10 9 9 8 8 8 8 7 7 8 7 6 7 7 7 7 7 7 6 6 6
17 18 19 19 19 18 17 17 17 15 14 13 13 12 11 11 11 11 11 11 10 10 9 9 8 8 7 7 7 6 7 7 6 6 5 7 6 7 6 6 6 6 6
16 18 18 18 19 17 16 15 15 15 14 12 12 11 10 10 11 11 10 10 10 10 9 8 8 7 6 6 6 5 6 7 4 5 5 6 5 5 6 5 5 5 4
16 17 17 18 18 17 15 16 16 17 14 12 12 11 10 10 10 10 10 10 10 9 8 8 7 6 6 5 4 4 4 3 3 4 4 3 2 2 2 2 3 3 3
16 17 17 17 16 17 16 15 14 14 13 13 11 10 10 10 10 10 10 9 9 8 8 7 6 6 5 4 4 4 3 2 1 1 2 2 1 1 -0 -1 -0 -1 -1
14 16 16 16 16 16 15 13 13 14 14 13 10 10 10 10 10 9 9 9 8 8 7 6 6 5 4 4 3 3 3 1 1 -0 0 0 -0 -0 -1 -1 -1 -2 -2

GFSSE_850_temp_009.txt.gz
Temp
18 19 17 16 15 15 15 16 15 15 15 16 15 15 15 15 14 14 14 14 14 14 14 14 14 14 13 14 14 13 14 13 13 14 14 15 15 15 16 16 12 13 13
19 18 17 16 15 16 15 15 15 15 15 14 14 14 14 14 14 13 13 14 14 14 14 14 14 14 14 13 14 13 13 12 13 14 14 14 13 14 15 14 13 12 12
18 16 17 16 15 16 15 15 15 15 15 14 14 14 14 14 14 14 14 14 14 14 14 14 14 14 13 13 13 13 13 13 14 14 14 13 12 14 14 13 13 12 12
18 17 16 16 15 15 16 15 15 15 15 14 13 13 14 14 14 14 13 13 14 14 14 14 14 14 14 14 14 13 13 14 14 14 13 13 13 13 14 14 13 12 12
18 17 16 16 15 15 16 16 15 15 15 14 14 13 14 13 14 14 13 13 13 14 14 14 13 13 14 13 13 14 12 13 14 13 12 12 14 12 14 14 14 12 12
19 18 17 16 15 15 14 15 15 15 15 14 13 13 14 14 14 13 13 13 13 14 14 14 13 13 14 14 14 14 14 14 14 12 12 12 12 14 14 14 14 14 14
19 18 17 16 15 15 14 14 14 15 15 14 13 13 13 14 13 13 13 13 13 14 14 14 13 13 13 13 13 13 14 14 14 12 12 12 12 14 14 14 14 14 14
19 18 16 16 16 15 15 14 14 15 15 14 13 13 14 14 14 14 14 13 13 13 14 13 13 13 13 13 13 13 14 14 14 13 12 12 13 13 14 13 13 13 13
18 18 17 16 16 16 15 15 14 14 15 14 14 13 14 14 14 14 14 13 13 14 14 13 13 13 13 13 13 14 14 14 14 12 13 12 13 13 14 14 13 13 13
18 18 18 16 15 16 16 15 14 14 15 15 14 14 14 14 13 14 13 13 13 14 14 14 13 13 13 13 13 13 14 13 12 12 12 13 14 13 13 13 13 13 13
18 18 18 18 16 15 16 15 14 14 14 15 15 15 14 13 13 13 14 14 14 14 14 13 13 13 13 13 13 14 14 12 12 12 12 13 13 13 13 13 13 13 13
18 18 18 17 17 15 15 15 14 14 14 15 15 15 13 13 13 13 15 14 14 14 13 13 13 13 13 12 12 13 12 13 13 11 11 12 12 13 12 11 11 12 11
19 18 17 17 16 15 15 15 14 14 13 13 13 13 13 15 15 14 14 14 13 13 12 12 12 13 13 13 13 13 12 13 11 11 10 11 11 10 10 10 11 10 10
19 18 16 16 16 16 15 14 14 14 13 14 13 13 13 12 13 13 13 12 12 12 13 13 12 12 13 13 13 13 12 11 10 10 10 11 10 10 10 10 10 10 10
19 18 17 16 16 15 15 14 14 14 14 14 13 13 13 12 13 13 12 12 12 12 12 12 12 13 12 13 12 11 10 10 9 9 9 10 10 9 9 10 10 10 10
20 18 18 16 15 16 15 15 14 14 15 14 13 13 13 13 12 13 13 12 12 12 12 12 13 12 12 12 11 9 9 9 10 9 8 9 9 9 9 9 9 9 10
20 19 18 17 16 17 16 15 14 15 15 13 13 13 13 13 12 12 12 12 12 12 12 13 12 12 12 12 10 9 9 9 8 8 8 8 8 9 9 9 9 9 9
20 20 19 18 17 15 17 15 14 14 14 13 13 13 12 12 12 12 12 12 12 12 12 12 12 11 11 11 10 9 8 8 7 7 7 7 8 8 8 9 9 9 9
20 20 19 18 17 16 17 14 14 14 14 13 13 13 13 13 13 12 12 12 11 12 12 12 11 11 11 10 10 9 9 8 7 7 6 7 7 8 8 8 8 8 8
20 19 19 17 17 16 15 14 14 13 14 13 13 14 14 13 12 12 12 11 12 12 11 11 11 10 10 10 10 9 8 8 7 6 6 6 6 7 7 7 7 7 7
19 18 18 18 16 16 15 14 14 14 13 13 13 14 13 12 12 12 11 11 11 11 11 10 10 10 10 9 9 9 7 8 7 6 6 6 5 5 5 6 6 6 6
18 18 18 17 16 15 15 16 13 14 13 13 13 13 13 12 12 11 11 11 11 11 10 10 10 9 9 8 8 7 8 8 7 6 6 5 5 5 5 5 6 6 5
17 17 18 17 16 15 17 16 13 13 12 13 13 13 12 12 11 11 11 11 11 10 10 9 9 8 8 7 7 7 6 7 7 6 6 5 4 4 4 4 4 4 4
17 17 17 16 15 15 17 15 13 16 14 13 14 13 12 11 10 11 11 11 10 10 9 9 8 8 7 6 5 6 5 5 3 4 5 4 4 3 3 3 4 4 3
17 17 16 15 14 13 16 14 11 12 12 13 12 12 10 10 10 10 10 10 10 9 9 8 8 7 6 6 5 5 4 3 2 2 2 3 2 2 2 1 0 0 -0
16 17 15 15 14 12 15 12 12 11 13 13 12 11 10 10 9 10 10 10 9 9 8 8 7 7 6 5 5 4 4 3 2 1 1 1 1 1 1 1 0 -0 -0

GFSSE_850_temp_012.txt.gz
Temp
20 20 19 19 17 16 16 16 16 16 16 15 15 15 15 14 14 14 14 14 14 14 14 15 14 14 14 14 14 13 14 13 13 14 14 15 15 15 16 16 12 12 12
21 19 17 18 17 16 16 16 16 16 16 15 15 15 14 14 14 13 14 14 14 14 14 14 14 14 15 15 14 13 13 13 13 14 14 14 13 14 15 14 13 12 11
20 19 17 16 16 16 16 16 15 15 14 14 14 14 14 14 14 14 14 14 14 15 14 14 14 14 13 14 13 13 13 14 14 14 13 13 13 13 14 14 13 12 12
18 19 18 17 16 16 16 16 16 15 14 14 14 13 13 14 14 14 14 14 14 14 14 14 14 15 15 14 14 14 15 15 14 13 13 13 12 13 13 14 14 13 12
18 18 18 16 15 15 16 16 16 15 14 14 13 13 14 14 14 14 13 14 14 14 14 14 14 14 14 15 15 14 15 14 13 13 12 12 13 13 14 14 14 14 14
18 17 17 16 15 14 15 15 15 16 15 14 14 14 14 14 14 14 13 13 14 14 14 14 13 14 14 14 14 14 14 14 14 12 13 12 13 13 13 14 14 14 14
19 18 17 16 15 15 15 15 15 16 15 14 14 14 14 14 14 14 14 14 14 14 14 13 13 13 14 13 14 14 14 14 13 12 12 12 12 12 13 13 13 13 13
19 18 18 16 15 15 15 15 16 16 16 15 14 14 14 14 14 14 14 14 14 14 14 14 14 13 13 13 14 14 14 14 13 12 13 12 12 13 13 12 12 13 13
19 18 17 16 16 15 15 15 15 15 16 15 14 14 14 14 14 14 14 14 14 14 14 14 14 14 14 14 14 14 14 14 14 13 12 12 13 13 14 14 13 13 13
18 18 17 17 16 15 15 15 16 16 15 15 15 15 14 14 14 14 14 14 14 14 14 14 14 14 14 14 14 14 14 14 13 12 13 13 13 13 13 13 13 13 13
18 18 17 17 16 15 15 15 15 15 16 15 15 15 14 13 13 14 14 14 14 14 14 14 14 13 13 14 14 14 13 14 13 12 13 14 13 13 13 12 12 12 12
18 18 18 17 16 15 15 15 15 15 15 16 15 15 14 13 13 14 14 14 14 14 14 13 13 14 13 13 13 13 13 13 13 11 12 12 12 12 10 10 11 10 10
18 18 18 18 17 16 16 15 15 14 15 15 15 14 13 13 13 13 14 14 13 13 14 13 13 13 13 14 14 14 13 12 12 11 11 11 11 10 9 9 9 10 10
19 18 18 17 17 17 16 15 14 13 14 13 13 13 13 14 14 14 12 12 12 12 13 12 13 13 14 14 13 13 12 12 11 10 10 10 11 10 10 10 10 10 10
20 19 18 17 17 16 15 15 14 14 14 14 13 13 13 13 14 12 12 12 12 13 12 13 13 13 13 13 13 12 11 11 10 9 9 10 10 10 10 10 10 10 10
20 19 18 18 16 16 16 15 14 14 14 14 14 13 13 13 13 12 12 12 12 12 12 13 13 13 13 13 12 11 11 10 10 9 9 9 9 9 9 9 9 9 9
20 20 19 18 17 16 15 15 14 14 15 14 14 13 13 13 13 12 13 12 12 12 12 13 13 13 13 12 12 11 10 10 9 9 8 8 9 9 9 9 9 9 9
20 20 19 18 17 17 17 15 14 14 15 15 14 13 13 13 12 12 12 12 12 12 12 13 13 13 12 12 12 11 10 10 9 8 8 7 8 8 8 9 8 8 9
20 20 20 19 18 17 18 15 14 14 15 14 14 13 13 13 13 13 12 12 12 12 12 12 12 12 12 12 11 11 10 9 8 7 7 7 8 8 8 7 8 8 8
20 20 20 19 18 17 18 16 14 14 14 14 14 13 13 13 13 12 13 12 11 12 12 12 12 12 12 11 11 10 9 9 8 7 7 7 6 7 7 7 7 7 7
20 20 20 19 19 17 16 16 15 14 14 13 13 13 13 13 13 13 12 12 12 12 12 11 11 11 11 11 11 9 8 8 8 7 6 7 7 6 6 6 7 6 6
19 19 19 19 18 18 16 16 16 14 14 13 13 13 13 13 13 13 12 12 12 12 11 11 11 11 10 10 10 9 8 7 7 7 7 6 6 5 5 5 6 6 6
18 18 18 18 18 18 16 15 14 14 13 13 12 13 13 12 12 12 12 12 12 11 11 11 10 10 10 9 9 9 8 7 8 7 6 5 5 4 5 5 5 5 4
18 18 18 18 18 17 16 15 16 16 13 12 13 12 12 11 12 12 12 12 11 11 11 10 10 9 9 8 8 7 7 6 6 6 6 6 5 5 4 4 4 4 3
17 17 17 17 17 16 15 15 15 14 13 12 12 12 11 11 11 11 11 11 11 11 10 10 9 9 8 7 7 6 6 5 4 3 3 4 4 4 3 3 2 2 1
17 17 17 17 17 16 15 15 14 12 12 12 11 11 11 11 11 10 10 10 10 10 10 9 8 8 7 7 6 6 5 4 3 2 2 3 2 3 2 2 2 0 -0

GFSSE_850_temp_015.txt.gz
Temp
18 19 19 20 20 18 17 18 17 17 16 15 15 15 15 15 15 15 14 14 14 14 15 15 14 14 15 14 14 15 14 14 14 14 15 15 15 16 16 16 12 12 12
19 19 20 20 19 18 18 18 17 17 16 16 15 15 15 14 14 14 14 14 14 15 15 14 14 14 15 15 15 14 14 14 14 14 14 14 14 14 15 15 13 12 12
20 18 19 18 19 18 18 18 17 16 15 15 15 14 14 14 14 14 14 14 15 14 14 14 14 14 14 14 14 14 14 14 14 13 13 14 14 13 14 14 14 13 13
20 18 19 17 18 18 18 18 17 16 15 14 14 14 14 14 14 14 14 14 14 14 14 15 15 15 15 15 15 15 15 14 13 13 13 13 14 13 14 14 14 14 13
19 18 18 17 18 17 17 17 17 16 15 15 14 14 14 14 14 14 14 14 14 14 14 15 15 15 15 15 15 15 14 14 13 13 13 12 13 13 13 14 14 14 14
19 19 18 18 18 17 17 18 17 16 16 15 14 14 13 14 14 14 14 14 14 14 14 14 14 14 14 14 14 14 14 14 13 12 12 12 13 12 13 13 14 14 13
18 18 17 17 15 17 17 18 18 17 16 15 14 14 14 14 14 14 14 15 15 15 14 14 14 14 14 14 14 14 14 13 13 12 12 12 13 13 13 13 12 13 13
18 17 17 17 15 16 16 18 19 18 16 15 15 15 14 14 14 14 14 15 15 15 15 14 14 14 14 14 14 14 14 13 12 12 12 12 13 13 13 12 12 12 12
18 17 17 17 16 15 15 16 18 18 17 15 15 15 14 14 14 14 14 15 15 15 15 14 14 14 14 14 14 14 13 13 13 13 13 13 12 13 13 14 13 13 13
18 18 18 17 16 15 15 15 17 17 17 17 15 15 15 15 14 14 14 14 14 15 14 14 14 14 14 14 14 14 13 13 13 13 12 13 13 13 13 13 13 13 11
18 18 17 17 16 16 15 15 15 16 17 17 16 14 14 14 14 14 14 14 14 14 14 14 14 14 13 13 13 14 14 13 13 13 13 12 12 12 11 10 11 11 10
18 18 17 17 17 16 15 15 15 15 16 16 16 15 14 13 14 14 14 14 14 14 13 13 13 13 13 13 14 14 14 13 13 13 12 12 11 10 9 9 9 10 10
18 18 17 17 17 17 16 14 15 15 15 16 16 15 14 13 14 14 14 14 14 13 13 13 13 13 13 14 14 14 14 13 13 12 11 11 11 9 9 9 9 9 9
18 18 18 17 17 17 16 15 15 15 15 15 15 15 14 14 13 13 13 13 13 12 13 13 13 13 14 14 14 14 13 12 12 11 10 10 10 10 9 9 9 9 9
19 18 18 18 17 17 16 16 15 14 14 15 15 14 14 13 13 13 12 11 11 12 13 12 12 13 14 14 14 13 13 11 11 10 10 9 9 9 9 9 9 9 9
20 19 18 17 17 17 16 16 15 14 14 14 14 13 13 14 13 13 12 12 12 12 12 12 13 13 14 14 13 12 12 11 10 10 9 9 9 9 9 9 9 9 9
20 20 19 18 17 17 16 16 15 14 14 14 14 13 13 13 13 13 12 12 13 12 12 12 13 13 13 13 13 12 12 11 9 9 9 9 9 9 9 9 9 9 9
20 20 19 19 18 17 17 16 15 14 14 14 14 13 14 13 13 12 12 12 12 12 12 13 13 13 13 13 13 12 11 10 9 8 8 8 8 8 8 9 9 9 9
20 19 20 19 19 18 17 16 16 14 14 14 14 14 14 13 13 13 12 12 12 12 12 13 13 13 13 13 12 12 11 10 9 8 8 7 7 7 8 8 8 8 8
19 19 20 20 19 19 18 17 16 14 15 14 14 14 14 13 13 13 12 12 12 12 12 13 12 12 12 12 12 11 10 9 8 7 7 7 7 7 7 7 7 7 7
19 19 20 19 19 18 18 17 16 14 14 14 14 14 14 13 13 13 13 12 12 12 12 12 12 12 12 12 11 10 9 8 8 7 7 7 7 6 6 6 6 6 6
18 19 19 19 19 18 18 18 17 16 14 14 13 13 13 13 13 12 13 12 12 12 12 12 12 11 11 11 11 10 9 8 8 7 6 6 6 6 5 5 5 5 5
18 18 19 19 19 18 18 17 17 16 15 14 14 13 13 13 13 13 12 12 12 12 12 12 11 11 11 11 10 10 9 9 8 7 6 6 6 5 5 5 5 4 4
17 17 18 18 18 18 18 17 17 17 15 15 14 13 13 12 12 12 12 11 12 12 12 11 11 11 11 10 10 9 9 8 8 7 6 6 5 5 5 4 4 4 3
16 17 17 18 18 17 17 17 17 17 16 16 15 13 13 12 11 11 11 11 11 11 11 11 11 10 10 9 9 8 7 7 6 5 5 6 6 5 5 4 4 3 2
17 17 17 17 17 17 17 17 16 16 16 15 15 13 13 11 11 10 11 11 11 11 10 11 10 10 9 9 8 7 7 6 4 3 3 3 3 4 3 3 3 2 0

GFSSE_850_temp_018.txt.gz
Temp
17 18 18 17 18 18 18 17 17 17 16 15 15 15 15 14 15 15 15 15 15 15 14 14 14 15 14 15 15 14 14 14 14 15 15 16 16 16 16 16 14 13 12
19 18 18 19 19 19 18 18 18 18 17 15 15 15 14 14 15 14 15 15 15 15 15 14 14 14 15 15 15 14 14 14 14 15 15 15 15 15 15 15 14 13 13
19 18 18 19 19 19 19 19 20 19 17 16 15 14 14 14 14 15 15 15 15 15 15 14 14 14 14 14 14 14 14 14 14 14 14 14 14 14 14 14 14 14 13
20 19 18 18 18 18 19 20 20 19 17 14 15 14 14 14 15 15 15 15 15 15 15 14 14 14 14 15 15 15 14 14 13 14 14 14 14 13 14 14 14 14 13
20 20 18 17 18 18 19 20 20 19 18 16 15 14 14 15 15 15 15 15 15 15 15 15 15 15 15 15 14 14 14 13 13 13 14 13 13 13 13 14 14 14 14
19 19 18 17 17 17 18 19 20 19 18 17 15 14 14 15 15 14 14 14 14 14 14 14 14 14 14 14 14 14 13 13 13 13 12 12 12 13 13 13 13 13 13
19 19 18 16 17 17 18 18 19 19 18 16 15 14 14 15 15 14 14 14 14 14 13 14 14 14 14 14 14 14 14 13 13 13 12 12 12 12 13 12 11 13 13
19 18 17 16 16 16 17 18 19 19 18 17 15 15 15 14 14 14 14 14 14 14 14 14 14 14 14 14 14 14 14 13 13 13 12 12 12 12 13 13 12 12 12
18 18 17 17 17 16 16 17 17 18 18 16 16 15 14 14 14 14 14 14 14 14 14 14 14 14 14 14 14 14 14 14 14 13 12 12 12 12 13 13 13 13 12
18 18 18 17 16 16 16 16 16 16 17 16 15 15 14 14 14 14 14 14 14 14 14 14 14 14 14 14 14 14 14 13 13 13 12 12 12 12 12 12 12 11 12
18 19 19 17 17 17 16 15 15 16 16 16 15 14 14 14 14 14 14 14 14 14 14 14 14 13 13 13 13 13 13 14 13 13 12 12 12 11 11 11 11 10 10
18 18 19 18 17 16 16 16 15 16 16 16 15 15 15 15 14 14 14 14 14 14 14 14 13 13 13 13 14 13 13 13 13 12 12 11 11 10 9 10 9 9 9
19 18 18 18 17 16 16 16 16 16 16 16 15 15 15 15 15 14 14 14 14 14 14 13 13 13 13 13 13 13 13 13 12 12 11 11 10 9 8 8 8 8 8
18 18 18 18 17 16 16 16 16 15 15 16 16 16 15 15 15 14 14 14 14 14 14 13 13 13 13 13 13 13 13 13 12 11 10 10 10 9 9 9 9 9 9
18 18 18 18 18 17 16 16 16 15 15 15 15 16 15 15 15 14 13 13 13 13 13 13 13 13 13 13 13 12 12 12 11 10 10 10 9 9 9 9 9 9 9
18 18 18 18 17 17 17 17 16 15 15 15 15 15 15 15 14 13 13 12 13 13 12 12 12 13 13 13 13 12 11 11 10 10 9 9 9 9 9 9 9 9 9
19 19 18 18 18 18 17 17 16 16 15 14 14 14 14 14 14 14 13 12 12 12 12 12 12 13 13 13 13 12 11 10 10 9 9 9 8 8 8 9 8 9 8
19 19 18 18 18 17 17 17 16 16 15 14 14 14 14 13 13 13 13 12 12 12 12 12 12 13 13 13 13 12 11 10 9 9 8 8 8 8 8 8 8 8 8
19 19 19 18 18 18 18 17 17 16 15 14 14 14 13 13 13 13 13 12 12 12 12 12 13 13 13 13 12 11 10 10 9 8 8 8 8 8 7 7 7 7 7
19 19 19 19 18 18 17 17 17 16 15 14 14 14 13 13 13 13 12 12 12 12 12 12 12 12 12 12 12 11 10 9 8 7 7 7 7 7 7 6 7 7 6
18 18 19 19 19 18 17 17 16 16 15 15 14 14 14 13 13 13 12 12 12 12 12 12 12 12 12 12 11 10 9 8 8 7 7 7 7 6 6 6 6 6 6
18 18 18 18 19 19 18 17 17 17 16 15 14 14 14 13 13 12 12 12 12 12 12 12 12 12 12 12 11 10 9 8 8 7 7 6 6 6 6 6 5 5 5
17 18 18 18 17 19 18 18 17 16 16 15 14 14 13 13 13 13 12 12 12 12 12 12 12 12 12 11 11 11 10 10 8 7 6 6 6 6 5 5 4 4 4
17 17 17 17 17 17 18 18 17 16 16 16 15 14 14 13 13 13 13 12 12 12 12 12 12 12 11 11 11 10 10 10 9 8 6 6 6 5 5 5 4 4 4
17 17 17 16 17 17 17 17 17 17 16 16 16 15 15 14 13 13 13 12 12 11 11 11 11 11 11 10 10 10 9 9 8 8 7 6 6 5 5 5 4 3 3
17 17 16 16 16 16 16 17 17 16 16 16 16 15 15 14 13 13 12 11 11 11 11 11 11 10 10 10 9 9 8 8 7 6 5 5 5 6 5 4 3 2 2

GFSSE_850_temp_021.txt.gz
Temp
19 17 16 18 18 18 18 18 17 17 17 16 15 15 15 15 15 15 15 15 15 14 15 14 15 14 14 14 14 14 14 14 15 15 15 15 15 16 16 16 15 14 13
20 17 17 17 17 17 18 17 17 17 16 15 15 15 15 15 15 15 15 15 15 14 12 13 14 14 14 14 14 14 14 14 14 15 15 15 15 15 15 14 14 14 13
20 17 17 18 17 17 18 18 17 17 16 15 15 15 15 15 15 15 15 15 15 14 13 13 14 14 14 14 14 14 14 15 15 15 14 14 14 14 15 14 14 14 13
20 19 18 18 18 18 18 18 18 17 16 15 15 14 14 15 15 15 15 15 15 14 13 13 14 14 14 15 14 14 14 14 14 14 14 14 14 14 13 14 14 14 13
19 20 19 18 18 18 18 18 18 17 15 14 14 14 15 15 16 15 15 15 15 15 14 14 14 15 14 14 14 14 14 14 14 14 14 14 13 13 13 13 13 13 13
19 20 19 18 17 18 18 19 18 18 15 14 14 15 15 16 15 15 15 15 15 14 14 14 14 14 14 14 14 14 13 14 14 14 13 13 13 12 13 13 13 13 13
19 19 19 18 17 17 18 18 18 17 17 16 15 14 15 16 15 15 15 15 15 14 14 14 14 14 13 14 14 14 14 14 13 13 13 13 12 12 13 12 11 13 13
19 18 18 17 17 17 17 18 18 17 17 17 16 15 16 15 15 15 15 15 14 14 14 13 13 13 14 14 14 14 14 14 13 13 12 12 12 12 13 13 12 12 11
18 19 17 17 17 17 17 18 18 17 16 17 16 15 15 15 15 15 15 15 14 14 13 13 13 14 14 14 14 14 14 14 13 13 13 13 12 12 13 13 13 13 12
17 18 18 18 17 17 17 18 18 17 16 16 16 15 15 14 14 14 15 14 14 13 14 14 14 13 13 14 14 14 14 14 13 13 13 12 12 12 12 12 12 12 11
17 17 18 17 17 18 17 17 17 17 16 15 15 15 15 15 14 14 14 14 14 14 14 14 13 13 13 13 13 14 14 13 13 12 12 12 11 11 11 11 11 11 11
18 18 18 17 16 16 17 16 17 16 16 15 15 15 15 15 14 14 14 13 13 14 14 14 14 13 13 13 13 14 13 13 13 12 11 11 10 10 9 10 9 9 9
20 18 18 18 17 16 16 17 16 17 16 16 15 15 15 14 14 14 13 13 13 14 13 13 13 13 13 13 13 13 13 13 12 12 11 11 9 9 8 8 8 8 8
20 20 19 18 18 17 16 16 17 16 16 16 16 15 14 14 14 14 14 13 13 13 13 13 13 13 13 13 13 13 13 12 12 11 10 10 9 8 8 9 9 9 8
19 19 18 18 18 17 17 16 16 16 16 16 16 15 14 14 14 14 13 13 13 13 13 13 13 13 13 13 13 13 13 12 11 10 10 10 9 9 9 9 9 9 9
18 18 18 18 18 17 17 17 16 16 15 15 16 16 15 15 14 13 13 13 13 13 13 13 13 12 13 13 13 13 12 11 11 10 9 9 9 9 9 9 9 9 9
18 18 17 17 18 17 17 17 16 16 15 16 16 15 15 15 14 13 13 13 13 12 12 12 12 12 13 13 12 12 12 11 10 10 9 9 9 8 9 8 8 8 8
18 18 18 17 17 17 17 17 17 16 16 15 15 15 15 14 14 13 13 12 12 12 12 12 12 12 13 13 12 12 11 11 10 9 9 9 8 8 8 8 8 8 8
19 19 18 18 17 17 17 17 17 17 16 16 15 15 14 14 13 13 13 12 12 12 11 12 12 12 12 12 12 11 11 10 9 9 8 8 8 8 8 8 7 7 7
18 18 18 18 18 18 17 17 16 16 16 15 15 15 14 14 13 13 13 12 12 12 12 12 12 12 12 12 12 11 10 10 8 8 8 7 7 7 7 7 7 7 7
17 18 18 18 18 18 17 16 16 16 16 15 15 15 14 14 13 13 13 12 12 12 12 12 11 12 12 12 11 10 9 9 8 8 7 7 7 7 7 7 6 6 7
17 17 18 18 18 18 18 17 17 16 16 16 16 16 15 14 13 13 13 12 12 12 12 12 12 12 12 12 12 10 9 8 8 7 7 6 6 6 6 6 6 6 6
17 17 17 17 17 17 18 17 17 17 16 16 16 15 15 14 13 13 13 12 12 12 12 12 12 12 12 12 11 11 10 10 8 8 7 6 6 6 5 5 5 5 5
17 17 17 17 17 17 17 17 17 17 17 16 16 15 15 15 14 13 13 13 13 12 12 12 11 12 12 12 11 11 11 10 9 8 7 6 6 5 5 5 5 4 4
16 16 17 17 16 16 16 17 16 16 17 16 16 15 15 15 15 14 13 13 12 12 11 12 12 11 11 11 11 11 10 10 9 9 8 7 6 5 5 5 5 4 4
17 17 17 17 16 16 16 16 16 16 16 16 16 16 15 15 15 15 14 13 13 12 11 11 11 11 11 11 10 9 9 9 9 8 7 6 6 6 5 5 4 3 3

GFSSE_850_temp_024.txt.gz
Temp
20 18 16 15 17 16 17 17 16 16 16 16 15 15 15 15 15 15 15 15 14 14 15 15 15 14 14 14 14 14 15 15 15 15 15 15 15 16 16 15 15 14 13
21 18 17 17 17 16 17 17 17 16 15 15 15 15 15 15 15 14 15 15 15 14 13 14 14 14 14 14 14 14 14 15 14 15 15 15 15 15 15 15 14 14 13
20 20 18 19 18 17 17 17 15 14 14 15 15 15 14 15 15 15 15 15 15 12 14 13 14 14 14 14 14 14 14 15 14 15 15 15 15 15 14 14 14 14 13
20 20 18 19 19 19 18 17 16 14 14 14 14 14 15 15 16 16 15 15 14 12 12 13 14 14 14 14 15 15 15 14 14 14 14 14 14 14 14 14 14 14 14
19 20 18 19 19 19 18 18 17 14 14 14 14 15 15 16 16 16 16 15 15 14 13 13 14 14 14 14 14 14 14 14 14 14 13 13 13 13 13 13 13 13 13
19 19 19 19 19 19 19 19 18 16 14 14 14 14 15 16 16 16 15 15 15 15 15 14 14 14 14 14 14 14 14 13 13 13 13 13 13 12 13 13 13 13 13
19 18 18 18 18 18 18 19 18 14 14 14 14 15 16 16 16 16 16 15 15 14 14 14 14 14 14 14 14 14 13 13 13 13 13 13 13 13 13 13 12 12 12
19 18 18 18 18 18 19 19 18 17 14 14 15 15 16 16 16 15 15 15 15 14 14 13 13 14 14 14 14 14 13 13 13 12 12 12 12 12 13 13 13 12 12
18 18 18 18 18 17 18 18 18 17 16 14 14 15 16 15 15 15 15 15 14 13 13 13 13 13 13 14 14 14 13 13 13 13 12 12 12 12 13 13 13 13 12
18 18 18 19 19 19 18 18 19 18 17 15 14 14 15 15 14 15 15 15 14 13 12 13 13 13 13 13 13 13 13 13 13 13 13 12 12 12 12 12 12 11 11
17 17 18 18 19 18 18 18 19 18 17 16 14 13 14 14 13 14 14 14 14 13 13 13 13 13 13 13 13 13 13 13 13 13 12 12 11 11 11 11 11 11 10
18 17 17 18 18 18 18 18 18 18 17 16 15 15 14 14 14 14 13 14 13 14 13 14 13 13 13 13 13 14 13 13 13 12 12 11 10 10 10 10 10 9 9
18 18 18 17 17 17 17 17 17 17 17 17 16 15 14 14 14 13 13 13 13 13 14 13 13 13 13 13 13 14 13 13 13 12 11 11 9 9 8 8 8 8 8
19 19 18 17 17 16 16 17 16 17 17 17 17 16 15 14 14 14 13 13 13 13 13 13 13 13 13 13 13 13 13 13 12 12 11 10 10 9 9 9 9 9 9
18 19 19 18 17 17 16 16 16 16 16 16 17 16 16 15 14 14 13 13 13 13 13 13 13 13 12 13 13 13 13 12 12 11 10 10 9 9 9 9 9 9 9
18 19 18 18 18 17 17 16 16 17 16 16 16 16 16 15 15 14 13 13 13 13 13 12 12 12 12 13 13 12 12 12 11 11 10 9 9 9 9 9 9 9 8
18 18 18 18 17 17 17 17 16 16 16 16 15 15 15 15 15 14 13 13 13 13 12 12 12 12 12 12 13 12 12 11 11 10 9 9 9 8 8 9 8 8 8
17 17 17 17 17 17 17 17 17 17 16 16 16 15 14 14 14 14 13 12 13 13 12 12 12 12 12 12 12 12 12 11 10 10 9 9 8 8 8 8 8 8 8
18 18 17 17 17 17 17 17 17 17 16 16 16 15 14 14 14 14 13 13 12 12 12 12 12 11 12 12 12 12 11 11 10 9 9 8 8 8 8 8 8 8 8
17 18 17 17 17 18 18 17 16 16 16 16 16 15 14 14 14 13 13 12 12 12 12 12 11 11 11 12 12 11 11 10 10 9 8 8 8 8 7 8 7 7 7
17 17 17 18 17 17 18 18 17 16 16 16 16 15 15 14 14 13 13 12 12 12 12 11 11 11 11 12 11 11 10 10 9 8 8 8 7 7 7 7 7 7 7
17 17 16 17 17 17 17 18 17 17 17 17 16 16 16 15 14 14 13 12 12 12 12 12 11 11 11 11 12 11 10 9 9 8 8 8 7 7 7 7 7 7 6
17 17 17 17 17 17 16 17 17 16 16 16 16 16 16 15 14 13 14 13 13 12 12 12 12 12 12 12 11 11 10 11 9 8 8 8 7 7 7 6 6 6 6
16 15 17 17 16 16 16 16 16 16 16 17 17 17 16 16 15 14 14 14 13 12 12 12 12 11 11 12 11 11 11 11 10 9 8 8 8 7 6 6 5 5 5
16 16 16 16 16 16 16 16 16 16 16 15 16 16 16 16 15 15 14 14 13 13 13 12 12 11 12 12 11 12 11 10 10 10 9 9 8 7 6 5 5 5 4
15 15 16 16 17 16 16 16 16 16 16 16 16 16 16 16 15 15 14 14 14 13 13 13 12 11 11 11 11 11 11 11 10 9 9 9 8 7 6 5 5 4 4

GFSSE_850_temp_027.txt.gz
Temp
20 18 15 16 15 15 15 16 16 16 16 16 16 15 15 15 15 15 15 15 15 15 15 15 13 13 13 14 14 14 15 15 15 15 16 15 15 16 16 16 15 14 13
21 19 16 16 16 15 16 16 16 16 16 15 15 15 14 15 15 15 15 15 15 14 14 14 14 14 14 14 14 14 14 15 15 15 15 15 15 16 15 15 14 14 12
20 20 16 16 15 16 16 17 15 15 15 15 15 15 15 15 15 15 15 15 15 14 14 14 14 14 14 14 14 14 14 14 14 14 15 15 15 15 15 14 14 14 13
20 20 19 19 19 18 18 17 15 14 14 15 15 15 15 15 15 16 16 15 13 14 14 15 14 14 14 15 15 15 14 14 14 14 14 14 14 14 14 14 14 13 13
20 20 20 20 19 18 18 17 15 14 14 14 14 15 15 16 16 16 16 15 15 14 14 14 14 15 15 15 15 14 14 14 14 14 14 14 14 13 13 13 13 13 13
19 19 20 20 19 19 19 18 17 14 14 14 14 15 16 16 16 16 16 15 15 14 14 14 14 14 14 14 14 14 14 14 14 14 13 13 13 13 13 13 13 13 13
19 19 19 19 19 19 19 18 17 15 14 14 14 15 16 15 15 15 15 15 15 15 14 14 14 14 14 14 14 14 14 14 14 13 13 13 13 13 13 13 12 12 13
19 18 19 18 18 19 19 19 18 15 14 14 14 15 16 15 15 15 15 14 14 14 14 13 13 14 14 14 14 14 14 13 13 13 13 13 13 13 13 13 13 12 12
17 17 18 18 18 18 19 19 19 16 14 14 14 15 16 15 15 15 14 14 13 13 13 13 13 14 14 14 14 14 14 14 13 13 13 13 13 13 13 13 13 12 12
17 17 17 18 18 18 19 19 19 18 16 14 13 14 15 15 15 15 14 14 13 13 13 13 13 14 14 14 13 14 13 13 13 13 13 12 12 12 12 12 12 11 11
17 17 17 17 18 18 18 18 19 18 18 17 14 13 14 14 14 14 14 14 13 12 13 13 13 13 13 13 13 13 13 13 13 13 12 12 11 11 11 11 11 10 10
18 17 17 17 17 18 18 18 18 18 17 17 17 14 14 14 14 14 14 14 14 14 14 14 13 13 13 13 13 13 13 13 13 13 12 11 11 10 10 10 10 10 10
19 18 18 17 17 17 17 17 17 18 18 17 17 16 15 14 14 13 13 13 13 14 14 14 13 13 13 13 13 13 13 13 13 12 12 11 10 9 10 9 9 9 9
18 18 17 17 17 17 16 16 17 17 17 17 17 16 16 15 14 14 13 13 13 14 14 14 13 13 13 13 13 13 13 13 13 12 11 11 10 10 10 10 9 9 10
18 18 18 17 17 17 16 17 16 16 16 16 16 16 15 15 15 15 14 14 13 13 13 13 13 13 13 13 13 13 13 13 12 12 11 10 10 10 10 10 9 9 10
17 18 17 17 17 17 17 17 17 17 16 16 16 16 15 15 15 14 14 14 13 13 13 13 13 13 13 12 13 13 13 12 12 11 11 10 10 9 9 9 9 9 9
18 18 17 17 17 17 17 17 17 17 17 16 16 15 15 15 15 14 14 13 13 13 13 13 13 12 12 12 13 13 12 12 11 11 10 9 9 9 9 9 9 9 9
18 18 18 18 17 17 17 17 17 17 17 17 16 16 15 14 14 14 14 13 13 13 13 12 12 12 12 12 12 12 12 11 11 11 10 9 9 9 9 9 9 9 9
18 18 18 18 17 17 17 17 17 17 17 17 16 16 15 15 14 14 14 13 13 13 12 12 12 12 12 12 12 12 12 11 10 10 10 9 9 9 9 9 9 8 8
17 17 17 17 18 17 17 17 17 16 17 16 16 16 16 16 15 14 13 13 13 12 12 11 11 11 11 11 12 12 11 11 10 9 9 9 9 9 9 8 8 8 8
16 16 16 17 17 17 17 17 17 17 17 17 17 16 16 16 15 14 14 13 13 12 12 11 11 11 11 11 11 11 11 10 10 9 9 9 9 8 8 8 8 8 7
16 16 16 16 17 17 17 17 17 17 17 18 17 17 16 16 16 15 14 13 13 12 12 11 11 11 11 11 11 11 10 9 9 9 9 8 8 8 8 8 8 7 7
15 16 16 16 16 16 16 16 16 16 16 17 17 17 17 16 16 16 15 15 13 12 12 12 12 12 11 11 11 11 10 11 10 9 9 9 9 9 8 8 7 7 7
15 15 15 15 16 16 16 16 16 16 16 16 17 17 17 16 16 16 15 15 15 13 13 12 12 12 12 11 11 11 11 12 11 10 9 9 9 8 8 7 7 7 6
14 15 15 15 15 15 15 16 16 16 16 16 16 16 16 16 16 15 15 15 15 14 13 12 13 13 12 12 11 12 11 11 11 11 11 10 9 8 8 7 6 6 6
13 13 14 15 15 15 15 15 15 16 16 16 16 16 16 16 16 15 15 15 15 14 14 13 12 12 12 12 11 11 12 12 11 10 10 10 9 9 8 7 6 6 5

GFSSE_850_temp_030.txt.gz
Temp
19 18 16 15 15 15 16 17 17 16 16 16 16 15 15 15 15 15 15 15 15 15 15 14 13 13 14 14 14 15 15 15 15 15 16 16 16 16 15 15 14 12 14
19 16 15 15 16 15 16 16 16 16 16 16 16 15 14 15 15 15 15 15 15 15 14 14 14 14 14 14 14 14 15 15 15 15 15 15 16 15 15 15 14 14 12
17 16 16 15 15 15 15 16 16 16 16 16 15 15 15 15 14 15 15 15 14 14 14 14 14 14 14 14 15 15 15 15 15 15 15 13 15 15 15 15 14 14 12
16 16 15 16 15 15 16 15 14 15 15 15 15 15 15 15 15 15 15 15 14 14 14 14 14 15 15 15 15 15 15 15 15 15 13 12 12 14 14 14 14 14 13
16 16 16 18 17 18 17 17 15 15 15 15 15 15 15 16 16 16 15 14 14 14 14 14 15 15 15 15 14 14 14 14 14 13 13 12 12 13 14 14 13 13 13
16 16 19 20 18 18 17 15 14 15 14 14 15 15 16 16 16 16 16 15 14 14 14 15 15 15 15 14 14 14 14 14 14 12 12 14 12 14 13 13 13 13 13
16 15 17 19 18 17 18 17 14 14 14 14 15 16 16 16 16 16 16 15 15 15 15 15 15 14 14 14 14 14 14 14 12 12 12 12 13 14 14 13 13 13 13
15 15 14 17 17 17 17 17 15 14 14 14 14 16 16 16 16 16 15 15 15 14 14 14 14 14 14 14 14 14 14 14 13 13 13 13 14 13 13 13 13 12 12
15 15 15 15 17 17 17 17 16 14 14 13 14 15 16 16 16 15 15 14 13 14 13 13 14 14 14 14 14 14 14 14 12 13 13 12 13 13 12 12 12 12 11
15 15 15 14 17 17 16 16 15 14 14 14 14 14 15 15 15 15 15 14 14 13 13 13 14 14 14 14 14 14 14 14 13 13 12 11 12 12 12 12 12 11 11
17 16 15 15 15 14 14 16 15 15 14 13 13 15 15 13 14 14 14 14 13 14 14 14 14 14 14 14 14 14 14 13 13 11 11 11 11 12 12 11 11 10 10
17 17 17 16 14 14 14 14 16 15 15 13 13 13 13 12 12 12 14 14 14 13 14 14 14 14 14 14 14 14 14 14 13 11 11 11 11 11 11 11 11 11 10
17 18 18 17 15 15 14 14 13 13 13 13 13 13 13 13 13 13 12 14 13 13 14 14 14 14 14 13 13 14 14 13 11 10 10 10 10 10 10 10 10 9 10
17 17 17 17 17 17 16 16 14 14 14 13 13 13 13 13 13 13 13 12 12 13 13 13 13 13 13 13 13 13 14 13 11 10 10 11 10 10 10 10 10 10 9
18 18 18 17 17 17 17 16 16 16 16 16 13 13 13 13 12 12 13 13 13 12 13 13 13 13 13 13 13 13 13 13 12 10 9 10 10 10 10 10 10 10 10
16 16 17 17 17 17 17 16 17 17 16 16 15 14 13 13 13 12 12 14 12 12 13 13 13 13 13 13 13 13 13 13 12 11 9 10 10 10 10 10 9 10 10
17 16 15 17 17 17 17 17 17 16 16 17 16 15 15 14 13 12 12 14 13 12 13 13 13 13 13 12 12 12 12 12 12 11 10 8 10 9 10 9 10 9 9
16 17 16 17 17 17 17 17 17 17 17 17 17 16 15 15 15 13 12 14 13 13 13 13 13 13 12 12 12 12 12 12 11 11 10 10 9 9 9 9 9 9 9
16 16 17 17 18 18 18 17 17 17 17 17 16 17 16 16 15 15 12 12 12 13 13 12 13 12 12 12 12 12 12 11 11 11 10 10 10 9 9 9 9 9 9
17 17 17 17 18 18 17 17 17 17 17 17 17 17 16 16 16 16 14 13 11 13 13 12 12 12 12 11 11 11 11 11 10 10 9 10 10 9 9 9 9 9 8
16 16 16 17 17 17 15 17 17 17 17 17 17 17 17 16 16 16 15 13 13 13 13 12 12 12 11 11 11 11 11 11 10 10 9 9 10 9 9 9 8 8 8
16 16 16 16 16 16 17 15 16 17 17 17 17 17 17 17 17 16 16 15 14 13 13 12 12 12 11 11 11 9 8 9 10 10 9 9 9 9 9 8 8 8 8
14 15 16 16 16 16 16 16 14 13 13 15 17 17 18 17 17 16 16 16 15 14 14 13 12 12 11 11 11 11 9 10 8 9 10 9 9 9 9 9 8 8 7
13 14 15 15 16 16 16 15 13 13 14 16 17 17 17 17 17 15 16 16 15 15 14 14 13 12 12 12 11 11 11 12 10 9 9 9 9 9 9 8 8 7 7
13 14 14 15 15 15 15 15 14 12 12 12 12 14 16 16 17 16 16 16 15 15 15 13 12 12 12 12 12 12 11 11 11 11 9 10 9 9 8 8 8 8 7
13 13 13 14 14 14 14 14 15 14 13 12 12 12 13 15 15 14 15 15 15 15 15 15 13 12 12 12 12 12 12 12 11 11 10 10 10 10 9 8 7 7 7

GFSSE_850_temp_033.txt.gz
Temp
18 21 18 16 17 17 17 17 17 17 17 16 16 16 15 15 15 15 15 15 15 15 14 14 14 14 15 15 15 16 15 15 15 15 16 16 16 16 16 16 13 13 14
18 19 18 16 16 17 17 17 17 17 17 17 16 15 15 15 15 15 15 15 16 15 14 14 15 15 15 15 15 15 15 15 15 15 15 15 16 16 16 15 15 15 14
18 17 19 16 16 16 16 16 16 16 16 16 15 15 15 15 15 15 15 15 15 15 14 14 14 15 15 15 15 15 15 16 15 15 14 13 15 15 15 15 14 14 14
18 16 16 16 15 15 16 16 16 16 15 15 15 15 16 15 15 15 15 14 14 14 15 15 15 15 15 15 15 15 15 15 15 14 14 14 13 14 14 14 14 14 14
18 17 16 19 15 15 15 15 15 15 16 15 15 16 16 16 16 15 15 14 14 14 14 14 15 15 15 15 15 14 14 14 14 13 13 13 13 14 14 14 14 14 14
18 18 17 17 16 15 14 14 14 15 15 14 15 16 16 16 16 16 16 15 15 15 15 15 16 15 15 14 14 14 14 14 13 13 12 13 12 14 14 13 13 13 13
18 17 17 17 16 16 15 14 14 15 14 14 15 16 17 17 17 16 16 15 15 15 15 15 15 15 15 15 14 14 14 14 12 12 12 12 14 14 14 13 13 13 12
18 16 15 17 18 17 15 14 14 14 14 14 15 16 16 17 17 16 16 15 15 15 15 15 15 15 15 15 15 15 14 14 13 12 12 12 14 14 14 14 13 12 12
18 17 15 17 18 17 16 16 14 14 14 14 15 15 16 16 16 16 16 15 15 15 14 14 14 15 15 15 15 15 15 14 12 13 13 12 14 13 13 13 12 12 12
17 17 16 15 17 17 17 16 14 14 14 14 14 15 16 15 15 15 15 15 15 14 14 14 14 14 15 15 15 15 15 14 13 13 12 13 13 12 13 12 12 11 11
17 16 17 16 15 15 14 16 15 14 14 13 13 14 15 16 15 15 14 14 14 14 14 14 14 14 14 14 14 15 14 13 12 12 12 12 12 12 12 12 11 11 10
16 16 16 17 16 15 15 15 14 13 14 14 13 14 14 13 14 14 14 14 13 13 14 14 14 14 14 14 14 14 13 13 12 12 11 12 11 11 12 11 11 11 11
16 16 15 16 16 15 15 15 14 14 13 14 14 13 13 14 13 12 13 14 14 14 14 14 14 14 13 13 13 13 13 13 12 11 11 11 10 11 11 11 11 10 10
16 16 16 16 15 15 15 15 15 15 14 14 14 14 14 14 13 13 12 12 12 12 12 13 14 13 14 13 13 13 13 12 11 11 11 11 10 10 11 10 11 10 10
15 18 17 17 16 15 15 15 15 15 14 14 14 14 15 14 14 13 13 13 13 12 12 12 13 13 14 13 13 13 13 12 11 11 10 11 11 10 10 10 10 11 11
17 15 18 17 17 17 15 15 15 15 15 14 14 14 14 14 14 13 13 13 13 13 12 12 13 13 13 13 13 13 13 12 11 10 9 11 10 10 10 10 10 10 10
19 18 17 16 17 17 17 16 15 14 15 15 14 14 14 14 14 13 13 13 13 13 12 12 12 12 12 13 13 13 13 12 12 10 9 9 11 10 10 10 10 10 10
18 18 18 17 15 16 16 15 15 15 14 14 15 14 14 13 13 13 13 13 12 12 12 12 11 12 13 12 12 13 13 12 11 10 9 8 9 10 10 10 10 10 10
18 18 18 17 17 16 15 15 17 16 15 14 14 14 14 13 13 13 13 13 13 12 12 11 12 12 12 12 12 12 12 12 11 10 10 9 8 8 9 10 10 10 10
17 17 17 17 17 16 16 15 16 17 17 15 15 15 14 14 13 13 13 13 13 12 12 11 12 12 12 12 12 11 11 11 10 10 9 9 8 9 8 10 10 9 9
15 15 16 16 16 16 16 16 16 17 18 18 17 15 14 14 13 13 13 13 12 12 12 12 12 13 12 11 11 11 10 11 10 10 9 8 9 10 9 10 10 9 9
15 15 15 15 15 15 16 16 16 15 17 18 18 17 17 15 15 13 14 15 14 13 12 12 12 12 12 12 12 10 9 9 10 10 9 8 8 9 10 10 9 9 9
13 14 15 14 14 14 15 14 15 15 14 14 15 16 17 17 15 13 14 13 13 12 12 13 12 12 13 12 11 11 10 10 10 10 9 9 8 8 10 10 9 9 9
13 14 14 14 14 15 15 15 15 14 14 13 13 13 14 15 16 15 14 13 14 13 13 14 13 13 12 12 11 11 11 11 11 9 9 8 9 8 9 9 9 9 8
12 13 13 14 13 13 15 15 14 13 14 13 13 13 13 13 14 15 12 13 13 13 14 14 12 13 12 12 12 12 11 11 11 11 10 10 9 9 9 8 9 8 8
11 13 13 13 13 13 13 14 13 13 13 13 13 13 13 12 12 12 12 12 12 12 12 14 13 12 12 12 11 11 12 12 11 11 11 10 11 10 9 8 8 7 7

GFSSE_850_temp_036.txt.gz
Temp
20 22 22 21 19 18 17 17 17 17 17 16 16 16 15 15 15 15 15 15 15 15 15 15 15 15 15 15 15 15 15 16 16 16 16 16 16 16 15 14 15 15 14
21 22 22 20 19 18 17 17 17 17 17 16 16 15 15 15 15 15 15 16 15 15 14 15 15 15 15 15 15 15 15 15 15 15 15 15 16 15 15 15 15 15 14
20 20 20 17 18 17 17 17 17 16 17 16 15 15 15 15 15 15 16 15 15 15 15 15 15 15 15 15 15 15 15 15 14 14 13 13 14 15 15 15 14 14 14
18 19 18 15 16 16 16 16 16 15 15 15 15 15 16 16 16 16 15 15 15 15 15 15 15 15 15 15 15 15 15 14 13 13 13 13 13 14 14 14 14 14 15
17 17 18 15 15 15 16 16 15 15 15 15 15 16 16 16 16 16 14 15 15 15 14 14 15 15 15 15 15 15 14 14 13 13 13 12 13 14 14 14 14 14 14
18 17 18 17 16 14 16 15 15 15 15 14 15 16 16 17 17 16 16 15 15 15 15 15 15 15 15 15 15 15 14 13 13 12 13 14 14 15 14 13 13 13 13
18 17 17 19 16 18 17 15 15 15 15 14 15 16 17 17 17 16 16 15 15 15 16 15 15 15 15 15 15 15 15 13 12 12 13 14 14 14 14 13 13 13 13
18 17 18 19 18 18 19 14 14 15 14 14 15 16 16 17 17 17 16 16 15 16 15 15 15 15 15 15 15 15 14 13 12 13 13 14 14 14 14 13 12 12 12
18 17 18 19 19 18 17 15 14 14 14 14 15 16 16 16 16 16 16 16 16 16 15 15 15 15 15 15 15 15 14 13 13 14 12 14 14 13 13 12 12 12 12
17 17 17 18 18 18 18 17 14 14 14 13 14 15 16 16 16 16 15 15 15 15 15 15 15 15 15 15 15 15 14 14 14 14 14 14 13 13 12 12 12 11 10
17 17 16 16 17 17 18 17 16 14 14 13 13 14 16 16 16 16 15 14 15 14 15 15 15 15 15 15 15 15 14 14 13 12 12 13 12 12 12 11 11 11 11
17 17 17 16 16 15 15 17 16 15 14 14 13 15 15 16 15 15 15 15 15 14 15 15 15 15 15 15 15 15 15 14 13 12 12 12 12 11 11 12 11 11 11
17 17 17 17 16 16 15 15 16 15 14 14 14 16 16 15 13 14 14 14 15 14 15 15 15 15 14 15 15 15 15 14 12 12 12 12 11 11 12 11 11 11 11
15 16 16 16 16 16 15 15 16 15 15 15 14 14 15 14 13 14 14 14 15 15 14 15 15 14 14 14 14 14 14 14 12 12 12 12 12 11 11 11 11 11 11
16 16 16 16 16 15 15 15 15 15 15 15 14 14 14 15 14 14 14 13 13 13 13 13 14 13 14 14 14 13 14 13 12 12 12 12 12 11 11 11 11 11 11
16 16 18 18 17 16 15 15 15 15 15 15 15 15 14 14 14 14 14 14 14 13 13 12 13 13 13 13 14 13 13 13 12 12 11 12 12 12 11 11 11 11 11
18 18 18 18 18 17 16 15 15 15 15 15 15 15 15 15 14 14 14 14 14 14 13 12 12 13 12 13 13 13 13 13 12 11 12 12 12 12 11 10 10 11 11
19 18 17 17 17 17 17 16 15 15 15 15 15 14 14 14 14 14 14 14 13 13 13 12 12 12 12 13 13 13 13 13 13 12 11 12 12 12 12 11 11 10 10
18 18 18 18 17 16 17 16 16 15 15 15 15 15 15 14 14 14 14 13 14 13 13 12 12 12 12 12 12 13 12 12 12 11 11 11 12 12 11 11 11 11 10
18 18 18 18 17 17 16 15 15 16 16 16 15 14 15 15 15 15 15 13 13 13 13 12 12 11 12 12 12 11 12 12 12 11 11 11 10 11 11 11 11 11 10
17 17 17 17 17 17 17 16 16 15 17 17 17 16 14 14 14 15 16 16 13 14 14 12 11 11 12 11 11 10 11 11 11 11 10 10 10 10 10 11 11 10 10
16 16 16 16 16 16 16 16 16 16 16 16 17 17 16 15 14 14 14 15 15 13 13 13 12 11 11 11 11 11 10 10 11 11 10 10 10 10 10 11 10 10 10
13 14 15 15 15 15 15 15 15 15 15 14 14 16 17 16 15 14 14 13 13 14 12 13 12 12 12 11 11 12 10 10 11 11 11 10 9 10 10 9 10 9 10
12 13 13 14 14 14 14 14 14 14 15 15 14 14 14 14 15 15 14 14 13 13 13 12 14 14 12 12 11 11 11 12 11 11 10 10 9 8 9 9 9 9 8
12 13 13 13 13 12 13 14 14 14 14 14 13 13 13 13 13 13 13 14 13 13 12 12 12 13 14 13 12 11 11 10 11 11 12 11 9 9 8 8 8 8 8
12 12 13 13 13 12 12 12 12 13 14 13 13 13 13 13 13 13 12 12 11 12 12 12 12 11 11 11 11 10 11 11 10 10 10 11 11 10 9 7 7 6 6

GFSSE_850_temp_039.txt.gz
Temp
19 20 21 19 17 18 17 17 17 17 17 16 16 16 15 15 15 15 15 16 15 15 16 15 15 15 15 15 15 15 15 16 16 16 16 16 16 16 15 15 14 15 15
20 20 21 19 18 18 18 18 17 17 17 16 16 15 15 15 15 15 16 15 15 15 16 16 16 15 15 15 15 15 15 15 15 15 15 15 16 15 15 14 15 15 15
20 20 20 19 19 18 18 17 17 17 16 16 15 15 15 15 15 16 16 15 15 15 15 15 15 15 15 15 15 15 15 14 14 13 14 13 15 15 15 15 14 14 14
20 19 20 19 18 17 18 17 16 16 16 15 15 15 16 16 16 15 15 15 15 15 15 15 16 16 16 16 15 15 14 14 13 12 13 13 14 14 14 14 14 14 14
19 19 19 17 17 17 17 16 16 15 15 15 15 16 17 17 16 15 15 15 15 15 14 15 16 16 15 15 15 15 14 14 13 13 13 13 14 14 14 14 14 14 14
19 18 18 16 15 17 16 15 15 15 14 15 15 17 17 17 17 16 15 15 15 15 15 16 16 15 15 15 15 14 13 13 12 13 13 14 14 14 13 14 14 13 13
18 18 18 16 15 17 16 15 15 15 14 15 16 17 17 17 17 17 16 15 15 16 16 16 15 15 15 15 15 14 14 13 13 13 14 14 14 14 14 13 13 13 12
18 17 17 17 17 16 16 14 15 15 14 14 15 17 17 17 17 17 16 16 16 16 16 16 16 16 16 15 15 15 14 13 13 14 14 14 14 14 14 13 12 13 13
18 18 18 18 19 18 16 14 14 15 14 14 15 16 17 17 17 16 16 16 16 16 16 16 16 16 16 16 15 15 15 15 14 14 14 14 13 13 12 12 12 12 12
18 17 18 19 19 19 18 16 14 14 14 14 15 16 17 17 17 17 17 16 16 15 15 15 16 16 16 16 15 15 15 15 14 15 14 14 13 13 12 12 11 11 12
17 17 17 18 18 18 18 18 18 14 14 15 16 16 17 17 17 16 17 16 16 16 15 16 15 15 15 15 15 15 15 15 15 15 14 13 13 12 12 11 10 11 12
16 16 16 17 17 18 18 18 18 17 16 16 17 16 17 17 16 16 16 16 16 16 15 15 16 15 15 15 15 15 15 15 14 14 14 13 12 11 11 10 11 11 12
17 16 16 16 16 18 18 17 17 17 17 16 16 17 16 16 16 16 16 16 16 15 15 15 15 15 15 15 15 15 15 15 14 14 13 13 13 13 12 12 12 12 12
17 16 16 16 16 16 16 16 16 17 17 16 16 16 15 16 16 15 15 15 15 15 15 15 15 15 15 15 15 15 15 15 14 14 14 13 13 13 12 12 12 12 12
17 17 16 16 16 15 15 15 16 16 16 16 16 16 15 15 15 15 14 15 15 14 15 15 15 14 15 15 14 14 14 14 14 14 14 13 13 13 12 12 12 11 12
17 18 17 17 16 16 15 15 15 15 15 15 15 15 15 14 14 14 14 14 14 14 14 14 14 13 14 14 14 14 14 13 14 14 13 13 13 12 12 12 11 11 12
18 18 18 18 18 17 16 15 15 15 15 15 15 15 15 14 14 14 14 14 15 14 14 13 12 12 12 13 13 14 13 13 13 13 13 12 13 12 12 11 11 11 12
18 18 18 17 17 17 17 17 16 15 15 15 14 15 15 15 15 15 14 14 14 14 14 13 13 12 11 12 13 13 13 13 12 12 13 12 12 12 12 11 11 11 11
19 18 18 17 17 17 16 16 16 16 14 14 14 15 15 15 15 14 15 15 15 14 14 13 13 13 12 12 12 12 12 12 12 11 12 12 12 12 12 11 11 11 11
18 18 18 17 17 17 17 17 16 16 15 15 15 15 15 15 15 15 14 14 14 14 14 13 13 13 12 12 11 12 12 12 12 12 11 12 12 12 12 11 11 11 10
18 18 18 17 17 16 16 16 16 16 16 16 15 15 15 15 15 14 15 15 14 14 14 14 13 13 13 12 11 11 11 11 11 11 11 10 11 12 12 11 11 11 10
17 17 17 17 17 17 17 16 16 16 15 15 15 15 15 15 14 14 14 14 15 14 14 14 14 14 12 11 11 11 10 10 11 11 11 11 10 11 11 11 10 10 10
16 17 16 16 16 17 16 16 16 15 15 15 15 15 15 15 15 15 14 14 14 13 13 14 13 14 14 13 11 11 10 10 12 12 12 11 10 10 10 10 10 10 9
15 14 14 14 14 14 14 14 14 15 15 15 14 14 14 14 14 14 14 14 13 13 13 13 13 13 12 13 12 11 10 11 11 12 12 11 10 9 9 9 9 9 9
12 13 13 13 13 13 14 14 14 14 14 14 14 14 13 13 13 13 13 13 13 13 12 12 12 12 13 12 11 11 11 10 10 10 11 11 10 10 9 8 8 8 8
11 12 12 12 12 12 12 12 13 13 13 13 13 13 13 13 13 13 13 12 12 11 11 12 11 11 11 11 11 11 10 10 10 9 9 10 10 10 10 9 6 6 6

GFSSE_850_temp_042.txt.gz
Temp
18 19 19 18 17 17 16 17 17 17 17 16 16 16 15 15 15 15 16 15 15 15 15 15 15 15 15 15 15 15 16 16 16 16 16 16 16 16 15 15 15 15 15
20 20 19 17 17 17 17 17 17 17 16 16 16 15 15 15 15 16 16 15 15 16 15 16 15 15 15 15 15 15 15 15 15 15 15 16 16 15 15 15 15 15 14
20 19 19 18 18 16 17 17 17 17 17 16 16 15 16 16 16 16 15 15 15 15 15 15 16 15 15 15 15 15 15 15 15 15 15 15 15 15 15 15 15 14 15
20 19 19 18 18 18 17 17 17 16 16 15 16 16 16 16 15 15 15 15 15 15 15 16 16 16 16 15 15 15 14 15 15 15 15 15 14 14 14 14 14 14 14
19 19 19 18 17 17 17 17 16 16 15 15 16 17 17 17 15 15 15 15 15 15 15 16 16 16 16 16 15 15 14 14 14 14 14 14 14 14 14 14 14 14 14
19 18 18 17 16 17 17 17 16 15 14 14 16 17 18 17 14 15 15 15 15 15 16 16 16 16 15 15 15 14 14 14 14 14 13 14 14 14 14 13 13 13 13
18 18 16 15 16 16 16 16 15 15 14 15 16 17 18 18 18 16 16 16 16 16 16 16 16 15 15 15 15 14 15 14 14 14 14 14 14 14 13 13 13 13 12
19 18 18 16 17 16 15 15 15 15 15 16 16 17 18 18 17 17 17 16 16 16 16 16 16 16 16 15 15 15 15 14 14 14 14 14 14 14 13 12 13 13 13
18 18 17 17 18 16 15 15 15 15 15 17 16 17 17 17 17 17 16 16 16 16 16 16 16 16 16 16 15 15 15 15 15 15 15 14 14 13 12 12 12 12 12
17 17 17 17 19 17 16 16 14 15 15 17 18 18 17 17 17 17 17 17 16 16 16 16 16 16 16 16 15 16 15 15 15 15 14 14 14 13 12 12 11 11 12
17 17 17 18 18 18 17 18 15 15 15 16 17 18 18 18 17 17 17 17 17 16 15 16 15 15 15 15 15 15 15 15 16 16 15 14 13 12 12 11 10 11 12
17 16 17 17 18 18 18 18 17 17 16 17 17 17 18 17 17 17 17 17 16 16 16 15 15 15 15 15 15 15 15 15 15 15 15 13 13 12 12 11 11 12 12
17 16 16 16 17 18 18 18 17 17 17 17 17 17 16 17 16 16 16 16 16 16 15 15 15 15 15 15 15 15 15 15 14 15 14 14 13 12 13 13 12 12 12
16 16 16 16 16 17 17 17 17 17 17 17 17 16 16 16 16 16 16 16 16 16 16 15 15 15 15 15 15 15 14 14 14 14 14 13 13 13 13 13 12 12 12
17 17 17 16 16 16 16 17 17 17 17 17 16 16 16 16 16 16 16 15 15 15 15 15 15 15 15 15 15 14 14 14 14 14 14 13 13 13 13 12 13 12 12
16 16 17 17 17 17 17 16 16 16 16 16 16 15 15 15 15 15 15 15 15 14 14 14 14 14 14 14 14 14 13 14 14 14 13 13 13 12 12 12 12 12 12
18 18 17 17 17 17 16 16 16 16 15 15 15 15 15 15 15 15 15 15 14 14 14 14 14 14 14 13 13 13 13 13 13 14 13 13 13 13 12 12 12 12 12
17 18 17 17 16 16 16 16 16 16 16 15 15 15 15 15 15 15 15 15 14 14 14 14 14 13 13 13 12 12 12 12 13 13 13 12 12 12 12 12 11 11 11
18 18 18 17 17 17 16 16 16 16 15 15 15 15 15 15 15 15 15 15 14 14 14 14 14 13 13 13 12 12 12 12 12 12 12 12 12 12 12 12 11 11 11
18 18 17 17 17 17 16 16 16 16 15 15 15 15 14 15 14 14 14 15 15 14 14 14 13 13 13 13 12 12 11 11 11 11 12 12 12 11 11 11 11 11 10
18 18 17 17 17 17 16 16 16 16 16 16 15 15 15 15 14 14 15 14 14 14 14 14 14 13 14 13 13 12 12 11 11 11 11 11 11 11 11 11 10 10 10
18 17 17 16 16 16 16 16 16 16 16 15 15 15 15 14 14 14 14 14 14 14 13 13 13 13 14 13 13 13 11 12 11 12 12 12 12 11 11 11 10 10 10
16 16 17 17 16 16 15 15 15 15 15 15 15 15 15 15 14 14 14 14 13 13 13 13 13 13 13 13 13 12 11 11 12 13 14 13 12 11 11 10 10 9 9
15 16 16 16 16 15 15 15 15 14 14 14 14 14 15 15 15 14 14 13 13 13 13 12 12 12 12 12 12 12 12 11 11 12 12 13 12 11 10 10 9 9 8
14 14 14 14 14 14 14 14 14 14 14 14 14 14 14 14 14 14 13 13 13 13 13 12 12 11 11 11 12 11 11 10 10 9 9 10 11 11 10 10 9 8 7
12 12 13 13 13 13 13 13 13 13 13 13 13 13 13 14 14 13 13 13 13 12 12 11 12 11 11 11 10 10 10 9 9 8 8 9 9 8 9 9 8 7 6

GFSSE_850_temp_045.txt.gz
Temp
18 19 18 18 17 18 17 17 17 17 16 16 16 16 16 15 15 16 15 15 15 15 15 15 15 15 15 15 15 16 16 16 16 16 16 16 16 16 16 16 15 15 14
21 19 18 17 17 17 17 17 17 17 16 16 16 16 15 16 16 16 15 15 16 16 16 16 15 15 15 15 15 15 15 15 15 15 16 16 16 15 15 15 15 15 14
20 19 16 17 17 17 16 16 16 16 16 16 16 16 16 16 16 16 15 15 15 15 16 16 15 15 15 15 15 15 15 15 15 15 15 15 15 15 15 15 15 14 14
20 19 16 17 17 17 17 16 16 15 16 17 17 17 17 16 16 16 15 15 15 15 16 16 16 16 15 15 15 15 15 15 15 15 15 15 14 14 14 14 14 14 14
19 20 17 17 17 17 17 17 16 15 16 17 17 18 17 16 15 15 15 15 15 16 16 16 16 16 16 15 15 16 16 16 15 15 15 15 14 14 14 14 14 14 14
19 19 18 17 17 17 17 16 16 16 16 16 17 18 17 15 15 16 16 15 15 16 16 16 16 16 16 16 16 16 16 16 15 15 15 15 14 14 14 14 13 13 13
19 19 18 16 16 17 17 16 17 17 17 16 17 18 17 16 17 16 16 16 16 16 16 16 16 16 16 15 15 15 15 15 15 15 15 15 15 14 13 13 13 13 12
19 18 17 15 16 17 16 16 16 16 17 17 17 17 17 17 17 16 16 16 16 16 16 16 16 16 15 15 15 15 15 14 15 15 15 15 15 14 13 13 13 13 13
18 18 18 17 16 16 15 15 15 15 16 17 18 18 17 17 17 17 17 17 16 16 16 16 16 16 15 15 15 15 15 15 15 15 15 15 14 13 12 12 12 12 13
17 17 17 18 17 16 15 14 14 14 15 16 17 18 18 18 17 17 17 17 17 16 16 16 16 15 15 15 15 14 14 14 15 15 15 15 14 12 12 12 11 11 12
16 16 16 17 17 17 16 16 15 14 15 15 16 17 17 18 18 18 17 17 17 17 16 16 16 16 15 15 15 15 14 15 15 14 14 14 13 12 12 11 10 10 11
16 16 16 16 17 18 17 16 16 15 15 16 16 16 17 17 17 17 17 17 17 16 16 16 16 15 15 15 15 15 15 15 15 15 15 14 12 12 12 11 10 11 11
17 16 17 17 17 18 17 17 17 17 16 16 16 16 16 17 17 17 17 17 17 16 16 16 16 15 15 15 15 15 15 14 15 15 14 14 12 12 11 11 12 11 12
17 17 16 16 17 17 17 17 17 17 16 16 16 16 16 16 17 17 17 17 16 16 16 16 15 15 15 15 15 15 15 15 14 14 14 14 13 13 12 12 12 12 12
17 17 17 16 16 16 16 16 16 16 16 16 16 16 16 16 16 17 16 16 16 15 15 15 15 15 15 15 15 14 14 14 14 14 14 14 13 13 12 12 12 11 12
17 17 17 17 17 17 16 16 16 16 16 16 16 16 16 16 16 16 15 15 15 15 15 14 14 14 14 14 13 14 14 14 14 14 14 13 13 13 12 12 11 11 11
17 17 17 17 17 16 16 16 16 16 15 15 15 15 15 15 15 15 15 15 15 14 14 14 14 14 14 13 13 13 13 13 13 13 13 13 12 12 12 12 11 11 11
17 17 17 16 16 16 16 16 16 16 16 16 15 15 15 15 15 15 15 15 15 14 14 13 13 13 13 13 13 13 12 13 13 12 13 12 12 12 12 12 11 11 10
18 17 17 16 16 16 16 16 16 15 15 15 15 15 15 15 14 14 15 15 15 14 14 14 14 13 13 13 13 13 12 12 12 12 12 12 12 12 12 11 11 11 10
18 18 17 16 16 16 15 15 15 15 15 15 15 15 15 15 14 14 14 14 14 14 14 14 13 13 13 13 13 13 13 12 12 12 12 12 12 12 12 11 11 11 10
18 18 18 17 17 16 16 16 16 16 15 15 15 15 14 14 15 14 14 14 14 14 14 13 13 13 13 13 13 13 13 13 13 13 12 12 13 12 12 11 11 10 10
17 17 17 17 17 17 17 16 16 16 15 15 15 15 15 14 14 14 14 14 13 13 13 13 13 13 13 13 13 12 12 12 13 13 13 13 13 12 11 11 10 10 9
16 16 16 16 16 16 16 16 16 16 16 16 16 16 15 14 14 14 14 14 14 13 13 13 13 13 13 12 12 11 10 11 12 12 12 12 13 13 12 10 10 9 9
15 15 15 15 16 16 16 15 15 15 15 15 15 15 15 15 15 14 14 14 14 14 13 13 13 12 12 12 11 11 11 11 10 10 11 11 12 12 11 10 9 9 8
15 15 15 14 14 14 14 13 13 13 13 14 14 14 14 14 14 14 14 14 14 13 13 12 12 11 11 11 10 10 10 10 10 9 8 9 10 10 9 10 9 9 8
14 13 13 13 13 13 13 13 12 12 12 12 13 13 13 13 13 13 13 13 13 12 12 12 11 11 11 11 11 10 9 10 9 9 9 9 9 9 9 9 9 9 9

GFSSE_850_temp_048.txt.gz
Temp
19 18 18 18 18 18 17 17 17 17 17 17 16 16 16 16 16 16 15 15 15 15 15 15 15 15 15 15 15 16 16 16 16 15 16 16 16 16 16 15 15 14 13
20 18 18 18 19 18 17 17 17 17 17 16 16 16 16 16 16 15 16 16 16 16 16 16 15 15 15 15 15 16 16 16 15 15 16 16 16 15 15 15 15 14 14
20 19 18 17 18 18 17 17 16 16 16 16 16 17 17 16 16 15 15 16 16 16 16 16 15 15 15 15 15 15 15 15 16 16 16 16 16 15 15 15 14 14 14
20 19 18 18 17 17 17 16 16 15 15 16 16 17 17 16 16 15 15 16 16 16 16 16 16 15 15 15 15 15 15 15 15 15 15 15 15 14 14 14 14 14 14
20 18 18 17 17 17 16 16 15 15 15 16 17 17 16 16 16 15 15 15 15 16 16 16 16 16 16 15 15 15 15 15 15 15 15 15 14 14 14 14 14 14 14
19 17 16 17 17 17 16 16 16 15 15 15 16 17 15 15 15 14 16 15 16 16 16 16 16 16 16 16 16 15 15 15 15 15 15 15 14 14 14 13 13 13 13
18 17 16 16 17 17 16 16 16 16 16 16 16 17 15 14 15 16 15 15 16 16 16 16 16 16 16 15 15 15 15 15 15 15 15 14 14 13 13 13 13 13 13
18 17 16 16 16 17 16 15 16 16 16 17 18 17 16 14 15 16 16 16 16 16 16 16 16 15 15 15 15 15 14 15 15 15 15 14 14 14 12 13 13 13 14
18 18 17 15 16 16 15 15 16 15 16 17 18 18 18 18 17 16 16 17 17 17 17 16 16 16 16 15 15 15 15 15 14 15 14 14 14 13 12 12 12 13 13
17 17 17 16 16 16 16 15 14 15 15 16 17 18 18 18 18 17 17 16 17 16 17 16 16 16 16 16 16 15 15 15 15 15 15 14 14 12 12 11 11 12 14
16 16 17 17 16 16 15 15 14 14 15 15 16 17 18 18 18 17 17 17 16 16 16 16 16 16 16 16 16 15 15 15 15 15 14 14 13 12 12 11 10 11 12
16 16 16 16 16 16 15 15 15 15 15 15 16 16 17 17 17 17 17 17 17 17 16 16 16 16 16 16 16 15 15 15 15 15 15 14 13 12 12 11 10 11 13
16 16 16 16 15 16 15 15 16 17 16 16 16 16 16 17 17 17 17 17 17 16 16 16 16 15 15 15 15 15 15 15 14 14 14 14 13 12 12 11 12 12 13
17 16 16 16 16 16 16 16 16 16 16 16 16 16 16 16 16 16 16 16 16 16 16 16 15 15 15 15 15 15 15 14 14 14 14 13 13 12 11 12 12 12 12
17 17 17 16 17 17 17 16 16 16 16 16 16 15 16 16 16 16 16 16 16 15 15 15 15 14 14 14 14 14 14 14 14 14 14 13 13 13 12 12 12 12 12
17 17 17 17 17 16 16 16 16 16 16 16 16 16 15 15 15 15 15 15 15 15 14 14 14 14 14 14 14 14 13 13 13 13 13 13 13 13 13 12 12 11 11
17 17 17 17 16 16 16 16 16 16 15 16 16 15 15 15 15 15 15 15 15 14 14 14 14 14 14 13 13 13 13 13 13 13 13 13 13 13 13 12 12 11 11
17 17 17 16 16 16 16 16 16 16 16 16 15 15 15 15 15 15 15 15 15 14 14 14 14 13 13 13 13 13 13 12 12 12 12 12 12 12 12 12 12 11 11
17 17 16 16 16 16 16 16 15 15 15 15 15 15 15 15 15 14 15 15 14 14 14 14 13 13 13 13 13 13 12 12 12 12 13 13 12 12 12 12 12 11 11
17 17 16 16 16 16 16 15 15 15 15 15 15 15 15 15 14 14 14 14 14 14 14 14 13 13 13 13 13 13 13 13 13 13 13 13 13 13 12 12 11 11 11
18 17 17 16 16 16 16 16 15 16 16 15 15 15 15 15 15 14 14 14 14 14 14 13 13 13 13 13 13 13 13 13 13 13 13 13 13 12 12 11 11 10 10
18 18 18 17 17 16 16 15 15 15 15 15 15 15 15 15 14 14 14 14 14 14 14 13 13 13 13 13 12 12 11 11 11 12 12 12 12 12 12 12 11 10 10
18 17 17 17 17 16 16 16 16 16 15 15 15 14 14 14 14 14 14 14 14 13 13 13 13 13 12 12 12 11 11 11 11 11 11 11 11 11 11 11 11 10 10
16 16 16 16 16 16 16 16 16 16 15 15 15 15 15 14 15 15 14 14 14 14 14 13 13 12 12 12 11 11 10 10 9 10 10 10 10 11 10 10 10 10 10
15 15 15 15 15 15 15 15 15 15 14 14 14 14 14 14 14 14 14 13 13 13 13 13 12 12 11 11 11 11 10 9 10 9 9 9 9 9 9 10 10 9 8
14 14 14 14 14 14 14 13 13 13 13 13 13 13 13 13 13 13 13 13 13 13 13 12 12 11 11 11 11 11 10 9 9 8 8 7 8 8 9 9 8 8 7

GFSSE_850_temp_051.txt.gz
Temp
19 18 17 18 17 17 17 17 17 16 16 16 16 16 16 17 16 16 15 15 15 15 16 16 16 16 15 16 16 16 16 16 16 16 16 16 16 16 16 15 15 14 14
20 18 17 18 17 17 17 17 16 16 16 17 16 16 17 16 16 16 16 16 16 16 16 15 16 15 15 15 15 16 16 16 16 16 16 16 16 15 15 15 15 14 14
21 19 17 18 18 17 17 16 16 16 16 16 17 17 16 16 15 16 16 16 16 16 16 16 15 15 15 15 15 15 16 16 16 15 15 15 15 15 14 14 14 14 14
20 19 18 18 17 17 17 16 16 16 16 16 17 17 16 16 15 15 15 16 16 17 17 16 16 15 15 15 15 16 15 15 15 15 15 15 14 14 14 14 14 14 14
20 19 17 17 16 17 17 16 16 15 16 16 17 17 16 16 15 15 16 16 16 17 17 17 16 16 16 15 16 15 15 15 15 15 15 14 14 14 14 14 14 14 14
20 18 17 16 16 16 16 16 16 16 16 16 17 16 16 16 15 14 16 16 16 16 16 16 16 16 16 16 15 15 15 15 15 15 15 14 14 14 14 14 13 14 14
19 17 16 16 16 16 16 16 16 16 17 17 17 15 14 14 14 17 16 16 17 16 16 16 16 16 16 16 16 16 15 15 15 15 15 15 14 13 13 13 13 13 13
18 16 16 16 16 16 16 15 16 16 17 17 17 16 14 14 15 17 17 17 17 17 17 17 17 16 16 16 16 16 16 16 15 15 15 15 14 13 13 13 13 13 14
18 16 16 15 16 16 16 15 15 16 16 17 17 17 17 17 18 17 17 17 17 16 16 16 16 16 16 16 16 16 16 16 16 15 15 15 14 13 12 12 12 15 15
17 17 15 15 16 16 15 15 15 15 15 16 17 17 17 17 18 17 17 17 16 16 16 16 16 16 16 16 16 16 16 16 15 15 15 14 14 13 12 11 11 15 15
16 16 16 15 15 15 15 15 14 14 15 15 16 17 17 17 17 17 17 17 17 16 16 16 16 16 16 16 16 16 16 15 15 15 15 14 14 13 12 12 10 13 13
16 16 15 15 15 15 15 15 15 14 15 15 16 16 17 17 17 17 17 17 17 16 16 16 16 16 15 15 15 15 15 15 15 15 14 14 14 13 13 12 11 12 13
16 16 16 15 15 15 15 14 15 16 16 15 16 16 16 17 17 17 17 16 16 16 16 15 15 15 15 15 15 15 15 15 14 14 14 14 14 13 13 12 12 12 12
16 16 15 15 15 15 14 14 15 15 16 16 15 16 16 16 16 16 16 16 16 16 15 15 15 15 15 14 14 14 14 14 14 14 14 14 14 13 12 11 12 12 12
16 16 15 15 15 15 15 15 15 16 16 16 16 16 16 16 16 16 16 16 16 15 15 14 14 14 14 14 14 14 14 14 14 13 13 13 13 13 13 13 12 12 12
17 16 16 16 16 16 16 16 16 16 16 15 15 16 15 15 15 15 15 15 15 15 14 14 14 14 14 14 14 14 13 13 13 13 13 13 13 13 13 13 12 12 11
17 16 16 16 16 16 16 16 16 16 16 16 15 15 15 15 15 15 15 15 15 14 14 14 14 14 14 14 14 13 13 13 13 13 13 12 12 12 12 12 12 12 11
17 16 16 16 16 16 16 16 16 16 15 15 15 15 15 15 15 14 14 15 14 14 14 14 14 13 14 13 13 13 13 13 13 13 12 13 13 13 12 12 12 11 11
17 16 16 16 16 16 16 16 15 15 15 15 15 15 15 15 15 14 14 14 14 14 14 14 14 13 13 13 13 13 13 13 13 13 13 13 13 12 12 12 11 11 11
16 16 16 16 16 16 15 15 15 15 15 15 16 15 15 15 15 14 14 14 14 14 14 14 14 13 13 13 13 13 13 13 13 13 13 13 13 12 12 12 11 11 10
16 16 16 16 16 16 16 16 16 16 16 16 16 15 15 15 14 14 14 14 14 14 14 14 14 13 13 13 13 13 13 13 12 12 12 12 12 12 12 12 11 11 10
18 17 17 17 16 16 16 16 16 16 16 16 15 15 15 15 15 14 14 14 14 14 13 14 13 13 13 13 12 12 11 11 12 12 11 11 12 12 12 11 11 11 11
18 17 17 17 17 17 16 16 16 15 15 15 15 15 15 14 14 14 14 14 14 14 13 13 13 13 13 12 12 11 11 11 11 11 11 11 11 11 11 10 10 10 10
17 17 17 17 17 16 16 16 15 15 15 15 15 15 14 14 14 14 14 14 14 14 14 13 13 13 12 12 11 11 10 10 9 9 9 10 10 10 10 10 10 10 9
15 15 15 15 15 15 15 15 15 15 15 15 14 14 14 13 13 13 13 13 13 13 13 13 13 12 12 11 11 11 11 11 10 8 8 8 8 9 9 9 9 9 8
15 14 14 14 14 14 14 14 14 14 14 13 13 13 13 13 12 12 13 13 13 13 13 13 12 12 11 11 11 10 10 10 10 8 7 7 7 7 8 7 8 8 8

GFSSE_850_temp_054.txt.gz
Temp
18 16 17 17 17 17 16 17 17 16 16 16 16 16 16 16 16 15 15 15 16 16 16 16 16 16 16 16 16 16 16 16 16 16 16 16 16 15 15 15 14 14 14
18 16 17 17 17 16 16 16 16 16 16 16 16 16 16 16 17 16 16 16 16 16 15 16 16 16 16 15 16 16 16 16 16 16 16 15 15 15 15 15 15 14 14
18 16 17 17 17 16 16 16 16 15 16 16 16 16 16 16 16 16 16 16 17 16 16 15 15 16 15 16 16 16 16 16 16 15 15 13 15 14 14 14 14 14 14
18 16 16 16 16 16 16 16 16 16 16 17 17 17 16 15 15 16 16 17 17 17 16 16 16 16 16 16 16 16 16 16 16 16 13 13 13 14 14 14 14 14 13
17 16 16 16 17 17 16 16 16 16 16 17 17 17 16 15 15 16 16 17 17 17 17 17 17 16 16 16 16 16 16 16 16 15 13 14 14 14 14 14 13 14 14
16 16 16 17 17 17 16 16 16 16 16 17 17 17 16 16 15 16 17 17 17 17 17 17 17 16 16 16 16 16 16 16 16 16 15 14 13 14 14 14 14 14 14
16 16 17 16 16 16 16 16 16 16 17 17 15 15 15 15 15 16 17 17 17 17 17 17 17 17 16 16 16 16 16 16 15 16 15 15 14 14 13 13 14 14 14
16 16 15 16 16 16 16 16 16 16 17 18 15 15 15 14 15 16 16 17 17 17 17 17 17 16 16 16 16 16 16 16 16 16 16 15 15 14 13 13 14 15 14
15 15 15 16 16 16 16 15 16 16 17 17 17 16 15 16 16 16 16 16 17 17 17 17 17 16 16 16 16 16 16 16 15 16 15 15 15 14 13 13 15 15 14
15 15 16 15 15 15 15 15 15 15 16 17 17 17 16 16 17 17 17 17 17 16 16 16 16 16 16 16 16 16 16 16 15 15 15 15 15 13 13 12 13 14 14
15 15 15 15 15 15 16 14 14 14 15 16 16 17 16 15 17 16 17 17 16 16 16 16 16 16 15 15 15 15 15 15 15 15 14 15 14 13 13 13 12 13 13
15 15 15 15 15 15 15 15 14 14 14 15 16 16 16 16 16 16 17 16 16 16 16 16 16 15 15 15 15 15 15 15 15 15 14 14 14 14 13 13 13 13 13
15 15 14 14 14 15 14 14 15 15 13 14 15 15 16 17 17 16 16 16 16 16 15 15 15 15 14 14 15 15 15 15 14 14 14 14 14 14 13 12 13 12 13
15 15 14 14 14 14 14 14 14 14 13 13 15 15 16 16 16 16 16 16 16 15 14 15 14 15 15 15 14 14 14 14 14 14 13 14 14 13 13 13 12 12 12
14 14 14 14 15 14 14 14 14 14 14 13 15 15 15 15 15 15 16 16 15 15 15 14 14 14 14 14 14 14 14 14 13 13 13 13 13 13 13 13 12 12 12
15 14 14 15 14 14 14 13 14 13 13 14 15 16 15 15 15 15 15 15 15 15 15 14 14 14 14 14 14 14 14 14 14 13 13 13 13 13 13 13 12 12 11
16 16 15 15 15 15 15 15 14 14 14 15 15 16 16 15 15 15 15 15 15 15 14 14 14 14 14 14 14 14 13 13 13 14 13 13 13 13 13 12 12 12 11
17 16 16 15 15 15 15 15 15 15 15 15 15 15 15 15 15 15 15 15 14 14 14 14 14 14 14 14 13 13 12 13 14 13 13 13 13 13 13 13 12 12 11
17 17 16 16 15 15 15 15 15 15 15 15 15 15 15 15 15 15 15 14 14 14 14 14 14 14 13 13 12 13 13 13 13 13 13 13 13 13 13 12 12 11 11
17 17 16 16 15 15 15 15 15 15 15 15 16 15 15 15 15 14 14 14 14 14 14 14 14 13 14 13 12 13 13 13 13 13 13 13 13 13 13 12 12 12 11
17 17 17 16 16 16 16 16 15 16 16 16 15 15 15 15 14 14 14 14 14 14 14 14 13 13 13 13 13 13 12 12 11 12 12 12 12 12 12 12 12 11 11
17 17 16 16 16 16 15 15 15 16 15 14 15 15 15 15 15 15 15 15 14 14 14 14 13 13 13 13 13 12 12 13 12 12 12 12 11 11 11 11 11 11 11
17 17 17 17 16 16 16 16 16 15 15 15 15 15 15 15 15 15 15 14 14 14 14 14 13 13 13 13 13 12 11 13 12 11 11 11 11 10 11 11 10 10 10
17 17 17 16 16 16 16 16 16 15 15 15 15 15 15 15 15 14 14 14 14 14 14 14 14 13 13 12 12 12 10 10 10 10 10 10 9 10 9 10 9 9 9
16 16 16 16 16 16 15 15 15 15 15 15 15 15 14 14 14 14 13 13 13 13 13 13 13 13 12 12 12 11 11 11 10 9 9 9 8 8 8 8 8 8 8
15 16 16 15 15 15 15 15 15 15 15 14 14 14 14 13 13 13 13 12 13 13 13 13 13 13 12 12 10 11 10 10 10 9 8 8 8 7 7 7 7 7 7

GFSSE_850_temp_057.txt.gz
Temp
18 18 18 17 17 17 17 16 16 16 16 16 16 16 16 16 16 16 16 16 16 16 15 15 16 16 16 16 16 17 17 17 16 16 16 16 16 15 15 14 13 13 15
18 19 18 17 17 17 17 16 16 16 16 15 16 16 16 16 16 16 16 16 16 16 16 16 16 16 16 16 16 17 16 16 16 15 15 15 15 15 15 15 14 14 14
18 17 18 17 17 17 16 16 15 15 15 16 16 16 16 16 16 16 17 17 16 16 16 16 16 16 16 16 17 16 16 16 15 14 14 14 14 15 15 14 14 14 14
18 17 16 17 17 17 16 16 16 15 16 17 16 16 15 16 16 16 17 17 17 16 16 16 16 16 16 17 16 16 16 16 15 14 14 14 14 14 14 14 15 14 15
18 17 16 17 17 17 16 16 16 16 16 17 16 16 16 15 16 16 17 17 17 17 17 16 16 16 16 17 17 16 16 16 15 13 13 13 14 14 14 14 14 14 14
18 18 18 17 17 17 17 16 16 16 16 17 17 16 15 15 16 16 17 17 17 17 17 17 17 16 16 17 17 17 17 17 15 14 13 14 14 13 14 14 14 15 15
19 17 17 16 16 17 17 17 17 16 17 16 16 16 15 15 16 17 17 17 17 17 17 17 17 16 17 17 17 17 16 16 15 15 15 14 15 14 14 15 15 15 15
18 16 17 17 16 16 16 16 17 17 17 16 15 14 15 14 16 16 17 17 17 17 17 17 17 17 17 17 17 16 16 16 14 15 15 15 15 15 15 15 15 15 15
18 17 16 16 16 16 16 15 16 17 17 16 16 15 15 15 16 16 16 17 17 17 17 17 17 17 17 16 16 16 16 16 14 15 14 14 15 15 14 15 14 14 14
18 17 16 15 15 16 15 15 15 16 17 17 16 16 16 16 17 17 17 17 17 17 17 17 17 16 16 16 16 16 16 16 14 14 13 15 15 14 13 13 14 14 14
16 16 16 15 16 15 15 15 14 15 16 17 17 16 16 15 17 16 17 17 17 17 16 16 16 16 16 16 16 16 15 14 14 14 14 15 15 15 13 13 14 14 14
17 16 15 16 17 16 15 15 14 14 14 15 16 17 15 14 14 14 17 17 17 16 16 16 16 16 15 15 15 15 15 14 14 14 14 15 15 15 13 13 13 13 14
17 16 16 15 16 16 15 16 14 14 14 14 14 14 14 14 16 16 16 16 16 16 16 16 16 15 14 15 15 14 14 15 14 13 13 15 15 14 14 13 13 13 13
17 17 16 15 15 15 15 15 15 14 15 14 14 14 14 15 16 14 14 13 14 13 13 13 13 13 13 14 13 13 13 13 14 14 13 14 14 14 14 13 13 13 12
16 16 15 15 15 15 15 15 14 15 15 15 14 14 14 14 15 14 14 14 13 13 13 13 13 13 13 13 13 13 13 13 13 13 14 14 14 13 13 13 13 12 12
15 15 15 15 14 14 15 14 14 14 15 15 14 14 13 13 14 14 13 14 14 13 13 13 13 13 13 13 13 13 13 13 14 14 13 13 14 13 13 13 13 12 12
15 15 15 15 15 14 14 14 14 14 15 15 14 14 13 13 13 14 13 13 13 13 13 13 13 13 13 13 13 13 13 13 13 13 12 13 13 14 13 13 13 12 12
15 15 15 15 14 14 14 14 14 15 14 14 15 14 14 15 15 14 13 13 13 13 13 13 13 13 13 13 13 13 13 13 13 13 13 12 12 12 13 13 13 12 12
15 15 15 15 15 14 14 14 14 14 14 14 14 14 14 14 15 14 13 13 13 13 13 13 13 13 13 13 13 13 13 13 13 13 12 12 12 12 12 12 12 12 12
15 15 17 16 16 15 14 14 14 14 14 14 14 14 14 14 14 13 13 13 14 14 14 14 13 13 13 13 12 13 13 13 13 12 12 12 12 11 12 12 12 12 12
15 14 16 17 16 16 14 15 14 14 14 14 14 14 14 14 13 13 13 14 14 14 14 13 13 13 13 12 12 14 13 12 12 12 12 12 11 11 12 11 11 11 11
15 14 14 16 16 16 14 14 14 14 14 14 14 14 15 14 14 14 14 14 14 14 13 13 13 13 13 13 12 12 11 13 13 12 12 12 11 11 11 11 11 10 10
16 15 14 14 15 14 14 14 14 15 15 15 15 15 15 15 15 15 14 14 14 13 14 14 13 13 12 12 12 12 11 13 13 12 11 11 10 10 9 10 10 9 9
16 17 16 16 16 16 16 16 15 15 15 14 14 15 15 15 15 15 15 15 14 14 14 14 14 13 13 11 11 11 11 10 10 11 11 10 10 9 9 8 7 7 8
16 16 17 17 17 16 16 15 15 14 14 15 15 15 15 15 15 15 14 14 14 13 13 13 13 13 12 12 10 10 10 9 10 9 9 10 9 9 8 8 7 7 8
15 15 16 16 16 16 16 15 14 14 15 15 15 14 14 14 14 14 14 13 13 13 13 13 12 12 12 11 11 9 10 10 10 9 9 9 9 9 7 7 6 7 7

GFSSE_850_temp_060.txt.gz
Temp
19 20 18 17 17 17 17 16 16 16 16 16 17 16 15 16 16 16 16 16 16 15 15 16 16 16 16 16 17 17 16 16 16 16 15 15 15 15 14 14 14 14 14
20 19 18 17 17 17 16 16 16 16 16 16 16 16 16 16 16 17 17 17 16 16 16 16 16 16 16 17 17 17 16 15 15 15 14 14 15 15 14 14 14 14 15
20 19 18 17 17 17 16 16 16 16 17 16 16 16 16 16 17 17 17 16 16 14 14 16 16 17 17 17 17 17 16 15 14 14 14 14 15 15 14 14 15 14 14
20 19 18 17 17 17 16 16 16 16 17 16 15 15 16 16 16 17 17 16 16 16 16 16 17 17 17 17 17 17 16 15 14 13 14 14 14 14 14 15 14 14 15
19 19 17 17 17 17 16 16 17 17 17 16 16 16 15 16 17 17 17 17 17 16 17 17 17 17 17 17 17 16 16 16 14 14 13 13 13 14 15 15 15 15 15
17 18 17 17 17 16 16 16 17 17 17 16 16 16 16 16 17 17 17 17 17 17 17 17 17 17 17 17 17 17 16 16 15 15 14 14 14 15 15 15 15 15 15
17 17 17 17 17 16 16 17 17 17 17 17 16 15 16 16 17 17 17 18 18 17 17 17 17 17 17 17 17 17 16 16 16 15 15 15 15 15 15 15 15 15 15
18 17 17 17 16 16 16 17 17 17 17 16 15 15 15 16 16 17 17 17 18 17 18 17 17 17 17 17 17 17 16 16 16 15 15 15 15 15 15 15 15 15 15
18 17 17 16 16 16 16 16 16 17 17 16 15 15 14 17 17 17 17 17 17 17 17 17 17 17 17 17 17 16 16 16 16 15 14 15 15 15 15 14 15 14 15
17 17 16 16 16 16 16 15 16 17 17 16 15 16 16 17 17 17 18 18 18 18 18 17 17 17 17 17 17 16 16 16 16 15 15 15 15 15 14 14 14 14 14
17 17 16 16 16 16 15 14 15 16 17 16 16 16 16 17 17 17 17 18 17 17 17 17 17 17 17 16 16 16 16 16 15 15 15 15 15 15 14 14 14 14 14
17 16 16 15 16 15 15 15 14 15 16 16 17 17 16 14 15 18 17 17 17 17 17 16 16 16 16 17 16 16 16 15 15 15 15 15 15 15 14 13 13 14 14
18 17 16 16 16 17 16 15 14 15 14 14 15 16 15 14 15 16 17 17 17 17 16 16 16 15 16 15 15 15 15 15 15 14 14 14 14 14 14 14 14 13 13
17 17 15 16 16 16 16 16 15 15 14 14 14 14 14 15 16 16 15 16 17 17 15 14 15 13 14 15 14 14 14 14 14 14 14 14 14 14 14 14 14 13 13
17 17 16 16 16 16 16 16 15 15 15 15 14 14 14 15 16 16 15 15 15 14 14 14 14 14 13 13 13 13 13 14 14 13 14 14 14 14 13 13 13 13 13
17 16 16 16 16 16 16 16 15 15 15 15 14 14 14 14 15 15 14 15 15 15 14 14 14 13 13 13 13 13 13 13 13 13 13 13 13 14 13 13 13 13 12
16 16 16 15 15 15 15 15 15 14 15 15 15 14 14 14 14 14 14 13 14 14 14 14 13 14 14 14 14 13 13 13 13 14 13 13 12 12 13 13 13 12 12
15 15 15 15 15 15 15 15 14 15 15 15 15 14 14 14 15 14 14 14 14 13 13 14 14 13 13 13 13 14 14 14 13 13 13 13 12 12 12 12 12 12 11
15 15 15 15 15 14 14 14 14 14 15 15 14 14 14 15 14 14 14 14 13 14 13 13 13 13 13 13 13 13 13 13 13 14 14 13 13 12 12 11 11 11 11
15 15 15 14 15 14 14 14 14 14 14 14 14 14 14 14 14 14 14 13 13 13 13 13 13 13 13 13 12 13 13 13 13 13 14 13 12 12 11 11 11 11 11
15 15 15 15 16 15 15 14 14 14 14 14 14 14 14 14 14 14 13 13 13 13 13 13 13 13 13 13 12 12 12 13 13 13 12 12 12 12 11 11 11 10 10
16 15 15 16 16 16 15 15 15 14 14 15 14 14 14 14 14 14 13 14 14 13 13 13 12 12 12 12 12 12 12 12 13 13 12 12 12 11 11 10 10 9 9
17 16 15 15 15 15 15 15 14 14 14 14 14 14 14 14 14 14 14 14 14 13 13 13 13 12 12 12 12 11 11 12 12 12 12 12 11 10 9 9 8 8 9
17 17 15 15 14 14 14 14 16 16 15 15 14 14 15 15 14 14 14 15 15 14 14 14 14 13 12 12 11 10 10 10 11 11 11 11 11 10 9 9 8 8 8
17 17 16 16 15 16 16 16 16 15 14 14 13 14 14 14 15 15 15 15 14 14 14 13 13 12 12 12 11 10 10 9 9 9 10 10 10 10 9 8 8 6 7
16 16 16 16 16 15 15 15 15 15 15 14 14 14 14 14 14 14 14 14 13 13 13 13 12 12 11 11 9 9 8 9 10 10 10 10 10 10 9 8 7 7 6

GFSSE_850_temp_063.txt.gz
Temp
17 19 18 17 17 17 16 16 16 16 16 17 16 16 16 16 16 16 15 15 15 16 16 17 17 17 17 17 17 16 15 15 14 14 15 15 15 14 14 14 14 15 14
18 19 18 18 17 17 16 16 16 16 17 16 16 16 17 17 17 17 16 15 16 16 17 17 17 17 17 17 16 15 14 14 14 14 14 15 15 14 14 14 15 13 14
19 18 18 18 17 16 16 16 16 16 16 16 16 17 17 17 17 17 17 16 15 17 17 17 17 17 17 16 15 14 14 14 13 14 14 14 14 14 15 15 15 15 15
19 18 17 17 17 16 16 16 16 17 16 16 16 16 17 17 17 17 17 17 17 17 17 17 17 17 17 16 16 15 15 14 13 14 14 14 15 15 15 15 15 15 15
19 18 17 17 16 16 16 17 17 17 16 16 15 16 16 17 17 17 17 17 17 17 17 17 17 17 17 17 16 16 16 15 14 14 14 15 15 15 15 16 16 16 16
18 17 17 17 16 16 16 17 17 17 16 16 15 16 17 17 17 18 18 17 17 17 17 17 17 17 17 17 17 17 17 16 16 15 15 15 15 15 15 16 16 16 16
18 17 17 16 16 16 16 17 17 17 17 16 16 16 17 17 18 18 18 18 18 18 18 18 18 17 17 17 17 16 16 16 16 15 15 16 15 15 15 15 15 15 15
17 17 16 16 16 16 16 17 18 17 17 16 16 16 16 17 18 18 18 18 18 18 18 18 18 17 17 17 17 16 16 16 16 16 16 15 15 15 15 14 15 15 15
17 17 17 16 16 16 16 17 17 17 17 16 15 16 17 17 17 18 18 18 18 18 18 18 18 17 17 17 17 16 16 16 15 16 15 15 15 15 14 14 14 14 14
17 17 17 16 16 16 16 16 17 17 17 16 16 17 17 18 18 18 18 18 18 18 18 18 18 17 17 17 16 16 16 16 16 15 15 15 15 15 14 14 14 14 14
17 17 16 16 16 16 16 16 17 17 16 16 16 16 17 18 18 18 18 18 18 18 17 17 17 17 17 17 17 16 16 16 16 15 15 15 15 15 15 14 14 13 14
17 16 16 16 16 16 17 17 16 17 17 16 16 16 17 17 17 18 18 18 18 17 17 17 17 17 17 16 16 16 16 15 15 15 15 15 14 14 14 14 14 14 14
17 16 16 15 16 16 16 17 17 16 17 17 17 17 16 17 17 17 17 17 17 17 17 17 16 16 16 16 16 15 15 15 14 15 15 14 14 14 14 14 14 14 13
17 17 17 15 16 16 16 16 16 16 16 16 16 15 15 16 16 17 16 16 16 16 16 16 16 16 16 15 15 15 14 14 14 14 14 14 14 14 13 13 13 13 13
17 17 17 16 16 16 16 16 15 15 15 14 14 14 15 15 16 16 16 16 16 16 16 15 15 15 14 14 14 14 13 13 14 14 14 14 14 13 13 13 13 13 13
16 16 17 16 16 15 16 16 15 15 15 14 14 15 15 15 15 15 15 15 15 16 15 15 14 14 13 13 13 13 13 13 13 13 14 14 13 12 12 12 12 12 12
17 16 16 16 16 16 16 16 15 15 15 15 15 15 15 15 15 15 15 15 15 15 15 14 14 14 13 13 13 13 13 14 14 13 13 13 13 12 12 12 11 11 11
16 16 16 16 16 15 15 15 15 15 15 15 15 14 15 15 15 15 15 14 14 14 14 14 14 13 13 13 13 13 13 14 14 13 13 13 13 12 12 12 11 11 11
16 16 16 16 15 15 15 15 15 14 15 15 15 14 14 14 15 15 15 14 14 13 13 13 13 13 13 13 13 13 13 13 13 13 13 13 12 12 12 12 11 11 11
16 15 15 15 15 15 15 15 15 14 14 14 15 14 14 14 14 15 14 14 13 13 13 13 13 13 13 13 13 12 12 12 12 13 13 12 12 11 11 11 11 11 11
16 16 16 15 15 14 14 14 14 14 14 14 14 14 14 14 14 13 13 13 13 13 13 13 13 13 13 13 12 12 12 12 12 13 13 12 12 11 11 11 11 10 10
17 17 16 16 16 15 15 15 15 15 14 14 14 14 14 14 14 14 13 13 13 13 13 12 12 12 12 12 12 12 12 12 12 13 13 12 11 11 11 11 10 10 9
17 17 17 16 16 16 15 15 14 14 14 14 14 14 14 14 13 14 13 13 13 13 13 13 12 13 12 12 11 11 12 11 11 12 11 11 11 11 10 10 10 10 9
17 17 17 17 16 16 15 15 14 15 15 15 14 14 14 14 14 14 13 14 13 13 14 14 14 13 12 12 12 11 11 10 10 10 11 11 10 10 10 10 9 9 8
17 17 17 16 16 16 16 15 15 15 15 15 15 14 14 14 14 14 14 14 14 14 14 14 13 13 12 12 12 11 11 10 9 9 10 10 10 10 9 9 9 8 8
15 16 16 16 15 16 16 15 15 15 15 15 15 15 15 14 13 14 14 14 14 14 13 13 12 12 12 11 11 10 9 9 9 9 9 9 9 9 8 8 8 8 7

GFSSE_850_temp_066.txt.gz
Temp
17 17 17 17 17 17 16 16 16 17 16 15 16 16 17 16 15 15 16 16 16 16 16 17 17 17 17 17 16 16 15 15 15 15 15 15 14 14 15 15 14 14 15
18 17 17 17 17 16 16 16 16 16 16 15 16 17 17 16 16 15 15 16 16 17 17 17 17 17 16 16 16 15 15 15 15 15 15 14 14 15 15 15 15 14 14
18 17 17 17 16 16 16 16 16 16 15 16 17 17 17 17 17 16 15 16 17 17 17 17 17 17 16 16 15 15 15 14 14 15 15 15 15 16 16 16 15 15 15
18 17 17 17 16 16 16 16 16 15 15 16 17 17 18 18 18 17 16 17 17 17 17 17 17 17 16 16 15 15 15 14 14 15 15 15 15 16 16 16 16 16 16
18 17 17 17 16 16 16 16 16 16 16 16 17 17 18 18 18 18 18 18 17 17 17 17 17 17 17 16 16 16 16 15 15 15 15 15 15 16 16 16 16 16 16
17 17 16 16 16 16 16 17 16 16 16 16 17 18 18 18 18 18 18 18 18 18 18 17 17 17 17 16 16 16 16 16 15 16 16 16 15 16 16 15 15 15 16
17 16 16 16 16 16 16 17 16 16 15 16 17 17 18 18 18 18 18 18 18 18 18 18 17 17 17 17 17 16 16 16 16 16 16 15 15 15 15 15 15 15 15
16 16 16 16 16 16 16 17 16 16 15 15 16 17 17 18 18 18 18 18 18 18 18 17 17 17 17 17 17 16 16 17 16 16 16 15 15 15 15 14 14 15 15
16 16 16 16 16 16 16 17 17 16 16 15 16 16 17 17 18 18 18 18 18 18 18 18 17 17 17 17 16 16 16 16 16 16 15 15 15 15 15 14 14 14 14
17 16 16 16 16 16 16 17 17 17 16 15 16 17 18 17 18 18 18 18 18 18 18 18 17 17 17 17 16 16 16 16 16 16 15 15 15 14 14 14 14 13 14
16 17 16 15 15 16 16 17 17 17 17 16 16 17 18 18 18 17 18 18 17 17 17 17 17 17 17 17 16 16 16 15 15 15 15 14 14 14 14 14 14 14 13
16 16 17 16 15 15 16 16 17 17 17 16 16 17 18 18 18 17 17 18 17 17 17 17 16 16 16 16 16 16 15 15 15 15 15 14 14 14 14 14 14 14 13
16 17 16 16 16 15 16 16 16 16 16 16 16 17 17 17 17 17 17 17 17 17 17 16 16 16 16 16 16 15 15 15 15 15 14 14 14 14 13 13 13 13 13
15 15 16 16 16 15 15 16 16 16 17 16 17 17 17 17 17 17 17 17 17 16 16 16 16 16 15 15 15 14 15 14 14 14 14 14 13 13 13 13 13 12 12
15 15 15 16 16 16 15 15 15 16 16 16 15 16 16 16 16 16 17 16 16 16 16 16 16 16 15 14 14 14 14 14 14 13 13 13 13 13 12 12 12 12 12
16 15 15 16 16 16 16 16 15 15 16 15 15 15 15 15 15 15 16 16 16 16 15 15 15 14 14 14 14 13 13 13 13 13 13 13 13 13 12 12 12 11 11
15 16 15 15 15 16 15 16 16 15 15 15 14 14 14 15 15 15 16 15 15 15 15 14 14 14 14 13 13 13 13 13 13 13 13 13 13 13 13 12 12 12 11
17 16 15 16 15 16 16 16 16 15 15 15 15 14 14 14 15 15 15 15 14 14 14 14 14 13 13 13 13 13 13 13 13 13 13 13 12 12 12 12 12 11 11
16 16 17 17 16 15 16 16 16 15 15 15 15 15 14 14 14 15 14 14 14 13 13 13 13 13 13 13 13 13 12 12 12 12 13 12 12 12 12 12 12 11 11
16 16 15 15 15 16 15 15 15 15 14 15 15 14 14 14 14 14 14 14 13 13 13 13 13 13 13 13 13 13 12 13 12 12 12 12 12 11 11 11 11 11 11
16 16 16 16 16 16 15 15 15 15 15 14 14 14 14 14 14 14 14 13 13 13 13 13 13 12 13 13 13 12 13 13 12 13 12 12 12 12 11 11 11 11 11
17 16 16 16 15 15 15 15 15 14 14 14 14 14 14 14 14 14 14 13 13 13 13 12 12 12 12 12 12 12 11 12 12 12 13 13 12 12 11 11 11 11 10
17 17 17 17 17 16 16 16 15 14 14 14 14 14 14 14 14 13 13 13 13 13 13 12 12 12 12 12 12 11 11 11 11 11 11 11 11 11 10 11 11 10 10
17 17 17 17 17 16 16 15 15 15 15 15 15 14 14 13 14 13 13 13 13 13 13 13 12 13 12 13 13 12 11 10 10 10 11 11 10 10 10 10 9 9 9
17 17 16 16 16 16 15 15 15 15 15 15 15 15 14 14 14 14 14 14 13 13 14 14 14 14 13 12 12 12 11 11 10 10 9 10 10 10 10 9 8 8 9
16 17 16 16 16 16 16 15 15 15 15 14 14 14 15 15 14 14 14 14 14 14 14 14 13 13 12 12 11 11 10 10 10 9 9 9 9 9 9 8 7 8 8

GFSSE_850_temp_069.txt.gz
Temp
16 17 17 17 16 16 16 16 17 16 16 16 16 16 16 16 16 16 16 16 16 16 16 17 17 17 17 16 16 16 15 15 15 15 14 14 15 15 15 14 14 14 14
17 17 17 17 16 16 16 16 17 16 15 16 16 16 16 16 16 16 16 16 17 17 17 17 17 17 17 16 16 16 15 15 15 15 15 15 16 16 16 16 15 13 14
17 17 17 17 16 16 16 17 16 15 16 17 17 16 16 15 15 15 16 17 17 17 18 17 17 17 17 16 16 16 15 15 15 15 15 16 16 16 16 16 16 15 15
17 17 16 16 16 16 16 17 16 15 16 17 17 17 17 16 15 15 17 17 18 18 18 18 18 17 18 17 17 17 16 16 16 15 16 16 16 16 16 16 16 16 15
17 16 16 16 16 16 16 16 16 16 17 17 17 18 18 17 17 17 18 18 18 18 18 18 18 17 17 18 17 17 16 16 16 16 16 16 16 16 16 16 16 16 16
15 16 16 16 16 16 16 16 15 16 17 17 17 18 18 18 18 18 18 18 18 18 18 17 17 17 17 17 17 17 17 16 16 16 16 16 15 15 15 15 15 15 15
15 16 16 16 16 16 16 16 16 16 17 17 17 18 18 18 18 18 18 18 18 18 18 18 18 17 17 17 16 16 16 16 16 16 16 16 15 15 15 15 15 15 15
15 16 16 16 16 16 16 16 15 15 16 17 17 18 18 18 18 18 18 18 18 18 18 18 17 17 17 17 17 17 16 16 16 16 16 15 15 15 15 14 14 14 14
16 16 16 15 15 16 16 16 15 15 15 16 17 17 17 18 18 18 18 17 17 17 17 17 17 17 17 17 17 16 16 16 16 16 15 15 15 15 15 14 14 14 14
16 15 15 15 15 15 16 16 16 15 15 15 16 17 17 17 18 18 18 18 18 17 17 17 17 16 16 16 16 16 16 16 15 15 15 15 14 14 14 15 14 14 13
15 15 15 15 15 15 16 16 16 16 15 15 16 17 17 17 17 17 17 17 17 17 17 17 16 16 16 16 16 16 16 15 15 15 15 14 14 14 14 14 13 13 13
15 16 16 16 15 15 16 16 16 16 15 15 16 16 17 17 17 17 17 17 17 17 17 17 16 16 16 15 15 15 15 15 15 15 14 14 14 14 13 13 13 13 13
15 15 16 16 16 16 16 16 16 16 16 15 15 16 16 16 17 17 17 17 17 16 16 16 16 16 15 15 15 15 14 14 14 14 14 14 13 13 13 12 12 12 12
15 15 15 15 16 16 15 16 16 16 16 15 15 16 17 16 16 16 16 16 16 16 16 16 15 15 15 14 14 14 14 14 14 14 13 13 13 13 12 12 12 12 12
17 14 14 14 15 16 16 16 16 16 16 16 16 16 17 16 16 16 16 16 16 16 15 15 15 15 14 14 14 14 14 13 13 13 13 13 13 13 12 12 12 12 12
18 17 16 14 14 16 16 16 16 15 15 16 16 16 16 16 16 15 16 16 15 15 15 14 14 14 14 14 13 13 13 13 13 13 13 13 13 13 12 13 13 12 12
17 16 17 15 14 14 15 17 17 16 15 15 15 15 15 15 15 15 15 15 15 15 15 14 14 14 14 13 13 13 13 13 13 13 13 13 13 13 13 13 12 12 12
16 15 16 16 17 15 15 15 16 17 15 15 15 15 15 14 14 14 14 15 15 14 14 14 14 13 13 13 13 13 13 12 12 12 12 13 12 12 12 12 12 11 11
16 15 15 15 15 17 15 14 15 14 15 15 15 15 15 14 14 14 14 14 14 14 14 13 13 13 13 13 13 13 13 13 13 12 12 12 12 12 12 11 11 11 11
16 16 16 16 16 15 15 15 15 14 14 15 15 14 14 14 14 14 14 14 14 13 13 13 13 13 13 13 13 13 12 13 12 12 12 12 12 12 12 11 11 11 11
16 16 15 15 15 14 14 15 14 14 15 15 14 14 14 14 14 13 13 13 13 13 13 13 13 13 13 13 12 12 13 12 12 13 12 12 12 12 12 11 11 11 11
16 16 16 16 15 16 16 16 15 15 15 15 15 14 14 14 14 14 14 13 13 13 13 13 13 12 12 12 12 11 11 12 12 12 12 12 12 11 12 11 11 11 10
16 16 16 16 16 16 16 15 15 15 15 14 15 14 14 14 14 14 13 13 13 13 13 13 12 12 12 12 12 11 11 11 11 11 11 11 11 11 11 11 10 10 10
17 17 16 16 16 16 16 16 15 16 16 15 15 14 14 14 14 14 14 14 14 13 13 12 12 12 12 12 13 12 12 11 9 10 10 10 10 10 10 10 10 9 9
17 17 17 17 16 16 16 16 15 15 15 15 14 14 14 14 14 14 14 13 13 13 13 13 12 13 13 13 13 12 12 11 10 9 9 10 9 9 9 9 9 9 9
16 16 17 16 16 16 16 16 16 15 15 14 14 13 14 14 14 13 13 13 13 13 13 14 14 14 13 13 12 11 11 10 10 9 9 8 9 9 8 8 9 8 8

GFSSE_850_temp_072.txt.gz
Temp
16 16 16 17 16 16 16 17 17 16 16 16 16 16 16 17 17 16 16 16 17 17 17 18 17 17 17 17 16 16 16 15 14 15 15 15 15 15 16 14 14 14 14
16 16 16 17 17 16 16 17 16 15 16 17 16 16 16 16 16 16 16 17 17 17 18 18 17 17 17 16 16 16 16 15 15 15 15 16 16 16 16 16 16 15 14
17 16 16 17 17 16 16 17 15 15 16 17 16 16 16 16 16 16 17 17 17 18 18 18 17 17 17 17 16 16 16 16 16 16 16 16 16 16 16 16 16 16 15
17 16 16 16 16 16 17 16 15 15 16 17 16 16 16 16 16 16 17 17 18 18 18 18 18 18 17 17 17 16 16 16 16 16 16 16 16 16 16 16 15 15 15
16 16 16 16 16 16 17 16 15 16 17 17 17 16 15 15 16 16 17 18 18 18 18 18 18 18 18 17 17 17 17 17 16 16 16 16 16 15 15 15 15 15 15
16 16 16 16 16 16 16 15 15 16 17 17 17 17 16 16 17 17 18 18 18 18 18 17 17 17 17 17 17 17 17 16 16 16 16 16 16 15 15 15 15 15 15
16 16 16 16 16 16 16 15 15 16 17 17 17 17 17 17 18 18 18 18 18 17 17 17 17 17 17 16 16 16 17 16 16 16 16 16 15 15 14 14 14 14 14
16 16 15 16 16 16 16 15 15 16 17 17 17 18 18 18 18 18 18 18 18 17 17 17 17 16 16 16 16 16 16 16 16 15 15 15 15 15 14 14 14 14 14
16 15 15 15 16 16 16 15 15 15 16 17 17 17 18 18 18 18 18 17 17 17 17 17 17 16 16 16 16 16 16 15 15 15 15 15 15 15 14 14 14 14 13
15 15 15 15 15 16 16 15 15 15 15 16 16 17 17 17 17 17 18 17 17 17 17 16 16 16 16 16 16 16 15 15 15 15 15 15 14 14 14 14 13 13 13
15 15 15 15 15 15 16 15 14 15 15 15 16 16 17 17 17 17 17 17 17 17 16 16 16 16 16 16 16 15 15 15 15 15 15 14 14 14 13 13 13 13 13
15 15 15 15 15 15 16 16 15 14 14 14 16 16 17 17 17 17 16 16 16 16 16 16 16 16 15 15 15 15 15 15 14 14 14 14 13 13 13 13 13 13 12
15 15 15 15 15 15 16 16 16 15 15 15 15 16 16 16 17 17 16 16 16 16 16 16 16 15 15 15 15 14 14 14 14 14 13 13 13 13 12 12 12 12 12
14 15 15 15 15 15 16 16 16 15 15 15 15 15 16 16 16 16 16 16 16 16 16 15 15 15 14 14 14 14 14 14 13 13 13 13 13 12 12 12 12 12 12
12 14 14 14 14 15 15 16 16 16 15 15 15 15 16 16 16 16 15 16 16 16 15 15 15 15 14 14 14 14 13 13 13 13 13 13 13 12 13 12 12 12 12
15 14 15 15 14 14 15 15 16 16 16 15 15 15 16 16 15 15 15 15 15 15 15 15 14 14 14 14 14 13 13 13 13 13 13 13 13 13 13 13 12 13 12
16 15 15 16 17 15 15 15 15 15 15 15 16 16 15 15 14 14 14 15 14 14 14 14 14 14 14 13 13 13 13 13 13 13 13 12 12 13 12 12 12 12 12
15 14 16 16 16 16 16 15 14 15 15 15 14 14 15 14 14 14 14 14 14 14 14 14 13 13 13 13 13 13 13 13 13 13 13 12 12 12 12 12 12 12 12
16 17 16 16 16 16 14 14 14 14 14 14 15 16 14 14 14 14 14 14 14 14 13 13 13 13 13 13 13 13 12 13 13 12 12 12 12 12 12 12 12 11 11
16 16 17 15 15 15 13 13 13 14 14 14 14 14 14 15 14 14 13 13 13 13 13 13 13 13 13 13 13 13 12 13 12 13 12 12 12 12 12 11 11 11 11
16 16 16 15 16 15 16 14 14 14 14 15 14 14 15 14 14 14 14 13 13 13 13 13 13 13 13 12 12 12 12 12 13 13 13 13 12 12 12 11 11 11 11
16 15 15 14 14 15 15 15 15 16 16 16 15 14 14 14 14 14 13 13 13 13 13 13 13 13 13 12 12 12 11 12 13 12 12 12 12 12 11 11 11 11 11
16 15 15 15 15 14 14 14 14 15 15 15 14 14 14 15 14 14 14 13 14 14 13 13 13 13 13 12 12 11 11 11 11 11 11 11 11 11 11 11 11 11 10
16 16 16 15 15 15 14 13 12 13 13 13 13 13 14 14 14 14 14 14 13 13 13 13 13 12 12 12 11 11 12 11 10 10 10 10 10 10 10 10 10 10 9
16 16 16 16 16 15 15 15 15 14 14 14 14 14 13 13 13 14 14 14 13 12 12 12 12 13 13 12 13 12 12 11 10 9 9 10 9 9 9 9 9 9 9
16 16 16 16 16 16 15 15 15 15 15 15 14 14 14 13 14 13 13 13 13 13 13 12 12 12 13 13 13 12 11 11 10 9 8 9 8 8 8 8 8 8 8

GFSSE_850_temp_075.txt.gz
Temp
16 16 16 16 16 16 16 17 17 16 17 16 17 16 16 16 16 16 16 16 17 17 18 18 17 17 17 17 16 16 16 16 16 16 16 16 16 15 15 15 14 14 14
17 17 16 16 17 17 16 17 16 16 16 16 16 16 16 17 16 16 16 16 17 18 18 18 17 17 17 17 16 16 16 16 16 16 16 16 16 16 16 16 15 15 14
17 16 16 17 17 17 17 17 15 16 16 16 16 16 16 16 16 16 16 17 18 18 18 17 17 17 17 17 16 16 16 16 16 16 16 16 16 16 16 16 16 15 15
17 16 16 16 16 16 16 16 16 16 16 16 16 16 16 16 16 17 17 18 18 18 18 17 17 17 17 17 17 17 16 16 16 16 16 16 16 15 15 16 16 15 15
16 16 16 16 16 16 16 16 15 16 17 16 16 16 16 16 16 17 17 18 18 18 17 17 17 17 17 16 16 16 16 16 16 16 15 15 15 15 15 15 15 15 15
16 16 16 16 16 16 16 15 15 16 17 16 16 15 15 15 16 17 18 18 18 18 17 17 17 17 16 16 16 16 16 16 16 16 15 15 15 15 14 14 14 15 15
15 15 15 16 16 16 15 15 15 16 17 17 15 15 15 16 17 18 18 18 18 18 17 17 17 17 16 16 16 16 16 16 16 15 15 15 15 14 14 14 14 14 14
16 15 15 15 16 16 15 15 15 16 17 17 16 16 16 17 18 18 18 18 17 17 17 17 17 17 16 16 16 16 16 15 15 15 15 15 15 14 14 14 14 14 14
16 15 15 15 15 16 15 15 15 16 16 16 17 17 16 17 18 17 17 17 17 17 16 17 16 16 16 16 16 16 16 15 15 15 15 15 14 14 14 14 14 14 14
15 15 15 15 15 16 16 15 15 15 16 16 17 17 16 17 17 17 17 17 17 16 16 16 16 16 16 15 15 15 15 15 15 15 14 14 14 14 14 14 13 13 13
14 15 15 15 15 15 15 15 15 15 15 16 16 16 16 16 17 17 17 17 16 16 16 16 16 16 15 15 15 15 15 15 15 14 14 14 13 13 13 13 13 13 13
14 14 15 15 15 15 15 15 15 14 14 15 16 16 16 16 16 16 16 16 16 16 16 16 16 16 15 15 15 15 15 14 14 14 14 13 13 13 13 13 13 13 12
14 14 14 15 15 15 15 15 15 14 14 14 15 16 16 16 16 16 16 16 16 16 16 16 16 15 15 15 15 14 14 14 14 14 13 13 13 12 12 12 12 12 12
13 14 15 15 15 15 15 16 15 15 14 14 15 15 15 16 16 16 16 16 16 16 15 15 15 15 15 14 14 14 14 14 14 13 13 13 13 12 12 13 13 12 12
13 13 14 15 15 15 15 15 15 15 15 15 15 15 15 15 15 15 15 15 15 15 15 15 14 14 14 14 14 14 14 13 13 13 13 13 13 13 13 13 13 13 12
14 12 12 13 14 15 15 15 16 15 15 15 15 15 15 15 15 15 15 15 15 15 15 14 14 14 14 13 13 13 13 13 13 13 13 13 13 13 13 13 12 13 12
13 11 13 13 13 14 16 15 15 15 15 15 14 14 14 15 15 15 14 14 14 14 14 14 14 14 13 13 13 13 13 13 13 13 12 13 12 12 12 12 12 12 12
14 13 14 13 12 14 14 15 15 15 15 14 14 14 14 14 14 14 14 14 14 13 14 14 13 13 13 13 13 13 12 12 12 12 12 12 12 12 12 12 12 12 12
14 14 14 15 14 13 14 15 14 15 15 14 14 14 14 13 14 14 14 13 13 13 13 13 13 13 13 12 13 12 12 12 12 12 12 12 12 12 12 12 12 12 11
13 14 14 14 15 14 15 15 14 14 15 15 15 14 14 14 14 14 14 13 13 13 13 13 13 13 13 13 12 12 12 12 12 12 13 13 13 13 12 12 11 11 11
13 14 15 14 14 14 15 14 13 14 15 15 15 14 14 14 14 14 14 13 13 13 13 13 13 13 13 13 13 12 12 12 13 13 13 13 13 13 12 12 11 11 11
13 14 15 14 13 13 14 14 15 15 15 14 14 14 15 14 13 14 14 14 13 13 13 13 13 13 13 13 12 12 12 12 13 12 12 12 12 12 12 11 11 11 11
14 15 14 14 15 15 14 13 13 13 12 12 13 12 14 13 13 13 14 14 14 13 13 13 13 13 13 13 12 12 12 11 11 12 11 11 11 11 11 11 10 10 10
15 15 16 14 14 14 14 13 13 13 11 11 12 12 13 12 13 14 14 13 14 14 13 13 12 12 13 12 12 12 11 11 10 10 11 10 10 10 10 10 10 9 10
15 16 16 16 15 14 13 13 13 12 12 12 12 13 13 13 13 13 12 12 13 13 13 12 12 12 12 11 12 13 13 12 12 10 9 10 9 9 9 9 9 9 9
15 16 16 16 15 15 14 14 14 13 13 12 13 13 13 13 13 13 13 12 12 12 12 11 11 12 12 11 11 13 13 12 11 10 9 10 9 9 8 8 8 8 8

GFSSE_850_temp_078.txt.gz
Temp
16 15 16 16 16 17 17 17 17 17 17 17 17 16 16 17 16 16 16 16 17 18 18 17 17 17 16 16 16 16 16 16 17 17 17 16 16 15 15 15 13 13 14
16 15 16 16 17 16 16 17 17 16 16 17 17 16 16 16 16 16 16 16 17 18 18 15 16 17 17 16 16 16 16 16 16 16 16 16 16 16 16 15 15 15 14
16 16 16 16 17 17 16 17 16 17 16 16 16 16 16 16 16 16 16 16 18 18 17 17 17 17 17 16 16 16 16 16 16 16 15 14 16 16 16 16 16 16 15
16 16 15 16 17 17 16 17 16 16 16 16 16 16 16 16 16 16 16 17 17 17 17 17 17 17 16 16 16 16 16 16 16 16 13 13 15 15 15 15 15 15 16
16 16 16 16 16 16 16 16 16 16 16 16 16 16 16 15 16 16 17 18 17 17 17 17 17 17 17 16 16 16 16 16 16 15 15 13 13 15 15 15 15 15 15
15 16 16 16 16 16 16 16 16 16 16 16 15 15 16 15 16 17 18 18 17 17 17 17 17 17 17 16 16 16 16 16 16 14 13 14 12 14 15 15 15 15 15
15 15 16 16 16 16 16 15 16 16 16 15 15 15 15 16 17 17 18 17 17 17 17 17 16 16 16 16 16 16 16 16 14 14 12 12 14 14 14 14 14 14 14
15 15 14 15 16 16 15 15 15 16 16 15 15 15 15 15 17 18 17 17 17 17 16 16 16 16 16 16 16 16 15 15 15 15 14 12 15 14 14 14 14 14 14
15 14 14 15 15 15 15 15 15 16 16 15 15 14 14 15 17 17 17 17 17 16 16 16 16 16 16 16 16 16 15 15 13 14 13 13 14 14 14 14 13 13 13
14 15 14 14 14 15 15 15 15 16 16 16 14 14 14 16 17 17 17 17 17 17 16 16 16 16 16 16 16 15 15 15 14 15 14 14 14 14 13 13 13 13 13
13 14 14 14 14 14 15 15 15 15 15 16 16 14 15 15 16 16 16 16 16 16 16 16 16 16 16 16 16 15 15 15 14 14 14 14 13 13 13 13 13 13 13
14 14 14 14 14 14 14 15 14 14 14 14 14 14 12 12 13 13 16 16 16 16 16 16 16 15 15 15 15 15 14 14 14 14 13 13 13 13 13 13 13 12 12
11 11 14 14 13 13 14 14 15 14 13 13 13 14 12 13 16 16 15 15 15 15 15 15 15 15 15 15 15 14 14 14 13 14 14 13 13 13 13 13 13 12 12
12 12 14 14 14 15 15 14 15 15 14 14 15 15 16 16 16 16 16 16 16 15 15 15 14 15 15 15 14 13 13 13 13 13 13 13 13 13 13 13 13 12 12
11 11 13 14 14 15 15 15 15 14 15 14 14 15 15 16 16 16 16 15 15 15 15 15 15 14 14 13 13 13 13 13 13 13 13 13 13 13 13 13 13 13 13
14 13 13 14 14 14 15 15 15 15 15 14 13 15 15 15 15 15 15 15 15 15 15 14 13 12 13 13 13 13 13 13 13 13 13 13 13 13 12 12 12 12 12
13 13 13 12 13 14 14 14 15 15 15 14 14 14 14 14 14 14 13 14 14 14 14 14 13 13 12 12 13 13 13 13 13 13 13 12 12 12 12 12 12 12 12
15 14 13 13 13 13 13 14 14 15 15 15 15 14 14 13 14 14 13 14 14 14 14 14 13 12 12 13 13 13 13 13 13 13 13 12 12 12 12 12 12 12 12
13 11 12 13 13 13 14 14 14 14 14 14 14 15 15 15 14 14 13 14 13 14 14 14 13 12 13 13 13 13 13 13 13 13 13 12 12 12 11 11 12 12 11
13 12 13 12 12 13 13 14 14 14 14 14 14 14 15 14 14 14 14 13 13 13 13 13 13 12 13 13 13 13 12 13 13 12 12 13 13 13 13 12 12 11 11
13 13 13 13 14 14 14 13 14 13 14 14 15 14 14 14 14 14 14 13 13 13 13 13 13 12 12 13 13 13 13 13 12 13 14 13 13 13 12 12 10 11 11
12 12 12 13 12 12 13 13 13 13 13 13 13 13 13 13 14 14 14 14 13 13 13 13 12 13 13 13 13 13 13 13 12 13 13 13 12 12 12 12 11 11 11
11 11 12 11 12 12 13 13 14 13 13 14 12 12 12 12 13 13 13 12 13 12 13 13 13 13 13 13 13 13 13 14 12 12 12 12 12 11 11 11 11 10 10
12 12 12 12 12 12 13 13 13 13 13 13 12 13 12 12 11 12 13 13 12 12 12 12 12 13 12 12 12 12 12 11 11 13 11 11 11 10 10 10 10 10 10
13 13 12 13 13 13 12 12 12 12 12 12 12 12 11 11 12 12 13 13 12 12 12 12 12 12 11 12 12 12 11 12 12 10 11 11 9 10 10 10 9 9 9
14 14 14 14 14 13 14 13 13 13 12 12 12 11 12 12 12 12 12 11 11 11 12 12 11 11 11 11 11 11 12 11 10 11 9 10 9 9 8 9 8 8 8

GFSSE_850_temp_081.txt.gz
Temp
18 16 16 17 17 17 17 17 17 17 17 17 17 17 16 17 17 16 16 16 17 18 18 17 16 15 14 15 16 17 17 17 17 16 16 16 16 15 15 14 14 14 14
18 16 16 17 17 17 17 17 17 17 17 17 16 16 16 17 16 17 16 16 18 18 16 17 16 16 15 16 17 17 17 17 17 16 16 16 16 16 16 15 15 15 15
18 16 16 16 17 17 17 17 17 17 16 17 16 16 16 16 16 16 16 17 18 15 14 14 16 16 16 16 16 17 17 17 16 16 15 16 16 16 16 16 16 16 15
19 17 15 16 16 17 17 17 17 16 16 16 16 16 16 16 16 16 16 17 17 15 14 17 16 16 16 16 16 16 16 16 16 14 14 13 15 15 15 15 15 15 16
18 17 16 16 16 17 17 17 16 16 16 16 16 16 16 16 16 16 16 17 16 14 17 16 16 16 16 16 16 16 16 16 15 14 13 13 13 15 15 15 15 15 15
16 16 16 16 16 16 17 17 16 16 16 16 16 16 16 16 16 16 17 17 17 17 16 16 16 16 16 16 16 16 16 15 14 13 13 13 14 15 15 15 15 15 15
16 16 16 16 16 16 17 16 16 16 16 15 16 15 15 15 16 16 17 17 17 17 16 16 16 16 16 16 16 16 16 15 13 13 13 12 14 14 14 14 14 14 14
16 16 15 16 16 16 16 16 16 16 15 15 15 15 15 15 16 17 17 17 17 17 16 16 16 16 16 16 16 16 16 16 13 13 13 14 15 14 14 14 14 14 14
15 15 15 15 15 15 15 15 15 16 16 15 15 15 15 14 16 17 17 16 16 16 16 16 16 16 16 16 16 16 16 15 13 13 13 13 15 14 14 14 14 13 13
14 15 15 14 14 14 15 15 15 16 16 15 15 15 14 14 16 17 17 16 16 16 16 16 16 16 16 16 16 16 16 15 13 15 13 14 14 14 14 13 13 13 13
13 14 15 15 14 14 14 14 15 15 16 15 14 14 14 15 16 17 16 16 16 16 16 16 16 16 16 16 16 16 15 14 13 13 13 14 14 14 13 13 13 13 13
12 13 13 13 14 14 15 14 14 15 15 15 14 14 14 13 13 13 16 16 16 16 16 16 16 16 15 15 15 15 15 14 14 13 13 14 13 13 13 13 13 13 12
12 13 12 13 13 15 15 14 13 14 13 13 13 14 13 13 13 13 15 15 15 15 15 16 16 15 15 14 14 14 14 14 14 13 13 13 13 13 13 13 13 13 12
12 13 14 13 12 14 15 14 14 14 14 13 13 13 13 13 13 13 13 14 14 15 14 15 15 14 13 13 14 14 14 14 14 14 13 13 13 13 13 13 12 13 12
14 13 12 14 13 13 14 14 14 14 14 13 13 13 13 12 13 13 13 13 14 14 13 13 13 14 13 14 14 14 14 14 14 14 14 13 13 13 13 13 12 12 12
15 14 14 13 12 13 14 14 14 14 14 13 12 13 13 13 14 13 13 13 14 14 14 13 13 14 14 14 14 14 14 14 14 14 14 14 13 13 13 13 12 12 12
14 13 14 14 12 12 13 13 14 14 14 14 13 13 13 13 14 15 14 15 15 13 13 13 14 14 14 14 14 14 14 14 14 14 14 14 13 13 13 12 12 12 12
13 14 14 15 13 12 14 14 13 13 13 14 14 14 14 14 15 15 14 13 13 13 13 13 13 13 13 13 14 14 14 14 14 14 14 14 13 13 12 12 12 12 12
14 13 12 12 12 13 13 13 14 14 14 13 14 14 14 14 14 14 14 13 13 13 12 13 13 13 13 13 14 15 14 14 14 14 14 13 13 12 12 12 12 12 12
13 12 12 13 12 13 13 13 13 14 14 14 14 13 14 14 13 14 14 13 13 12 13 12 13 13 13 14 14 14 13 14 14 14 13 13 12 13 13 13 11 12 12
11 10 11 11 12 13 13 13 13 13 14 13 14 14 13 13 13 13 13 13 13 13 12 12 13 13 13 13 13 13 13 13 14 14 13 12 12 14 13 12 11 11 11
11 11 11 11 11 12 13 12 13 13 13 13 13 13 13 13 13 13 13 13 13 13 13 12 13 13 13 13 13 13 13 14 14 13 12 13 13 13 13 13 12 10 10
11 11 10 10 11 12 11 11 12 12 12 12 12 12 12 12 12 12 12 13 13 12 12 12 12 12 13 13 13 13 14 14 14 13 12 13 13 12 12 12 12 11 10
11 11 11 11 11 13 11 11 11 11 11 12 12 12 12 12 12 12 13 12 12 13 13 14 13 12 12 12 13 13 13 13 13 13 12 12 12 11 10 10 11 11 10
10 11 11 11 11 11 12 13 12 12 13 11 11 11 12 12 12 13 13 11 12 13 14 12 13 12 12 11 11 12 12 12 12 12 11 12 10 11 9 9 9 10 10
10 11 11 11 11 11 11 12 12 12 12 11 11 12 12 13 13 12 14 14 11 12 13 13 13 11 11 11 11 10 10 11 11 11 10 11 11 10 9 10 9 8 8

GFSSE_850_temp_084.txt.gz
Temp
18 19 18 18 18 18 18 18 17 17 17 17 16 16 17 17 17 17 16 17 18 18 17 15 15 15 15 17 17 17 17 17 16 16 16 16 16 15 14 14 14 15 14
18 18 18 18 18 18 18 17 17 17 17 17 16 16 17 17 16 16 16 16 17 17 17 14 15 15 16 17 17 17 17 17 16 16 16 16 15 15 15 15 15 15 15
19 18 17 17 17 17 17 17 17 18 17 17 16 16 16 16 16 16 16 17 17 16 15 14 14 14 16 17 17 17 16 16 15 15 15 16 16 16 16 16 16 15 15
18 18 17 17 17 17 17 17 17 17 17 17 16 16 16 16 16 16 16 17 14 13 15 16 16 16 16 16 16 17 16 15 14 13 13 15 15 15 15 15 15 15 16
17 18 17 16 16 17 16 17 17 16 16 16 16 16 16 16 16 16 16 16 14 13 17 17 16 16 16 17 17 16 16 15 14 13 13 14 15 15 15 15 15 15 15
17 17 18 16 16 16 16 17 16 16 16 16 15 16 16 16 16 16 16 16 14 17 17 16 16 16 16 16 16 16 16 14 14 14 14 14 15 15 15 15 15 15 15
16 16 17 16 16 16 16 17 16 16 16 16 16 16 16 15 15 16 17 16 17 17 16 16 16 16 16 16 16 16 15 14 13 13 13 15 15 15 15 15 15 14 14
17 16 17 16 16 16 16 16 16 16 16 16 16 16 15 15 15 16 17 17 17 17 16 16 16 16 16 16 16 16 15 14 13 13 14 14 15 15 14 14 14 14 14
17 16 15 16 15 15 15 15 15 16 16 15 15 15 15 14 15 15 15 17 16 16 16 16 16 16 16 16 16 16 15 14 14 14 13 14 14 14 14 14 14 13 13
18 15 15 15 15 15 15 15 14 16 16 15 15 15 15 15 16 16 16 16 16 16 16 16 16 16 16 16 16 16 15 14 14 14 13 14 14 14 14 14 13 13 13
18 15 13 11 13 13 15 15 14 15 16 14 15 15 14 14 16 16 16 16 16 16 16 16 16 16 16 16 16 16 15 14 14 13 14 14 14 14 13 13 13 13 13
16 17 14 12 13 11 11 15 14 14 16 14 14 14 14 14 15 16 15 16 16 16 16 16 16 16 16 16 15 15 15 14 14 13 13 14 14 13 13 13 12 12 12
15 15 14 11 11 11 12 13 14 14 15 15 14 14 13 14 14 15 15 16 16 16 16 16 16 16 15 16 15 15 14 14 14 13 14 13 13 13 13 13 12 13 12
16 14 13 14 13 13 12 11 13 14 15 14 14 14 13 13 13 13 14 16 16 16 16 16 15 15 15 14 14 14 14 14 14 14 13 13 13 13 13 12 12 13 13
15 14 14 13 14 14 11 13 13 14 14 13 13 14 13 13 13 13 14 15 16 15 15 15 15 15 14 14 14 14 14 14 14 14 14 13 13 13 13 13 12 12 12
14 14 13 11 12 15 14 13 13 13 13 13 13 13 13 13 13 13 13 14 15 15 15 14 14 14 14 14 14 13 14 14 14 14 14 14 13 13 13 13 13 13 12
13 13 13 11 12 14 15 13 13 14 14 13 13 13 13 13 14 14 13 14 15 15 15 15 14 14 14 14 14 14 14 14 14 14 14 14 13 13 13 12 12 12 12
12 12 12 13 12 12 14 12 13 14 14 14 14 13 12 13 14 14 15 15 15 15 14 14 14 14 14 13 14 14 14 14 14 14 14 14 14 13 13 12 12 12 12
12 13 12 12 12 13 15 12 12 13 13 13 13 13 13 14 14 14 14 13 13 13 13 13 13 13 13 13 13 14 14 15 14 14 14 14 13 13 13 13 12 12 12
11 12 12 11 12 12 13 13 12 14 14 14 14 14 13 14 14 13 13 13 13 13 13 13 13 13 13 13 13 14 15 14 14 14 14 14 13 13 13 13 13 13 13
11 11 11 11 12 11 11 12 13 14 14 13 14 14 13 13 13 13 13 13 13 13 13 13 12 13 13 13 13 14 14 14 14 14 14 13 13 13 13 13 13 12 12
11 10 11 11 12 12 11 12 12 13 13 13 13 13 13 13 13 13 13 13 13 13 13 13 12 12 12 13 13 13 13 14 14 13 14 13 13 13 13 13 12 11 12
10 10 10 10 10 10 11 11 11 12 12 12 12 12 13 13 13 13 13 13 13 13 14 13 12 12 12 12 13 13 13 13 14 13 14 14 13 13 13 12 11 11 11
9 10 10 10 10 10 11 11 11 11 12 12 11 12 12 12 12 13 13 13 13 14 14 13 13 13 12 12 13 12 12 13 13 12 12 12 12 13 12 12 12 12 10
9 10 10 10 10 11 11 11 12 12 11 11 12 12 11 11 12 13 14 14 14 14 14 15 13 13 12 12 12 12 12 11 11 12 12 11 11 11 11 11 11 11 10
9 10 10 10 10 11 12 11 10 11 12 12 12 11 12 10 12 12 12 12 13 12 14 13 13 12 12 11 12 12 11 11 11 10 10 10 9 10 10 10 10 9 9

GFSSE_850_temp_087.txt.gz
Temp
18 19 19 19 18 18 18 18 17 17 17 17 17 17 17 17 17 16 17 17 17 16 16 15 15 15 17 17 16 16 16 15 15 15 15 16 15 14 14 14 15 14 14
18 18 19 19 18 18 18 17 17 17 17 17 17 17 17 17 17 16 17 17 17 16 15 15 15 16 17 17 17 17 16 16 16 16 16 16 16 15 15 15 16 16 15
18 18 18 18 18 18 17 17 17 17 17 16 16 17 17 16 16 16 16 17 17 16 14 15 15 16 17 17 16 16 16 16 16 16 16 16 16 16 16 16 16 16 15
18 18 18 18 18 17 17 17 17 17 17 16 16 16 17 16 16 16 16 17 17 15 14 15 16 16 17 17 16 15 15 14 15 15 15 15 16 16 15 15 15 15 15
17 17 18 17 17 17 17 17 17 17 17 16 16 16 16 16 16 16 16 15 14 15 15 17 17 16 16 16 16 15 14 13 14 15 15 15 15 15 15 15 15 15 15
17 17 17 18 17 17 16 17 17 16 16 16 16 16 16 16 15 16 16 14 13 16 17 17 17 16 16 16 16 15 14 14 13 14 15 15 15 15 15 15 15 14 14
16 17 17 17 17 16 16 16 16 16 16 16 16 16 16 16 15 14 15 13 13 17 17 16 17 16 16 16 16 15 14 14 14 14 14 15 15 15 15 14 14 14 14
17 16 16 16 16 16 16 16 16 16 15 16 15 15 15 15 14 14 15 13 17 16 16 16 16 16 16 16 16 15 15 14 14 14 14 15 15 15 14 14 14 14 14
17 16 15 15 14 14 15 15 15 16 15 16 15 15 15 15 14 15 15 14 15 16 17 17 16 16 16 16 16 15 15 14 14 14 14 14 14 14 14 14 14 14 13
17 16 15 15 14 13 13 13 14 15 15 15 15 15 15 14 14 15 15 14 15 16 16 17 16 16 16 16 16 15 15 14 14 14 14 14 14 14 14 14 13 13 13
17 17 16 14 14 14 14 13 13 14 16 15 15 15 14 14 14 14 14 14 16 16 16 16 16 16 16 16 16 15 15 15 14 14 14 14 14 14 14 13 13 13 13
18 17 17 16 15 14 13 13 12 13 14 15 14 14 15 14 15 14 15 15 15 15 16 16 16 16 16 16 15 15 15 14 14 14 14 14 14 13 13 13 13 13 12
16 16 17 16 16 16 13 11 12 12 12 14 14 14 14 14 15 16 16 16 16 15 16 16 16 16 16 16 15 15 14 14 14 14 14 14 13 13 13 13 12 12 13
15 15 14 14 14 13 13 12 12 12 12 13 13 14 14 14 15 16 16 16 16 16 16 16 16 16 15 15 15 14 14 14 14 13 13 13 13 13 13 13 13 12 12
16 15 13 13 13 13 15 13 13 12 12 12 13 14 13 14 15 15 16 16 16 15 16 16 16 16 15 15 15 14 14 14 14 13 13 13 13 13 13 13 13 13 12
15 14 13 13 12 12 12 14 13 13 12 12 13 13 13 14 15 14 15 16 16 15 16 16 16 15 15 15 14 14 14 13 14 14 14 14 13 13 13 13 12 12 12
15 13 13 13 13 12 11 12 14 13 12 13 14 13 13 13 13 14 14 15 15 15 15 16 15 14 14 14 14 13 14 14 14 14 14 14 14 13 13 13 13 12 12
15 14 13 13 13 12 12 12 15 12 12 13 13 13 13 13 13 13 14 15 15 15 15 14 14 14 14 14 14 14 14 14 15 15 14 14 14 13 13 13 12 12 12
14 14 13 13 13 12 12 12 15 12 12 12 13 13 13 13 13 13 14 14 14 14 14 14 14 14 13 13 13 13 14 14 14 14 14 14 14 13 13 13 13 13 13
13 14 11 12 12 11 11 12 15 13 12 12 13 13 13 13 14 13 13 13 13 13 13 13 13 14 14 13 13 13 14 14 14 14 14 14 13 13 13 13 13 13 13
13 13 13 11 11 11 11 11 11 13 12 12 12 13 13 13 13 13 13 13 13 13 13 13 13 13 13 13 13 13 13 14 14 14 14 14 14 13 13 14 13 13 13
12 12 12 12 11 10 11 11 11 12 12 12 12 12 13 13 13 13 13 13 13 13 13 13 13 13 13 13 13 13 13 13 14 14 14 13 13 13 13 13 13 13 13
10 11 10 12 10 10 11 11 11 12 12 11 12 12 11 12 13 14 14 14 14 14 14 14 13 13 13 13 13 13 12 13 13 14 14 13 13 13 13 13 13 13 12
10 10 11 10 11 10 10 11 11 11 12 12 11 11 12 12 12 12 12 13 14 14 14 14 14 13 13 14 13 13 12 13 12 11 12 12 12 13 13 12 12 12 11
11 10 10 10 10 10 10 10 10 11 11 12 11 11 11 11 12 12 12 12 12 13 13 13 13 14 14 14 14 14 13 12 11 11 10 10 11 11 11 10 10 10 10
9 10 9 9 10 10 10 10 10 10 10 11 11 11 12 12 11 12 12 13 13 12 13 13 12 12 12 12 13 13 13 13 12 11 10 10 10 10 10 10 10 10 10

GFSSE_850_temp_090.txt.gz
Temp
18 18 18 18 18 18 18 18 18 17 17 17 17 17 17 17 17 17 17 17 17 17 16 15 16 15 16 16 16 15 15 15 15 16 15 15 14 15 15 15 16 15 14
18 18 17 18 18 18 18 18 17 17 17 17 17 17 17 17 17 16 17 17 16 16 15 15 16 17 17 16 16 16 16 16 16 16 16 15 15 15 15 16 16 15 15
18 18 18 18 18 18 18 17 17 17 17 17 17 17 17 17 17 16 17 17 16 16 15 15 16 17 17 16 16 16 16 16 16 15 16 16 16 16 16 16 15 15 15
18 18 18 18 17 17 17 17 17 17 16 16 16 16 17 16 16 16 17 17 16 15 15 15 16 17 17 16 16 15 16 15 16 15 15 16 16 16 15 15 15 15 15
17 18 18 18 17 17 17 17 17 17 17 16 16 16 16 16 16 16 16 17 16 14 14 15 16 16 16 16 15 15 15 15 15 15 15 15 15 15 15 15 15 15 15
17 17 17 17 17 17 17 17 16 17 17 17 16 16 16 16 15 16 16 15 14 14 14 16 16 16 16 16 15 15 15 15 15 15 15 15 15 15 15 15 15 15 14
17 17 16 16 16 16 16 16 16 16 16 16 16 16 16 16 15 15 15 14 13 14 16 14 16 16 16 15 15 14 15 15 15 14 15 15 15 15 15 15 14 14 14
18 17 15 15 15 16 15 15 16 16 15 15 16 16 15 16 15 15 14 13 15 16 16 16 16 16 16 15 15 15 15 15 14 14 15 15 15 15 14 14 14 14 14
17 17 15 15 14 15 15 14 14 15 15 15 16 15 15 15 15 14 13 13 15 16 16 16 16 16 16 16 15 15 15 15 15 14 14 14 14 14 14 14 14 14 13
17 17 17 15 15 14 14 14 14 14 14 15 15 15 15 15 14 14 13 13 13 13 14 16 16 16 16 15 15 15 14 15 15 14 14 14 14 14 14 14 13 13 13
17 17 16 16 15 15 13 14 14 13 14 14 14 15 15 14 14 14 14 13 13 13 15 16 16 16 16 16 15 15 15 15 15 14 14 14 14 13 13 13 13 13 13
17 17 17 16 16 14 14 14 14 13 13 14 13 14 14 15 14 14 14 14 14 16 16 15 16 16 16 15 15 15 15 14 15 14 14 14 13 13 13 13 13 13 12
17 16 16 16 15 15 15 14 14 14 13 13 13 13 14 14 14 14 14 13 15 16 16 15 15 16 16 16 15 15 14 14 14 14 14 14 13 13 13 13 13 13 12
16 16 16 16 15 15 15 15 15 16 15 15 15 13 13 13 14 14 14 15 16 16 16 16 16 16 16 16 15 15 14 14 14 14 13 13 13 13 13 13 13 13 13
15 15 15 15 15 14 15 16 15 15 16 15 15 14 12 13 14 13 14 16 16 16 16 16 16 16 16 15 15 15 14 14 14 14 13 13 13 13 13 13 13 13 13
16 16 15 15 14 14 15 15 13 10 14 14 15 16 13 12 13 14 13 15 16 16 16 16 16 15 15 15 15 15 14 14 13 13 13 14 13 13 13 13 13 12 12
16 15 15 14 14 14 14 13 12 11 12 13 15 15 15 13 13 13 15 15 15 15 15 15 15 15 15 14 14 14 14 14 13 13 14 14 14 13 13 13 13 12 12
15 16 16 15 14 14 14 13 12 12 11 14 14 15 14 13 13 12 14 14 15 15 15 15 15 14 14 14 14 14 14 14 14 14 14 14 14 14 13 13 13 12 12
15 15 15 15 15 14 12 12 11 12 12 15 12 12 14 13 13 13 12 14 15 15 15 15 15 14 14 14 14 14 13 13 14 14 14 14 14 14 13 13 13 13 13
15 14 14 14 14 13 12 12 12 12 12 14 13 12 13 13 13 13 12 13 14 14 14 14 14 14 14 14 13 13 13 13 14 14 14 14 14 14 14 13 13 13 14
14 13 13 13 13 13 12 12 11 12 12 13 14 12 12 13 13 13 13 13 13 14 14 14 14 14 14 13 13 13 13 13 13 14 14 14 14 14 14 13 13 14 14
12 12 12 12 11 11 13 12 11 12 12 11 13 12 11 12 13 13 12 13 13 13 13 13 13 13 13 13 13 13 13 13 13 13 14 14 14 14 14 13 13 14 13
11 10 11 11 10 10 12 12 11 11 11 12 12 11 11 11 12 13 13 13 13 13 13 13 13 13 13 13 13 13 12 13 13 14 13 14 13 13 13 13 13 13 13
10 9 10 10 10 10 11 12 10 10 11 11 12 11 11 11 11 12 13 13 12 13 13 14 14 14 14 14 14 13 13 14 13 13 14 13 12 12 11 12 13 12 12
9 9 10 10 10 11 11 10 10 10 11 11 11 11 10 11 11 11 11 11 11 11 12 12 12 13 13 13 13 13 13 13 13 13 13 13 12 12 10 10 11 11 11
9 9 9 9 10 10 10 10 10 10 10 10 11 11 10 10 11 11 11 11 10 11 11 12 12 12 12 12 12 12 12 12 13 12 11 12 13 12 13 11 10 10 10

GFSSE_850_temp_093.txt.gz
Temp
18 17 16 17 17 17 18 17 18 17 17 18 17 17 17 17 17 16 17 17 18 17 15 15 15 15 15 15 15 15 15 16 15 15 15 15 15 15 15 15 15 14 14
18 17 16 17 17 17 17 17 17 17 17 17 17 17 17 17 17 17 17 18 17 16 16 15 16 15 16 16 16 16 16 16 16 16 15 15 15 16 16 16 16 15 15
18 18 17 17 17 17 17 17 17 17 17 17 17 17 16 17 16 16 16 17 16 16 15 16 17 16 16 16 16 16 16 16 16 16 16 16 16 15 15 16 15 15 15
18 18 18 18 17 17 17 16 17 17 17 17 17 17 17 17 17 16 16 17 16 16 15 16 16 16 16 16 16 16 16 15 15 16 16 16 16 15 15 15 15 15 15
18 18 18 18 17 17 17 17 17 16 16 16 16 17 16 16 16 16 16 16 15 15 15 16 16 16 16 16 16 15 15 15 15 15 15 15 15 15 15 15 15 15 15
17 17 17 17 17 17 17 17 17 16 16 16 16 16 16 16 15 16 16 16 15 14 15 16 16 16 16 16 16 16 15 15 15 15 15 15 15 15 15 15 14 14 14
18 17 17 17 17 16 16 16 16 16 16 16 16 16 16 16 15 14 16 16 16 13 14 16 16 16 16 16 16 16 15 15 15 15 15 15 15 15 15 14 14 14 14
16 16 16 15 16 16 16 15 16 16 16 16 16 16 16 15 15 15 15 15 13 13 14 16 16 16 16 15 16 15 15 15 15 15 15 14 14 14 14 14 14 14 14
16 16 15 15 15 15 15 15 15 15 15 15 15 15 15 15 15 15 15 14 13 13 14 15 16 16 16 16 15 15 15 15 15 14 15 14 14 14 14 14 13 13 13
16 16 15 16 15 14 15 15 15 15 14 15 15 15 15 15 15 14 14 13 13 15 14 14 16 16 16 16 15 15 15 15 15 14 14 14 14 14 14 13 13 13 13
17 17 16 16 16 16 14 15 15 15 15 14 15 15 14 14 14 14 14 14 16 14 15 15 16 15 15 15 15 15 15 15 15 14 14 14 14 13 13 13 13 13 12
17 17 17 17 16 16 16 14 15 15 15 15 14 14 14 14 14 14 13 13 15 13 14 14 15 15 15 15 15 15 15 15 15 14 14 14 14 13 13 13 13 12 12
15 16 16 16 16 16 16 15 15 14 14 14 14 14 13 13 14 14 14 14 13 13 13 14 15 16 15 15 15 15 15 15 14 14 14 13 13 13 13 13 13 12 12
16 15 15 15 15 15 15 15 15 15 15 15 16 16 15 14 13 13 14 14 13 12 13 15 15 16 15 15 15 15 15 14 14 14 13 13 13 13 13 13 13 12 12
15 16 16 15 15 15 14 15 15 16 16 16 15 16 16 15 13 13 14 14 13 12 14 15 15 15 15 15 15 15 15 14 14 14 13 13 13 13 13 13 13 12 12
15 15 15 16 16 16 15 15 15 16 16 15 15 16 17 16 15 13 13 13 13 15 14 15 15 16 15 15 15 15 14 14 14 14 13 13 13 13 13 13 13 13 12
14 15 15 15 15 15 14 14 14 15 15 15 15 14 14 17 16 15 13 13 12 14 13 15 14 15 15 15 15 14 14 14 14 13 13 13 13 13 13 13 12 13 12
14 15 15 15 15 15 15 14 14 14 14 13 13 12 12 16 16 14 14 13 12 12 12 13 15 15 15 15 15 14 14 14 14 13 13 14 14 14 13 13 13 13 13
14 15 15 15 15 15 14 14 14 14 13 12 12 12 12 15 15 15 14 12 10 11 12 13 14 14 15 15 14 14 14 14 13 14 13 14 14 14 14 13 13 13 13
15 14 14 14 14 14 13 13 12 14 14 13 12 12 12 12 14 13 13 12 11 12 13 12 14 15 14 14 14 14 13 13 13 13 13 14 14 14 14 14 13 13 13
14 13 13 13 14 13 12 12 13 13 13 12 12 11 12 12 12 12 13 12 12 13 13 13 13 13 14 14 13 13 13 13 13 13 13 14 14 14 14 14 13 13 13
13 13 13 12 13 12 11 12 11 12 12 12 12 11 12 11 11 11 13 12 13 12 13 13 13 13 13 13 13 13 13 13 13 13 13 14 14 14 14 14 14 13 13
12 12 12 12 12 11 11 11 11 11 10 12 12 11 11 11 11 11 12 13 13 13 13 13 13 13 13 13 13 13 12 13 13 13 13 13 13 13 14 14 13 13 13
11 10 10 10 10 10 11 10 10 10 11 12 12 11 11 10 11 11 11 12 12 12 13 13 13 13 13 13 13 13 13 13 13 13 14 14 14 13 14 14 13 13 13
9 9 9 9 9 10 11 10 10 10 10 11 11 11 11 10 10 10 11 11 12 12 12 13 14 14 13 13 12 13 12 13 13 13 13 14 14 14 13 13 13 13 13
8 9 9 9 9 9 9 10 10 11 10 10 11 11 11 10 10 10 10 11 12 12 13 12 12 12 12 12 12 12 12 12 13 13 12 13 13 13 13 11 11 12 12

GFSSE_850_temp_096.txt.gz
Temp
18 18 17 17 17 17 17 17 17 17 17 17 17 17 17 17 17 16 16 17 17 16 16 15 15 15 15 15 15 15 15 15 15 15 15 14 15 15 15 15 15 14 14
17 18 17 17 17 17 17 17 17 17 17 17 17 17 17 16 17 16 16 17 17 16 15 14 15 15 15 16 15 15 15 16 15 15 15 16 16 16 16 15 16 15 15
18 17 17 17 17 17 17 17 17 17 17 17 17 17 17 17 17 16 16 17 16 16 15 15 16 17 15 16 16 16 16 16 16 16 16 16 16 15 16 15 15 15 15
17 17 17 17 17 17 17 17 16 16 16 16 16 16 17 17 17 16 16 16 16 15 16 16 17 17 17 16 16 16 16 16 16 16 15 15 16 16 15 15 15 15 15
18 18 17 17 17 17 17 17 17 16 16 16 16 16 16 16 16 16 16 16 16 15 16 16 17 17 17 16 16 16 16 16 16 15 15 15 15 15 15 15 15 15 15
18 17 17 17 17 17 17 17 17 17 16 16 16 16 16 16 15 16 16 16 15 15 15 16 16 17 16 16 16 15 15 15 15 15 15 15 15 15 15 15 14 14 14
17 17 17 16 17 17 16 16 16 16 16 16 16 16 16 16 15 14 15 16 15 15 15 16 16 16 16 16 16 16 15 15 15 15 15 15 15 15 14 14 14 14 14
17 16 16 15 16 16 16 16 16 16 16 16 16 15 16 16 15 15 15 15 14 14 14 15 16 16 16 16 16 16 15 15 15 15 15 15 14 14 14 14 14 14 13
16 16 16 16 15 15 15 15 15 15 16 16 16 16 15 15 15 15 15 15 15 13 13 15 16 16 16 16 16 15 15 15 15 15 14 14 14 14 14 14 14 13 13
16 16 16 16 16 15 15 15 15 15 15 16 15 15 15 15 15 15 15 14 13 13 13 14 15 16 16 16 16 15 15 15 14 14 14 14 14 14 13 13 13 13 13
16 16 16 16 16 16 15 15 15 15 15 16 15 15 15 14 14 14 14 14 14 14 13 13 15 15 16 16 15 15 15 15 15 14 14 14 14 13 13 13 13 12 12
15 16 16 16 16 16 16 16 15 15 15 15 15 15 16 15 14 14 14 14 14 15 13 13 13 15 15 15 15 15 15 15 14 14 14 14 13 13 13 13 13 12 12
13 14 15 15 16 16 16 16 15 15 15 15 15 15 15 15 14 13 14 13 13 13 12 13 13 15 15 15 15 15 15 15 14 14 14 14 13 13 13 13 13 12 12
13 14 15 15 16 15 15 15 15 15 15 15 15 16 16 16 16 14 13 13 13 13 14 14 14 15 15 15 15 15 15 15 14 14 14 13 13 13 13 13 13 13 13
14 14 14 15 15 15 15 15 15 15 15 15 15 15 16 16 16 16 15 13 13 13 13 13 13 14 15 15 15 15 15 15 14 14 13 13 13 13 13 13 13 13 12
13 14 14 14 14 14 15 15 15 15 15 14 15 15 15 15 14 16 16 15 14 13 13 13 12 13 14 14 15 15 15 15 14 14 14 13 13 13 13 13 13 13 12
13 13 13 13 14 14 15 15 15 15 15 15 15 15 15 15 14 13 15 15 15 13 13 13 12 13 13 14 14 15 15 15 14 14 14 13 13 13 13 13 12 13 12
13 14 14 14 14 14 14 14 14 14 14 15 15 14 15 15 14 14 12 13 15 13 13 12 13 12 13 14 14 14 14 14 14 14 13 13 13 13 13 13 13 13 13
14 14 14 14 15 14 14 14 13 13 13 13 13 13 14 14 14 13 12 12 12 14 13 12 11 12 13 13 14 14 14 14 14 14 14 13 13 13 13 13 13 13 13
13 14 14 14 14 13 13 12 12 12 13 12 13 12 12 13 13 12 12 12 11 12 12 12 11 12 12 13 13 14 14 14 14 14 14 13 13 13 13 13 13 13 13
13 14 14 14 14 13 13 13 12 13 13 12 12 12 12 12 12 12 11 11 11 12 13 14 11 11 12 12 12 12 13 13 13 13 13 13 13 13 14 14 14 14 13
13 13 14 13 13 12 12 12 11 11 12 12 12 12 12 12 12 12 11 11 12 11 11 11 11 11 12 12 12 12 12 13 13 13 13 13 13 13 14 14 14 14 14
13 13 13 12 12 12 11 11 11 11 11 11 12 12 12 12 13 11 12 11 12 11 12 11 11 12 12 13 12 12 12 12 13 14 13 13 13 14 14 14 14 13 13
11 11 11 11 11 12 11 10 10 10 10 10 12 12 11 11 12 12 11 11 11 11 11 12 11 13 12 13 12 12 12 13 13 13 14 14 13 13 14 14 14 13 13
8 8 8 9 9 9 10 10 10 10 9 10 12 10 10 11 11 12 11 10 10 10 11 11 10 12 12 12 12 12 12 12 13 13 13 13 13 14 14 14 14 13 13
7 8 8 8 9 9 9 9 9 9 10 10 10 10 10 11 11 11 10 10 10 10 10 10 10 11 13 13 12 13 12 12 12 12 13 13 12 13 14 14 14 13 13

GFSSE_850_temp_099.txt.gz
Temp
17 17 17 18 18 17 17 17 17 17 17 17 17 17 17 17 17 16 16 17 17 16 16 15 16 15 15 15 15 15 15 15 15 15 15 16 16 15 15 15 14 14 14
17 17 17 17 17 17 17 17 17 17 17 17 17 17 16 16 16 17 16 17 17 16 16 15 15 15 14 16 16 16 15 15 15 16 16 16 16 16 15 16 16 15 15
17 16 16 17 17 17 17 17 17 17 17 17 17 17 16 16 16 16 16 17 16 16 15 14 16 14 17 16 16 16 16 16 16 16 16 16 16 15 15 15 16 15 15
16 16 16 17 17 17 17 17 17 17 17 17 17 17 16 15 16 16 16 17 16 15 15 16 17 16 17 16 16 16 16 16 16 16 16 16 16 15 15 15 15 15 15
17 17 16 16 16 17 17 17 17 16 16 17 16 16 16 15 16 16 16 16 16 15 16 16 17 17 17 16 16 16 16 16 16 15 15 15 16 15 15 15 15 15 15
17 16 17 16 16 17 17 17 17 16 16 16 16 16 16 15 16 16 16 15 16 16 15 16 17 17 16 16 16 16 16 16 16 15 15 15 15 15 15 15 15 15 15
16 16 16 16 16 16 16 16 16 16 16 16 16 16 16 15 15 16 16 15 15 15 15 16 17 17 16 16 16 16 16 16 15 15 15 15 15 15 15 15 14 14 14
16 15 16 16 15 16 16 16 16 16 16 16 16 16 16 16 15 15 15 15 15 15 15 15 16 17 16 16 16 16 15 15 15 15 15 15 15 14 14 14 14 14 14
16 15 15 16 16 16 16 15 15 16 16 16 16 16 16 15 15 15 15 15 15 15 15 15 16 16 16 16 16 15 15 15 15 15 15 14 14 14 14 14 14 13 13
16 16 15 15 15 16 16 15 15 15 16 16 16 16 16 15 15 15 15 14 15 15 14 14 15 16 15 16 15 15 15 15 15 15 15 14 14 14 13 13 13 13 13
15 15 15 15 15 15 16 16 16 16 16 16 16 15 15 15 15 14 14 14 14 14 13 13 15 15 15 15 15 15 15 15 15 14 14 14 14 14 13 13 13 13 13
14 15 14 15 15 15 15 15 16 15 15 15 16 15 15 15 15 15 14 14 14 13 13 13 14 14 15 15 15 15 15 15 15 14 14 14 14 13 13 13 13 13 13
14 14 15 15 15 15 15 15 15 15 15 15 15 15 16 16 16 15 14 14 13 13 13 13 13 13 14 15 15 15 15 15 14 14 14 14 14 13 13 13 13 13 12
13 14 14 14 14 15 15 15 15 15 15 15 15 15 15 16 16 16 16 15 14 13 13 13 13 13 13 14 14 14 14 14 14 14 14 14 13 13 13 13 13 13 13
13 13 14 14 14 15 15 15 15 15 15 14 14 15 15 15 15 15 15 15 16 15 13 13 13 13 13 13 14 14 14 14 14 14 14 14 13 13 13 13 13 13 12
13 13 13 14 14 14 14 14 15 14 14 14 14 15 15 15 15 14 14 14 14 15 15 14 13 14 13 13 14 14 14 14 14 14 14 14 13 13 13 13 13 13 13
13 13 13 13 13 14 14 14 14 14 13 13 13 14 14 14 15 15 14 14 14 14 14 14 14 13 13 13 13 13 14 14 14 14 14 13 13 13 13 13 13 13 13
13 13 13 13 13 13 13 13 13 13 13 14 14 14 14 14 14 14 14 14 14 14 13 13 13 13 12 13 13 13 13 14 13 14 14 13 13 13 13 13 13 13 13
12 13 13 13 13 14 14 13 13 13 13 13 13 13 14 14 14 14 13 13 12 13 13 13 13 13 12 13 13 13 12 14 13 13 13 13 13 13 13 13 13 13 13
10 11 13 13 13 14 14 13 13 13 13 13 13 13 13 13 13 13 13 12 11 12 12 12 12 12 11 12 13 12 13 12 13 13 13 13 13 13 13 13 13 13 13
9 10 12 13 13 13 13 13 13 14 14 13 13 12 12 12 12 12 12 12 11 11 11 11 12 12 12 11 12 13 12 12 13 13 13 13 13 13 13 13 13 13 13
9 11 12 13 13 13 13 13 12 12 12 12 12 12 12 12 12 12 12 11 11 11 11 11 11 11 11 11 11 10 10 11 13 13 13 13 13 13 13 13 13 14 13
7 8 12 12 13 12 12 12 12 11 11 11 11 12 12 12 12 12 12 11 11 11 11 11 11 11 11 10 11 11 11 11 12 14 14 14 13 13 13 13 13 14 14
7 10 12 12 12 12 12 11 11 10 10 10 10 10 12 12 12 12 12 11 11 12 11 11 11 11 10 10 10 11 11 12 13 13 14 14 14 14 13 13 14 14 14
7 9 10 10 10 9 10 10 9 9 9 10 11 12 10 11 11 11 11 11 11 11 11 10 10 9 9 10 10 10 11 12 12 12 13 14 14 14 13 13 14 14 14
6 8 8 9 8 8 8 9 9 9 9 9 11 10 10 11 11 11 10 11 11 10 10 10 10 10 9 9 10 10 10 11 11 12 12 12 13 14 13 13 13 13 13

GFSSE_850_temp_102.txt.gz
Temp
16 16 16 16 17 17 18 18 17 17 17 17 17 17 17 17 17 17 17 17 17 16 16 16 16 15 15 15 16 16 15 15 15 15 16 16 15 15 15 14 14 14 15
16 16 17 17 17 17 18 18 18 17 17 17 17 17 17 17 17 16 17 17 17 16 16 16 15 15 15 15 16 16 15 15 15 15 15 16 16 15 15 15 15 15 14
16 16 16 16 17 17 17 17 17 17 17 17 17 16 16 16 16 16 16 17 16 16 16 15 15 15 15 16 16 16 16 16 16 15 15 13 16 16 16 16 16 15 15
16 16 16 17 16 17 17 17 17 17 17 17 17 16 16 16 16 16 17 17 16 16 16 15 15 16 16 16 16 16 16 16 16 16 13 13 14 15 15 16 16 16 15
16 16 16 16 16 16 17 17 17 17 17 17 17 17 16 14 16 16 16 16 16 15 15 16 16 17 17 16 16 16 16 16 16 15 14 13 13 15 15 15 15 15 15
16 16 16 16 16 16 16 16 16 17 17 17 17 16 16 15 16 15 15 16 15 15 15 15 16 16 16 16 16 16 16 16 16 14 14 15 13 15 15 15 15 15 15
16 16 16 16 16 16 16 16 16 16 16 16 16 16 16 15 16 16 15 15 15 15 15 15 17 16 16 16 16 16 16 15 15 15 13 14 13 15 15 15 14 14 14
16 16 16 15 16 16 16 16 16 16 16 16 15 16 16 16 16 15 15 15 15 15 15 15 16 16 16 16 15 15 15 15 15 14 14 12 14 15 14 14 14 14 14
16 16 16 15 15 15 15 16 16 16 16 16 16 16 15 15 15 15 15 15 15 15 15 15 15 16 16 15 15 15 15 15 13 13 13 12 14 14 14 14 14 13 13
15 16 16 15 14 15 16 16 16 16 16 16 16 16 16 15 15 15 15 14 15 14 15 14 14 15 16 15 15 15 14 14 13 14 13 12 14 14 14 14 13 13 13
14 15 16 16 15 14 15 15 16 16 16 16 16 16 16 16 14 15 15 14 14 14 14 14 14 14 15 15 14 14 14 13 12 12 13 14 14 14 13 13 13 13 13
14 14 15 15 15 15 15 15 15 15 15 15 15 15 16 16 14 14 14 15 14 14 14 14 14 14 14 13 13 14 14 12 12 12 12 14 14 13 13 13 13 13 13
14 13 14 14 14 15 15 15 15 15 15 15 15 15 15 16 16 15 14 15 15 14 13 13 13 13 13 13 13 12 12 12 13 12 12 14 14 14 13 13 13 13 13
14 14 13 13 14 15 14 15 15 15 15 15 15 15 15 15 16 15 14 14 14 14 13 13 13 13 13 13 13 12 12 12 12 12 13 14 14 13 13 13 13 13 13
13 14 14 13 14 14 14 15 14 14 14 14 13 14 15 15 15 14 14 14 14 14 13 14 14 14 13 13 12 12 13 12 12 12 12 14 14 13 13 13 13 13 13
12 14 14 13 14 13 14 15 14 14 12 13 14 14 14 14 14 14 14 14 14 14 13 13 13 14 13 13 13 12 12 13 12 13 12 13 14 13 13 13 13 13 13
11 12 14 14 13 13 13 14 14 14 13 13 13 13 13 14 14 14 15 15 15 14 13 13 13 13 13 13 13 13 14 14 14 12 13 13 13 13 13 13 13 13 13
10 11 13 13 13 13 13 13 13 13 13 13 13 13 13 13 14 14 14 14 15 12 14 13 13 13 13 13 13 13 13 13 12 12 12 13 13 13 13 13 13 13 13
10 9 11 12 13 13 13 13 13 13 13 13 13 13 13 13 13 13 13 13 13 14 13 13 13 13 13 13 13 13 14 13 13 12 12 12 12 13 13 13 13 13 13
11 10 11 11 12 13 13 13 14 13 13 13 14 13 13 13 13 13 12 12 11 11 11 12 13 12 12 13 13 12 12 13 12 13 15 13 12 12 13 13 13 13 13
9 10 10 10 11 12 13 13 13 14 14 13 13 13 13 13 13 12 12 12 12 11 11 11 11 11 12 12 12 12 12 12 11 12 14 14 13 12 13 13 13 13 13
7 7 8 9 10 11 12 12 12 13 13 13 13 13 13 13 12 12 12 13 12 11 11 11 11 11 11 12 11 11 11 11 11 13 13 14 13 13 13 13 13 13 13
7 7 8 8 9 9 10 12 12 13 13 13 13 13 13 12 12 12 12 12 13 12 12 11 11 11 11 11 11 11 10 11 12 12 14 14 14 12 14 14 13 13 13
6 7 7 8 8 10 13 12 11 11 10 10 11 10 10 10 10 10 12 12 12 11 11 12 12 11 11 11 10 11 10 12 12 13 13 13 13 12 13 14 13 13 13
6 6 6 7 10 11 11 11 11 10 10 9 9 10 10 10 10 10 10 10 11 11 11 11 11 11 11 11 10 10 10 10 11 11 12 13 13 14 14 13 14 13 13
5 6 7 7 9 8 9 10 9 9 9 9 9 9 9 10 9 10 10 10 11 10 10 11 10 10 10 10 10 10 10 9 10 9 10 11 11 11 13 13 13 13 13

GFSSE_850_temp_105.txt.gz
Temp
17 16 16 16 16 17 17 17 17 17 17 17 17 17 17 17 17 17 17 17 17 16 16 16 16 15 15 15 16 15 15 15 15 16 16 15 15 15 15 14 14 15 15
16 16 17 17 17 17 17 17 17 17 17 17 17 17 17 17 17 17 17 17 17 16 16 16 15 16 15 15 16 15 15 15 15 16 16 16 15 15 15 14 14 14 15
16 16 17 17 17 17 17 17 17 17 17 17 16 16 16 16 17 16 16 17 17 16 16 16 15 15 15 16 16 15 15 15 16 16 15 13 16 15 15 15 15 15 15
16 16 16 17 17 17 17 17 17 17 17 17 17 16 16 16 16 16 16 17 16 16 16 16 15 15 15 16 16 16 16 16 16 15 14 14 13 16 15 15 15 15 15
16 16 16 16 16 17 16 17 17 17 17 17 17 17 16 16 15 17 16 16 16 16 15 15 15 16 16 16 16 16 16 16 16 15 14 14 13 15 15 15 15 15 15
16 16 16 16 16 16 16 16 16 16 16 16 16 16 16 15 15 15 16 16 16 15 15 15 16 16 16 16 16 16 16 16 15 14 14 14 13 15 15 15 15 14 14
16 16 16 16 16 16 16 16 16 16 16 16 16 16 15 16 15 15 15 15 16 15 15 15 16 16 16 16 16 16 15 15 15 13 13 13 13 15 15 15 14 14 14
16 16 16 15 16 16 16 16 16 16 16 16 16 16 16 16 16 15 15 15 15 15 15 15 15 16 16 16 16 16 15 15 14 13 13 13 14 15 15 14 14 14 14
13 15 16 15 15 16 16 16 16 16 16 16 16 16 16 16 16 16 15 15 15 15 15 15 15 16 16 16 15 15 15 15 14 13 13 13 14 14 14 14 14 14 13
14 13 15 15 15 15 14 16 16 16 16 16 16 16 16 15 16 16 15 15 15 15 15 15 15 15 16 15 15 15 15 15 15 13 13 13 13 14 14 14 14 13 13
14 14 14 14 15 14 14 15 15 15 15 16 16 16 15 16 16 15 15 15 15 15 15 14 14 14 15 15 15 15 15 14 14 13 13 13 14 14 14 14 13 13 13
14 15 14 14 14 14 14 14 14 14 15 15 15 15 15 15 14 15 15 15 15 15 15 14 14 14 14 15 15 15 15 15 13 13 13 13 14 14 14 13 13 13 13
13 15 15 14 14 13 14 14 14 14 14 15 15 15 15 14 15 15 14 14 14 14 14 14 14 14 14 14 13 14 15 14 14 14 13 13 14 14 13 14 13 13 13
12 14 15 15 14 14 13 14 14 13 14 15 15 15 15 15 16 15 14 15 15 14 14 13 13 13 14 13 14 14 13 13 13 14 14 13 14 14 14 13 13 13 13
12 12 13 14 15 14 14 15 14 13 13 14 15 15 15 15 15 15 15 15 14 14 14 14 14 13 13 13 14 14 14 14 13 13 13 13 13 14 14 14 13 13 13
12 12 12 12 14 14 14 14 14 13 13 13 13 13 14 15 15 14 14 15 15 14 14 14 14 14 14 14 14 14 14 13 14 13 13 13 13 14 14 14 13 13 13
11 11 11 11 11 12 13 14 14 13 13 12 13 13 13 13 13 13 13 14 14 15 15 14 14 14 13 14 13 13 13 13 13 13 13 13 13 14 14 14 13 13 13
11 11 11 11 10 11 11 13 13 12 13 13 12 12 13 12 12 12 13 13 13 13 13 13 14 14 14 14 14 13 13 13 14 14 13 13 13 12 13 14 13 13 13
10 10 10 10 10 10 11 11 11 13 13 12 12 12 13 12 12 12 13 13 12 12 13 13 13 13 13 13 13 13 14 14 13 13 14 14 13 13 13 13 14 13 13
9 9 9 9 10 10 10 11 11 11 12 11 12 12 12 12 12 12 12 12 12 12 12 12 12 13 13 13 12 12 12 13 13 12 13 13 13 13 13 14 13 14 13
7 7 9 8 9 9 10 10 10 10 11 11 11 12 12 12 12 11 11 11 11 11 12 11 12 12 12 12 12 12 11 12 12 12 13 12 13 13 12 14 15 14 14
6 7 8 8 9 10 10 10 10 11 11 11 11 11 12 12 13 11 11 11 11 11 11 11 11 12 11 12 12 11 11 11 11 11 12 12 13 13 13 12 15 14 14
6 7 6 7 8 8 9 9 10 10 12 11 11 12 12 11 11 11 11 11 11 11 11 12 12 12 11 11 11 11 11 11 12 11 12 13 12 13 13 13 14 14 14
5 5 6 6 7 7 8 9 10 10 10 10 10 10 10 10 10 10 10 10 10 11 11 11 11 12 11 11 11 11 11 11 11 12 12 11 11 11 12 13 14 14 15
4 5 5 5 6 7 7 10 11 11 10 9 9 9 9 10 10 11 10 10 10 10 11 11 11 11 11 11 11 11 11 11 11 11 12 13 11 11 12 13 13 14 14
3 4 4 5 6 6 7 9 10 10 8 9 8 9 9 9 9 9 9 9 9 10 10 10 10 10 11 11 11 11 11 10 10 10 10 11 11 11 11 12 13 13 12

GFSSE_850_temp_108.txt.gz
Temp
16 17 17 16 16 17 17 17 17 17 18 17 17 17 17 17 17 17 17 18 17 17 16 16 16 15 16 16 15 15 15 15 15 16 15 15 15 15 15 14 15 14 14
16 17 17 17 17 17 17 17 17 17 17 17 17 17 17 17 17 17 17 17 17 16 16 15 15 15 15 16 16 15 15 15 16 16 16 16 15 15 15 14 14 14 14
16 17 17 17 17 17 17 17 17 17 17 17 17 16 16 16 16 16 17 17 17 16 16 15 15 15 15 16 16 15 15 15 15 15 15 15 15 15 15 15 15 15 14
16 16 16 17 17 17 17 17 17 17 17 17 17 16 16 16 16 16 16 16 16 16 15 16 16 15 15 16 16 16 15 15 15 14 14 13 15 16 16 15 15 15 15
16 16 16 16 17 17 17 17 17 17 17 16 16 16 16 16 16 16 16 16 16 15 15 16 15 15 16 17 17 16 16 15 15 14 14 14 14 15 15 15 15 15 15
15 16 16 16 16 16 16 16 17 16 16 16 16 16 16 16 16 15 16 16 16 16 15 15 15 16 16 16 16 17 16 16 15 13 13 13 13 14 15 15 15 15 15
15 15 16 16 16 16 16 16 16 16 16 16 16 16 16 16 16 15 16 15 16 16 15 15 15 16 16 16 16 16 16 16 15 14 13 13 13 14 15 15 14 14 14
15 15 16 15 15 15 16 16 16 16 16 16 16 16 16 16 16 16 16 16 15 15 15 15 15 16 16 16 16 16 16 15 15 13 13 13 13 14 15 15 15 14 14
16 16 15 15 15 15 15 16 16 16 16 16 16 16 16 16 16 16 16 16 15 15 15 15 15 15 16 16 16 16 16 15 14 14 13 13 14 14 15 14 14 14 14
15 16 16 15 15 15 15 15 15 16 16 16 15 16 16 15 16 16 16 16 16 15 15 15 15 15 15 16 16 16 15 15 15 14 13 13 13 14 15 14 14 14 13
15 15 16 16 15 15 15 15 15 15 15 15 16 16 16 16 16 15 15 15 15 15 15 15 15 14 15 15 15 16 15 15 15 14 13 13 13 14 15 15 14 14 13
14 16 15 16 16 15 15 15 15 15 15 15 15 15 15 15 15 16 15 15 15 15 15 15 15 14 14 15 14 15 15 15 15 14 13 13 13 14 14 14 14 14 14
12 13 14 15 15 15 15 14 14 14 14 14 14 14 14 14 14 14 15 15 15 15 15 14 14 14 15 14 14 15 15 15 15 14 13 13 13 14 14 14 14 14 14
12 12 13 14 14 14 14 15 13 13 13 14 15 14 14 14 14 14 15 15 15 15 15 15 14 14 14 14 14 13 14 14 15 14 13 13 13 14 14 14 13 13 13
12 12 12 12 13 14 13 13 15 13 13 13 14 15 14 14 15 15 14 14 14 14 14 14 14 14 14 14 14 14 13 14 14 14 13 13 13 14 14 14 13 13 13
11 11 11 11 11 11 13 12 13 14 13 13 13 14 15 15 14 15 14 15 14 14 14 13 14 14 14 14 14 13 14 14 14 14 13 13 13 13 14 14 14 14 13
10 11 11 11 11 11 11 12 11 13 12 13 14 13 13 13 14 14 14 15 15 15 14 14 14 14 14 14 14 14 14 13 14 14 13 13 13 13 14 14 14 14 14
9 9 10 10 10 10 10 11 11 12 12 12 13 13 13 13 13 12 13 14 14 14 14 14 14 14 14 13 14 14 14 14 13 14 14 13 13 13 14 15 15 14 14
8 8 9 9 9 10 10 11 11 11 11 12 11 12 13 13 13 13 13 13 13 13 13 14 14 13 14 14 14 14 14 13 13 13 13 14 14 14 14 14 15 15 14
8 8 8 8 8 9 9 10 11 11 11 12 11 11 12 12 13 12 13 12 12 12 12 12 13 14 13 13 13 14 13 13 13 13 12 13 13 13 13 13 14 14 15
7 8 8 8 8 8 9 9 10 11 11 11 11 12 13 13 13 13 11 11 11 12 12 12 12 12 12 13 12 12 12 12 12 13 13 12 12 12 12 13 13 13 14
6 7 8 7 7 8 8 9 10 10 10 11 11 11 11 12 12 11 11 11 11 11 11 11 11 12 11 12 12 11 11 11 11 11 12 12 12 11 12 12 14 14 14
5 6 7 5 6 7 7 8 9 9 10 10 11 12 11 11 11 10 10 10 10 10 10 11 11 11 11 11 11 11 11 11 12 12 12 13 13 12 11 12 12 13 14
4 5 6 6 5 6 7 7 8 8 10 10 9 10 10 10 10 10 10 10 10 9 9 9 10 10 11 10 11 11 11 11 11 12 12 12 13 12 13 12 12 12 13
4 4 5 6 5 6 6 7 6 8 10 9 9 11 9 9 9 9 9 9 10 10 10 10 9 9 10 10 10 11 11 11 10 11 10 11 12 12 12 12 11 11 13
3 3 4 5 5 4 5 6 7 7 9 9 9 8 8 8 8 8 8 8 8 9 9 8 9 9 9 10 10 10 10 10 10 10 11 10 11 11 11 11 11 11 12

GFSSE_850_temp_111.txt.gz
Temp
17 16 17 16 16 17 17 17 17 17 17 17 17 17 17 17 17 17 17 18 17 17 16 16 16 16 16 16 15 15 15 15 16 15 15 15 15 15 15 15 15 14 14
16 16 17 17 17 17 17 17 17 17 17 17 17 17 17 17 17 17 17 17 17 16 16 16 16 15 16 16 15 15 15 16 15 15 15 15 15 14 14 14 14 15 15
16 17 16 17 17 17 17 17 17 17 17 17 17 17 16 16 16 16 16 17 16 16 16 15 15 15 16 17 16 16 15 15 15 15 15 15 15 15 15 15 15 15 15
16 17 16 16 16 17 17 17 17 17 17 17 16 17 16 16 16 16 16 16 17 15 15 16 15 15 16 16 17 16 16 15 15 14 14 15 14 15 15 15 15 15 15
15 16 17 17 16 16 17 17 17 17 17 17 17 17 17 16 16 16 16 16 16 16 16 16 15 15 15 15 16 16 16 16 15 14 13 13 14 15 15 15 15 15 15
16 15 16 16 16 16 16 16 16 16 16 16 16 17 16 16 16 16 16 16 16 16 15 15 15 16 16 16 16 16 16 15 15 14 14 13 14 14 15 15 15 15 15
16 15 16 16 15 15 15 16 16 16 16 16 16 16 16 16 16 16 16 16 16 16 16 15 15 15 16 16 16 16 16 16 15 14 13 14 14 14 15 15 15 15 15
16 15 16 16 16 16 15 15 15 16 16 16 16 16 16 16 16 16 16 16 16 16 16 15 15 15 16 16 16 16 16 15 15 14 13 14 14 14 15 15 15 15 14
16 16 16 15 15 15 15 15 15 15 16 16 16 16 16 16 16 16 16 16 16 16 16 15 15 15 15 16 16 16 16 15 15 14 13 13 14 14 15 15 15 14 14
15 16 16 16 15 15 15 14 15 15 15 15 15 15 15 15 15 15 16 16 16 16 15 15 15 15 15 15 16 16 16 15 15 15 13 13 13 13 14 14 14 14 14
15 15 15 16 16 15 15 15 15 15 15 15 15 15 15 15 15 15 15 16 15 16 16 15 15 15 15 15 15 16 16 16 15 15 14 14 13 14 14 14 14 14 14
14 14 14 15 15 15 15 15 15 15 15 15 15 15 15 15 15 15 16 15 15 15 15 15 15 15 14 15 15 15 15 16 15 15 14 14 14 13 14 14 14 14 14
12 13 13 14 14 15 15 15 14 14 14 14 14 15 15 15 14 15 15 14 14 15 15 15 15 15 15 15 14 14 14 15 15 15 14 14 13 14 14 14 14 14 14
11 11 12 12 12 13 13 14 15 14 14 14 14 14 14 15 15 14 14 14 14 14 14 14 14 15 15 15 14 14 14 14 14 14 14 14 13 13 14 14 15 14 14
11 11 11 11 11 11 12 13 13 14 13 13 13 13 14 14 15 14 14 14 14 14 14 14 14 14 14 14 14 14 14 14 14 14 14 14 13 13 13 14 14 15 14
10 10 10 10 10 11 11 12 12 13 13 12 13 13 13 14 14 14 14 14 14 14 14 14 14 14 14 14 14 14 14 14 14 13 14 14 13 13 13 13 14 14 14
9 10 10 10 10 10 10 10 11 12 12 13 12 12 13 13 14 14 14 15 14 14 14 13 13 13 14 14 14 14 14 14 13 13 14 14 14 13 13 13 13 14 14
9 9 9 10 10 10 10 10 10 11 12 11 12 13 13 13 13 14 14 14 14 14 14 14 14 14 14 13 13 14 14 14 14 13 13 13 13 13 13 14 14 14 14
9 9 9 9 9 10 9 10 9 10 10 11 11 12 13 12 13 13 13 14 13 13 13 14 14 13 13 14 14 14 14 14 14 14 13 13 13 13 14 14 14 14 14
8 9 9 9 9 9 9 9 9 9 10 10 11 11 12 12 12 12 12 13 14 13 12 12 12 13 13 13 13 13 13 14 14 13 13 13 13 13 13 13 13 13 14
8 8 8 8 9 9 9 8 9 9 9 10 10 11 12 12 11 11 12 12 12 12 12 11 12 11 12 11 11 12 13 13 13 13 13 13 13 13 13 12 13 13 13
5 6 7 7 8 8 8 8 8 8 9 9 10 10 10 10 11 11 12 12 12 12 11 11 11 11 11 11 11 11 11 11 11 12 13 13 13 13 13 12 12 12 13
3 4 5 6 7 7 8 8 7 8 9 9 9 9 9 9 10 10 11 11 11 12 11 11 11 10 10 11 10 10 10 11 12 12 12 13 13 13 13 13 13 13 12
4 4 4 6 7 6 7 6 7 7 7 7 9 8 8 9 9 9 10 11 10 10 10 10 10 10 10 10 9 10 10 10 10 11 11 12 12 12 12 13 13 13 12
4 5 4 5 6 6 6 6 6 7 7 7 8 8 8 8 8 8 9 9 8 8 9 9 8 9 10 9 9 9 9 10 10 10 10 11 11 11 11 12 12 12 12
4 4 4 4 4 5 6 5 5 6 6 7 7 6 7 7 7 7 7 7 7 7 8 8 8 7 8 7 7 9 9 9 10 10 10 10 10 11 11 11 11 12 13

GFSSE_850_temp_114.txt.gz
Temp
17 16 17 16 17 16 17 17 17 17 17 17 17 17 17 17 17 17 17 17 16 16 16 16 16 17 17 15 15 15 15 15 15 15 15 15 15 15 15 15 14 14 14
16 16 17 16 16 17 17 17 17 17 17 17 17 16 16 17 17 17 17 17 16 16 16 15 16 16 16 16 15 15 15 16 16 15 15 15 15 15 14 14 14 14 14
16 17 17 16 16 16 16 17 17 17 17 17 17 16 16 16 16 16 16 17 16 16 16 15 15 16 16 16 16 15 16 16 16 16 15 15 15 15 15 15 15 15 15
16 17 17 16 16 16 16 16 16 17 16 16 16 16 16 16 16 16 16 16 16 16 15 15 15 16 16 16 16 16 16 15 16 16 15 15 15 15 15 16 16 16 15
15 16 17 16 16 16 16 17 17 17 17 16 16 16 16 16 16 16 16 16 16 16 16 16 15 16 16 16 16 16 16 15 15 15 15 15 15 15 15 16 15 15 15
15 15 16 16 17 16 16 16 16 16 17 16 16 16 16 16 16 16 16 16 16 16 16 15 15 16 16 16 16 16 16 15 14 15 15 15 15 15 16 15 15 15 15
15 15 16 16 16 16 15 15 16 16 16 16 16 16 16 16 16 16 16 16 16 16 16 15 15 15 16 16 16 16 16 16 15 14 14 14 14 15 15 15 15 15 15
16 15 15 16 16 16 16 16 15 16 16 16 15 16 16 16 16 16 16 15 15 15 16 15 15 15 15 16 16 16 16 16 15 15 15 15 14 14 14 15 15 15 15
16 16 15 15 15 15 15 15 15 15 15 15 15 15 15 15 15 15 15 15 15 15 16 16 15 15 15 15 16 16 16 16 15 15 15 15 14 14 15 15 15 15 14
15 15 15 15 15 14 14 14 14 15 15 16 15 15 15 15 15 15 15 15 15 15 15 15 15 15 15 15 15 16 16 15 15 15 15 15 14 14 14 14 14 14 14
14 14 15 15 15 15 14 15 15 15 14 15 15 15 15 16 16 16 15 15 15 15 15 15 15 15 15 15 15 15 16 16 15 15 14 14 14 13 14 14 14 14 14
13 13 13 14 15 15 15 14 14 14 15 14 14 15 15 15 15 15 15 15 15 15 15 15 15 15 15 15 14 14 15 15 15 15 14 14 14 14 14 14 14 14 14
12 12 12 12 12 13 14 14 14 14 14 14 14 14 14 15 15 15 15 15 15 14 14 14 15 14 14 15 15 15 15 15 14 15 14 14 14 14 13 14 14 14 14
11 11 11 12 12 12 12 13 14 14 14 13 13 13 13 13 14 14 15 15 15 14 14 14 14 14 14 14 14 14 14 14 14 15 15 14 14 14 13 13 14 14 14
11 11 11 11 11 12 12 12 12 13 14 14 13 13 13 13 13 14 14 14 14 14 14 14 14 14 14 14 14 14 14 14 14 14 14 14 14 14 14 13 13 13 14
10 10 10 11 11 11 12 12 12 12 12 13 13 13 13 13 13 13 13 14 14 14 14 14 14 14 14 14 14 14 14 14 14 14 14 14 14 14 14 13 13 13 13
9 10 10 10 11 11 11 12 12 12 12 11 12 13 12 13 13 13 13 13 14 14 14 14 14 14 14 14 14 14 14 14 14 14 14 14 14 13 13 13 13 13 13
9 9 10 9 10 10 11 11 11 11 11 11 11 11 12 12 12 13 12 13 14 14 13 14 14 14 14 14 14 14 14 14 14 14 13 14 14 13 13 13 13 13 13
9 9 9 9 9 9 10 10 10 10 10 11 11 11 11 12 12 12 12 12 13 13 13 13 13 13 13 13 13 13 13 13 13 13 13 13 13 13 13 13 14 13 13
8 8 8 9 9 9 9 9 9 9 9 9 10 10 10 11 11 11 11 12 12 12 12 12 12 12 12 12 12 12 13 13 14 14 14 14 14 13 13 13 13 13 13
7 7 7 8 8 8 9 9 9 8 8 9 9 10 10 10 10 10 11 11 12 11 11 11 11 12 12 11 11 12 12 13 13 13 14 15 14 14 14 13 13 13 13
5 4 6 7 7 8 8 8 8 7 7 8 8 8 9 9 9 10 10 10 10 10 11 12 12 12 12 11 10 10 10 12 12 13 13 13 13 14 13 13 13 12 12
5 4 4 6 6 7 7 7 8 7 7 8 9 8 9 8 8 8 9 9 9 9 9 10 11 11 11 11 10 9 10 11 11 11 11 11 11 12 13 13 13 12 12
5 5 5 5 6 7 7 5 6 6 6 6 6 6 7 7 7 7 8 8 8 9 9 8 10 9 10 9 10 9 9 9 9 9 10 10 10 11 11 11 12 13 13
5 5 4 4 4 6 7 5 5 5 5 5 6 6 7 7 7 8 8 7 7 7 7 9 8 8 8 8 7 7 8 8 8 9 9 10 10 10 10 11 11 11 12
5 5 4 4 4 5 5 6 5 5 5 5 5 5 6 6 6 7 7 7 7 6 7 7 7 7 7 7 6 6 6 6 6 5 6 7 9 9 10 10 11 12 12

GFSSE_850_temp_117.txt.gz
Temp
16 16 17 16 16 16 16 16 17 17 17 17 17 17 17 17 17 17 17 17 17 16 16 16 16 16 16 15 15 16 16 16 16 15 15 15 15 15 15 15 15 14 15
17 16 17 16 16 16 17 17 17 16 17 17 17 16 16 16 16 16 17 17 16 16 16 16 16 16 16 15 15 15 15 16 16 16 16 16 15 14 15 15 14 15 15
16 17 16 16 16 16 17 17 17 17 16 16 16 16 16 16 16 16 16 16 16 16 16 15 15 16 16 15 15 15 15 16 16 16 16 16 16 15 15 15 15 15 16
16 16 16 16 16 16 16 16 16 16 16 16 16 16 16 16 16 16 16 16 16 16 16 15 15 15 16 16 15 15 15 15 16 15 15 15 16 16 16 16 16 16 15
16 16 16 16 16 16 16 16 16 16 16 16 16 16 16 16 16 16 16 16 16 16 16 15 15 15 15 15 16 15 15 16 16 15 15 15 15 16 16 16 16 15 15
15 14 15 16 15 16 16 16 16 16 16 16 16 16 16 16 16 16 16 16 16 16 15 15 15 15 16 16 16 15 15 15 16 16 16 15 14 14 15 15 15 15 15
15 14 15 16 16 16 15 15 16 16 16 16 16 16 16 16 15 16 15 16 16 16 16 15 15 15 15 16 16 16 15 15 15 15 15 16 15 15 14 15 15 15 15
15 15 15 16 16 16 16 16 15 15 16 16 16 15 16 16 16 15 15 15 15 15 15 16 15 15 15 15 16 16 15 15 15 15 15 15 15 15 14 15 15 15 15
15 15 15 15 15 15 15 15 15 15 15 15 15 15 16 16 16 16 16 16 15 15 15 15 15 15 15 15 15 16 16 15 15 15 15 15 14 14 14 14 14 14 15
15 15 15 15 15 14 14 14 14 14 14 15 15 15 15 15 15 16 16 16 15 15 15 15 15 15 15 15 14 15 15 15 15 15 15 15 14 14 14 14 14 14 14
14 14 14 14 15 15 14 14 14 14 14 14 14 14 14 15 15 15 15 15 15 15 15 15 15 15 15 14 15 14 15 15 15 15 15 15 14 14 13 13 14 14 14
13 13 13 13 14 14 14 14 14 14 14 14 14 14 14 14 14 15 15 15 15 15 15 15 15 15 14 14 14 14 14 15 15 15 14 14 14 14 13 13 14 14 14
11 12 12 12 12 13 13 14 14 15 14 13 14 13 14 13 14 14 14 15 15 15 15 15 15 15 15 14 14 14 14 14 14 14 14 14 14 14 14 13 13 13 13
11 11 11 11 12 12 12 13 13 14 14 14 14 14 13 13 13 13 13 14 14 14 14 14 14 14 14 14 14 14 13 13 13 14 14 14 14 14 14 14 13 13 13
11 11 11 11 11 12 12 12 12 13 13 13 14 13 13 13 13 13 13 13 13 14 14 14 14 14 14 14 14 14 14 14 14 14 14 13 14 14 14 13 13 13 13
10 11 11 11 11 11 12 12 12 12 12 12 13 13 13 12 13 13 13 13 13 13 13 14 14 14 14 14 14 14 14 13 14 14 14 14 14 13 13 13 13 13 13
10 10 10 11 11 11 12 12 12 12 12 12 11 12 12 12 12 13 13 13 13 13 13 13 13 14 14 14 14 14 14 14 14 14 14 14 14 13 13 13 13 13 13
10 10 10 10 10 10 10 11 11 11 11 11 11 10 10 11 11 11 12 12 13 12 12 12 13 13 14 14 14 14 14 14 14 14 13 14 14 14 14 14 14 13 13
9 9 9 9 9 9 10 10 10 10 10 9 9 10 10 10 11 10 11 11 11 12 11 12 12 12 12 12 13 13 13 13 13 13 14 14 14 14 14 14 14 13 13
8 8 8 8 8 8 9 9 9 9 9 8 8 9 9 9 10 10 10 10 12 11 11 11 11 11 11 12 12 13 13 13 13 13 14 14 15 15 15 15 15 15 14
7 7 7 7 7 7 8 8 9 7 7 7 7 8 8 8 9 9 10 10 10 11 11 11 11 11 11 11 11 12 12 13 13 14 14 14 14 14 14 14 15 14 14
6 5 5 6 6 7 7 7 7 6 6 6 6 7 7 8 8 7 8 8 9 10 10 9 10 10 10 10 10 10 10 12 13 12 12 12 12 12 12 13 13 13 14
5 5 5 6 7 7 7 7 6 7 5 6 6 6 6 7 7 7 8 8 9 8 8 8 8 8 9 8 9 8 9 9 9 11 11 11 10 10 11 11 12 12 13
5 5 5 6 7 7 7 7 5 6 6 6 6 6 6 7 7 7 7 7 7 8 8 8 8 8 9 8 8 7 7 7 7 8 8 9 9 9 10 10 10 11 11
5 5 5 5 5 5 6 7 5 6 6 6 6 5 5 5 6 5 5 5 6 6 6 7 7 7 8 8 8 8 8 7 6 5 6 7 9 8 9 9 9 10 11
5 4 4 4 4 4 4 5 5 5 5 5 6 6 5 5 5 5 4 5 4 5 6 6 7 6 6 6 6 5 5 4 4 4 4 4 5 7 8 9 9 10 11